<?xml version="1.0" encoding="UTF-8" standalone="no" ?>
<gpx xmlns="http://www.topografix.com/GPX/1/1" xmlns:xsi="http://www.w3.org/2001/XMLSchema-instance" xsi:schemaLocation="http://www.topografix.com/GPX/1/1 http://www.topografix.com/GPX/1/1/gpx.xsd" version="1.1" creator="VisuGPX - https://www.visugpx.com">
  <metadata>
    <name>Soissons-sepmont 43 kms 467m</name>
  </metadata>
  <trk>
    <name><![CDATA[Soissons Cyclisme]]></name>
    <extensions>
      <line xmlns="http://www.topografix.com/GPX/gpx_style/0/2">
        <color>0000FF</color>
        <width>4</width>
      </line>
    </extensions>
    <trkseg>
      <trkpt lat="49.38199" lon="3.33253">
        <ele>42.799999237061</ele>
        <time>2021-08-12T06:33:52.000Z</time>
      </trkpt>
      <trkpt lat="49.38195" lon="3.33244">
        <ele>42.799999237061</ele>
        <time>2021-08-12T06:33:54.000Z</time>
      </trkpt>
      <trkpt lat="49.38188" lon="3.33221">
        <ele>43.200000762939</ele>
        <time>2021-08-12T06:33:58.000Z</time>
      </trkpt>
      <trkpt lat="49.38178" lon="3.3319">
        <ele>43</ele>
        <time>2021-08-12T06:34:04.000Z</time>
      </trkpt>
      <trkpt lat="49.38169" lon="3.33162">
        <ele>43</ele>
        <time>2021-08-12T06:34:10.000Z</time>
      </trkpt>
      <trkpt lat="49.38161" lon="3.33132">
        <ele>43</ele>
        <time>2021-08-12T06:34:17.000Z</time>
      </trkpt>
      <trkpt lat="49.38156" lon="3.33106">
        <ele>43.799999237061</ele>
        <time>2021-08-12T06:34:23.000Z</time>
      </trkpt>
      <trkpt lat="49.38148" lon="3.33072">
        <ele>44.200000762939</ele>
        <time>2021-08-12T06:34:30.000Z</time>
      </trkpt>
      <trkpt lat="49.38141" lon="3.33059">
        <ele>44.599998474121</ele>
        <time>2021-08-12T06:34:34.000Z</time>
      </trkpt>
      <trkpt lat="49.38124" lon="3.33063">
        <ele>44.599998474121</ele>
        <time>2021-08-12T06:34:40.000Z</time>
      </trkpt>
      <trkpt lat="49.38101" lon="3.3307">
        <ele>44</ele>
        <time>2021-08-12T06:34:47.000Z</time>
      </trkpt>
      <trkpt lat="49.38073" lon="3.33081">
        <ele>44</ele>
        <time>2021-08-12T06:34:54.000Z</time>
      </trkpt>
      <trkpt lat="49.38048" lon="3.33087">
        <ele>44</ele>
        <time>2021-08-12T06:35:00.000Z</time>
      </trkpt>
      <trkpt lat="49.38025" lon="3.33096">
        <ele>43.400001525879</ele>
        <time>2021-08-12T06:35:06.000Z</time>
      </trkpt>
      <trkpt lat="49.38018" lon="3.33098">
        <ele>42.799999237061</ele>
        <time>2021-08-12T06:35:08.000Z</time>
      </trkpt>
      <trkpt lat="49.38011" lon="3.33097">
        <ele>42.400001525879</ele>
        <time>2021-08-12T06:35:10.000Z</time>
      </trkpt>
      <trkpt lat="49.37991" lon="3.33101">
        <ele>41.200000762939</ele>
        <time>2021-08-12T06:35:15.000Z</time>
      </trkpt>
      <trkpt lat="49.37967" lon="3.33109">
        <ele>41</ele>
        <time>2021-08-12T06:35:21.000Z</time>
      </trkpt>
      <trkpt lat="49.37952" lon="3.33113">
        <ele>41.400001525879</ele>
        <time>2021-08-12T06:35:24.000Z</time>
      </trkpt>
      <trkpt lat="49.37941" lon="3.33113">
        <ele>41.799999237061</ele>
        <time>2021-08-12T06:35:27.000Z</time>
      </trkpt>
      <trkpt lat="49.37933" lon="3.33118">
        <ele>42</ele>
        <time>2021-08-12T06:35:32.000Z</time>
      </trkpt>
      <trkpt lat="49.37923" lon="3.33122">
        <ele>42.400001525879</ele>
        <time>2021-08-12T06:35:37.000Z</time>
      </trkpt>
      <trkpt lat="49.37915" lon="3.33126">
        <ele>43</ele>
        <time>2021-08-12T06:35:42.000Z</time>
      </trkpt>
      <trkpt lat="49.37912" lon="3.33129">
        <ele>43</ele>
        <time>2021-08-12T06:35:44.000Z</time>
      </trkpt>
      <trkpt lat="49.37905" lon="3.33137">
        <ele>43.599998474121</ele>
        <time>2021-08-12T06:35:47.000Z</time>
      </trkpt>
      <trkpt lat="49.37886" lon="3.3315">
        <ele>44.400001525879</ele>
        <time>2021-08-12T06:35:53.000Z</time>
      </trkpt>
      <trkpt lat="49.37873" lon="3.33173">
        <ele>44.400001525879</ele>
        <time>2021-08-12T06:35:59.000Z</time>
      </trkpt>
      <trkpt lat="49.37871" lon="3.3318">
        <ele>44.400001525879</ele>
        <time>2021-08-12T06:36:01.000Z</time>
      </trkpt>
      <trkpt lat="49.37872" lon="3.33188">
        <ele>44</ele>
        <time>2021-08-12T06:36:03.000Z</time>
      </trkpt>
      <trkpt lat="49.37873" lon="3.33191">
        <ele>44</ele>
        <time>2021-08-12T06:36:04.000Z</time>
      </trkpt>
      <trkpt lat="49.37878" lon="3.33197">
        <ele>44</ele>
        <time>2021-08-12T06:36:06.000Z</time>
      </trkpt>
      <trkpt lat="49.37893" lon="3.33213">
        <ele>43.799999237061</ele>
        <time>2021-08-12T06:36:12.000Z</time>
      </trkpt>
      <trkpt lat="49.37917" lon="3.33236">
        <ele>43.599998474121</ele>
        <time>2021-08-12T06:36:20.000Z</time>
      </trkpt>
      <trkpt lat="49.37931" lon="3.33248">
        <ele>43.400001525879</ele>
        <time>2021-08-12T06:36:25.000Z</time>
      </trkpt>
      <trkpt lat="49.37943" lon="3.3326">
        <ele>43</ele>
        <time>2021-08-12T06:36:30.000Z</time>
      </trkpt>
      <trkpt lat="49.37945" lon="3.33259">
        <ele>42.799999237061</ele>
        <time>2021-08-12T06:36:31.000Z</time>
      </trkpt>
      <trkpt lat="49.37947" lon="3.33256">
        <ele>42.799999237061</ele>
        <time>2021-08-12T06:36:32.000Z</time>
      </trkpt>
      <trkpt lat="49.3795" lon="3.33241">
        <ele>42.599998474121</ele>
        <time>2021-08-12T06:36:35.000Z</time>
      </trkpt>
      <trkpt lat="49.37956" lon="3.33217">
        <ele>42</ele>
        <time>2021-08-12T06:36:41.000Z</time>
      </trkpt>
      <trkpt lat="49.37966" lon="3.33205">
        <ele>41.799999237061</ele>
        <time>2021-08-12T06:36:47.000Z</time>
      </trkpt>
      <trkpt lat="49.3797" lon="3.33208">
        <ele>42</ele>
        <time>2021-08-12T06:36:49.000Z</time>
      </trkpt>
      <trkpt lat="49.3797" lon="3.33211">
        <ele>42</ele>
        <time>2021-08-12T06:36:50.000Z</time>
      </trkpt>
      <trkpt lat="49.37964" lon="3.33228">
        <ele>42</ele>
        <time>2021-08-12T06:36:54.000Z</time>
      </trkpt>
      <trkpt lat="49.3796" lon="3.33263">
        <ele>42.400001525879</ele>
        <time>2021-08-12T06:37:00.000Z</time>
      </trkpt>
      <trkpt lat="49.37955" lon="3.3329">
        <ele>42.400001525879</ele>
        <time>2021-08-12T06:37:05.000Z</time>
      </trkpt>
      <trkpt lat="49.37943" lon="3.33327">
        <ele>43</ele>
        <time>2021-08-12T06:37:11.000Z</time>
      </trkpt>
      <trkpt lat="49.37939" lon="3.3336">
        <ele>43</ele>
        <time>2021-08-12T06:37:17.000Z</time>
      </trkpt>
      <trkpt lat="49.37935" lon="3.33381">
        <ele>43.200000762939</ele>
        <time>2021-08-12T06:37:21.000Z</time>
      </trkpt>
      <trkpt lat="49.3793" lon="3.33402">
        <ele>41.799999237061</ele>
        <time>2021-08-12T06:37:25.000Z</time>
      </trkpt>
      <trkpt lat="49.37925" lon="3.33429">
        <ele>41.599998474121</ele>
        <time>2021-08-12T06:37:30.000Z</time>
      </trkpt>
      <trkpt lat="49.37915" lon="3.33462">
        <ele>40.400001525879</ele>
        <time>2021-08-12T06:37:36.000Z</time>
      </trkpt>
      <trkpt lat="49.37913" lon="3.33467">
        <ele>40</ele>
        <time>2021-08-12T06:37:37.000Z</time>
      </trkpt>
      <trkpt lat="49.37905" lon="3.33491">
        <ele>40.400001525879</ele>
        <time>2021-08-12T06:37:42.000Z</time>
      </trkpt>
      <trkpt lat="49.37895" lon="3.33513">
        <ele>39.599998474121</ele>
        <time>2021-08-12T06:37:47.000Z</time>
      </trkpt>
      <trkpt lat="49.37883" lon="3.33548">
        <ele>39</ele>
        <time>2021-08-12T06:37:53.000Z</time>
      </trkpt>
      <trkpt lat="49.37872" lon="3.33581">
        <ele>38</ele>
        <time>2021-08-12T06:37:59.000Z</time>
      </trkpt>
      <trkpt lat="49.37861" lon="3.3361">
        <ele>37.200000762939</ele>
        <time>2021-08-12T06:38:04.000Z</time>
      </trkpt>
      <trkpt lat="49.37859" lon="3.33615">
        <ele>37.200000762939</ele>
        <time>2021-08-12T06:38:05.000Z</time>
      </trkpt>
      <trkpt lat="49.37853" lon="3.33642">
        <ele>37.200000762939</ele>
        <time>2021-08-12T06:38:10.000Z</time>
      </trkpt>
      <trkpt lat="49.37846" lon="3.33669">
        <ele>37.599998474121</ele>
        <time>2021-08-12T06:38:15.000Z</time>
      </trkpt>
      <trkpt lat="49.37839" lon="3.33702">
        <ele>39.599998474121</ele>
        <time>2021-08-12T06:38:21.000Z</time>
      </trkpt>
      <trkpt lat="49.37835" lon="3.33741">
        <ele>41.799999237061</ele>
        <time>2021-08-12T06:38:27.000Z</time>
      </trkpt>
      <trkpt lat="49.37834" lon="3.33754">
        <ele>42.400001525879</ele>
        <time>2021-08-12T06:38:29.000Z</time>
      </trkpt>
      <trkpt lat="49.37834" lon="3.33761">
        <ele>42.599998474121</ele>
        <time>2021-08-12T06:38:30.000Z</time>
      </trkpt>
      <trkpt lat="49.37833" lon="3.33784">
        <ele>43.799999237061</ele>
        <time>2021-08-12T06:38:34.000Z</time>
      </trkpt>
      <trkpt lat="49.37834" lon="3.33821">
        <ele>45</ele>
        <time>2021-08-12T06:38:40.000Z</time>
      </trkpt>
      <trkpt lat="49.37833" lon="3.33848">
        <ele>44.400001525879</ele>
        <time>2021-08-12T06:38:45.000Z</time>
      </trkpt>
      <trkpt lat="49.37834" lon="3.33867">
        <ele>43.200000762939</ele>
        <time>2021-08-12T06:38:49.000Z</time>
      </trkpt>
      <trkpt lat="49.37838" lon="3.33893">
        <ele>41.799999237061</ele>
        <time>2021-08-12T06:38:54.000Z</time>
      </trkpt>
      <trkpt lat="49.37839" lon="3.33923">
        <ele>40.400001525879</ele>
        <time>2021-08-12T06:38:59.000Z</time>
      </trkpt>
      <trkpt lat="49.37839" lon="3.33955">
        <ele>40.400001525879</ele>
        <time>2021-08-12T06:39:04.000Z</time>
      </trkpt>
      <trkpt lat="49.37842" lon="3.33992">
        <ele>40.400001525879</ele>
        <time>2021-08-12T06:39:10.000Z</time>
      </trkpt>
      <trkpt lat="49.37847" lon="3.34024">
        <ele>41.599998474121</ele>
        <time>2021-08-12T06:39:15.000Z</time>
      </trkpt>
      <trkpt lat="49.37849" lon="3.34049">
        <ele>42.400001525879</ele>
        <time>2021-08-12T06:39:19.000Z</time>
      </trkpt>
      <trkpt lat="49.37848" lon="3.34068">
        <ele>42.200000762939</ele>
        <time>2021-08-12T06:39:23.000Z</time>
      </trkpt>
      <trkpt lat="49.37847" lon="3.34086">
        <ele>42.400001525879</ele>
        <time>2021-08-12T06:39:27.000Z</time>
      </trkpt>
      <trkpt lat="49.37848" lon="3.3411">
        <ele>41.799999237061</ele>
        <time>2021-08-12T06:39:32.000Z</time>
      </trkpt>
      <trkpt lat="49.37854" lon="3.34136">
        <ele>41</ele>
        <time>2021-08-12T06:39:37.000Z</time>
      </trkpt>
      <trkpt lat="49.37856" lon="3.34162">
        <ele>42</ele>
        <time>2021-08-12T06:39:42.000Z</time>
      </trkpt>
      <trkpt lat="49.37855" lon="3.34167">
        <ele>42.200000762939</ele>
        <time>2021-08-12T06:39:45.000Z</time>
      </trkpt>
      <trkpt lat="49.37856" lon="3.3419">
        <ele>43.799999237061</ele>
        <time>2021-08-12T06:40:01.000Z</time>
      </trkpt>
      <trkpt lat="49.37856" lon="3.34193">
        <ele>44</ele>
        <time>2021-08-12T06:40:02.000Z</time>
      </trkpt>
      <trkpt lat="49.37858" lon="3.34219">
        <ele>45</ele>
        <time>2021-08-12T06:40:07.000Z</time>
      </trkpt>
      <trkpt lat="49.37859" lon="3.34247">
        <ele>45.799999237061</ele>
        <time>2021-08-12T06:40:12.000Z</time>
      </trkpt>
      <trkpt lat="49.37862" lon="3.34291">
        <ele>43.799999237061</ele>
        <time>2021-08-12T06:40:20.000Z</time>
      </trkpt>
      <trkpt lat="49.37866" lon="3.3431">
        <ele>42.599998474121</ele>
        <time>2021-08-12T06:40:24.000Z</time>
      </trkpt>
      <trkpt lat="49.3787" lon="3.34331">
        <ele>42</ele>
        <time>2021-08-12T06:40:29.000Z</time>
      </trkpt>
      <trkpt lat="49.37871" lon="3.34339">
        <ele>42</ele>
        <time>2021-08-12T06:40:31.000Z</time>
      </trkpt>
      <trkpt lat="49.37874" lon="3.34347">
        <ele>42</ele>
        <time>2021-08-12T06:40:33.000Z</time>
      </trkpt>
      <trkpt lat="49.37875" lon="3.34351">
        <ele>41.799999237061</ele>
        <time>2021-08-12T06:40:34.000Z</time>
      </trkpt>
      <trkpt lat="49.37879" lon="3.34367">
        <ele>41.400001525879</ele>
        <time>2021-08-12T06:40:37.000Z</time>
      </trkpt>
      <trkpt lat="49.37883" lon="3.34401">
        <ele>41.400001525879</ele>
        <time>2021-08-12T06:40:42.000Z</time>
      </trkpt>
      <trkpt lat="49.37885" lon="3.34408">
        <ele>41.799999237061</ele>
        <time>2021-08-12T06:40:43.000Z</time>
      </trkpt>
      <trkpt lat="49.37886" lon="3.34426">
        <ele>42</ele>
        <time>2021-08-12T06:40:46.000Z</time>
      </trkpt>
      <trkpt lat="49.37886" lon="3.34455">
        <ele>42.599998474121</ele>
        <time>2021-08-12T06:40:51.000Z</time>
      </trkpt>
      <trkpt lat="49.37885" lon="3.34489">
        <ele>43.799999237061</ele>
        <time>2021-08-12T06:40:57.000Z</time>
      </trkpt>
      <trkpt lat="49.37887" lon="3.34523">
        <ele>46</ele>
        <time>2021-08-12T06:41:03.000Z</time>
      </trkpt>
      <trkpt lat="49.37889" lon="3.34559">
        <ele>48.200000762939</ele>
        <time>2021-08-12T06:41:09.000Z</time>
      </trkpt>
      <trkpt lat="49.37889" lon="3.34584">
        <ele>49.599998474121</ele>
        <time>2021-08-12T06:41:13.000Z</time>
      </trkpt>
      <trkpt lat="49.37886" lon="3.34608">
        <ele>51</ele>
        <time>2021-08-12T06:41:17.000Z</time>
      </trkpt>
      <trkpt lat="49.37886" lon="3.34619">
        <ele>50.200000762939</ele>
        <time>2021-08-12T06:41:19.000Z</time>
      </trkpt>
      <trkpt lat="49.37882" lon="3.3464">
        <ele>48.400001525879</ele>
        <time>2021-08-12T06:41:23.000Z</time>
      </trkpt>
      <trkpt lat="49.37878" lon="3.34676">
        <ele>45</ele>
        <time>2021-08-12T06:41:30.000Z</time>
      </trkpt>
      <trkpt lat="49.37883" lon="3.34706">
        <ele>42.599998474121</ele>
        <time>2021-08-12T06:41:35.000Z</time>
      </trkpt>
      <trkpt lat="49.37885" lon="3.34719">
        <ele>42</ele>
        <time>2021-08-12T06:41:39.000Z</time>
      </trkpt>
      <trkpt lat="49.37886" lon="3.34737">
        <ele>41.400001525879</ele>
        <time>2021-08-12T06:41:43.000Z</time>
      </trkpt>
      <trkpt lat="49.37888" lon="3.34741">
        <ele>41.200000762939</ele>
        <time>2021-08-12T06:41:44.000Z</time>
      </trkpt>
      <trkpt lat="49.37891" lon="3.34763">
        <ele>40.799999237061</ele>
        <time>2021-08-12T06:41:49.000Z</time>
      </trkpt>
      <trkpt lat="49.37893" lon="3.34773">
        <ele>40.599998474121</ele>
        <time>2021-08-12T06:41:52.000Z</time>
      </trkpt>
      <trkpt lat="49.37895" lon="3.34776">
        <ele>40.599998474121</ele>
        <time>2021-08-12T06:41:53.000Z</time>
      </trkpt>
      <trkpt lat="49.37899" lon="3.34801">
        <ele>40.400001525879</ele>
        <time>2021-08-12T06:41:58.000Z</time>
      </trkpt>
      <trkpt lat="49.37903" lon="3.34827">
        <ele>41</ele>
        <time>2021-08-12T06:42:03.000Z</time>
      </trkpt>
      <trkpt lat="49.37902" lon="3.34831">
        <ele>41</ele>
        <time>2021-08-12T06:42:04.000Z</time>
      </trkpt>
      <trkpt lat="49.37902" lon="3.3484">
        <ele>41.400001525879</ele>
        <time>2021-08-12T06:42:06.000Z</time>
      </trkpt>
      <trkpt lat="49.37904" lon="3.34844">
        <ele>41.599998474121</ele>
        <time>2021-08-12T06:42:07.000Z</time>
      </trkpt>
      <trkpt lat="49.37911" lon="3.3487">
        <ele>42.599998474121</ele>
        <time>2021-08-12T06:42:12.000Z</time>
      </trkpt>
      <trkpt lat="49.37914" lon="3.34898">
        <ele>43.799999237061</ele>
        <time>2021-08-12T06:42:17.000Z</time>
      </trkpt>
      <trkpt lat="49.37918" lon="3.34924">
        <ele>44.799999237061</ele>
        <time>2021-08-12T06:42:22.000Z</time>
      </trkpt>
      <trkpt lat="49.37925" lon="3.34943">
        <ele>44.599998474121</ele>
        <time>2021-08-12T06:42:27.000Z</time>
      </trkpt>
      <trkpt lat="49.37932" lon="3.3497">
        <ele>45.599998474121</ele>
        <time>2021-08-12T06:42:32.000Z</time>
      </trkpt>
      <trkpt lat="49.37933" lon="3.34978">
        <ele>46.200000762939</ele>
        <time>2021-08-12T06:42:34.000Z</time>
      </trkpt>
      <trkpt lat="49.37935" lon="3.34987">
        <ele>47</ele>
        <time>2021-08-12T06:42:36.000Z</time>
      </trkpt>
      <trkpt lat="49.3794" lon="3.35018">
        <ele>51.200000762939</ele>
        <time>2021-08-12T06:42:42.000Z</time>
      </trkpt>
      <trkpt lat="49.37942" lon="3.35026">
        <ele>52.200000762939</ele>
        <time>2021-08-12T06:42:44.000Z</time>
      </trkpt>
      <trkpt lat="49.37946" lon="3.35039">
        <ele>54</ele>
        <time>2021-08-12T06:42:47.000Z</time>
      </trkpt>
      <trkpt lat="49.37956" lon="3.35064">
        <ele>54.400001525879</ele>
        <time>2021-08-12T06:42:52.000Z</time>
      </trkpt>
      <trkpt lat="49.37978" lon="3.35088">
        <ele>49.799999237061</ele>
        <time>2021-08-12T06:42:58.000Z</time>
      </trkpt>
      <trkpt lat="49.37995" lon="3.351">
        <ele>45.799999237061</ele>
        <time>2021-08-12T06:43:02.000Z</time>
      </trkpt>
      <trkpt lat="49.38008" lon="3.35107">
        <ele>45</ele>
        <time>2021-08-12T06:43:05.000Z</time>
      </trkpt>
      <trkpt lat="49.38021" lon="3.35115">
        <ele>44.799999237061</ele>
        <time>2021-08-12T06:43:08.000Z</time>
      </trkpt>
      <trkpt lat="49.38031" lon="3.35119">
        <ele>45.200000762939</ele>
        <time>2021-08-12T06:43:10.000Z</time>
      </trkpt>
      <trkpt lat="49.38049" lon="3.35126">
        <ele>46.599998474121</ele>
        <time>2021-08-12T06:43:14.000Z</time>
      </trkpt>
      <trkpt lat="49.38071" lon="3.35134">
        <ele>46.200000762939</ele>
        <time>2021-08-12T06:43:20.000Z</time>
      </trkpt>
      <trkpt lat="49.38081" lon="3.35141">
        <ele>45.799999237061</ele>
        <time>2021-08-12T06:43:23.000Z</time>
      </trkpt>
      <trkpt lat="49.38099" lon="3.35152">
        <ele>44.599998474121</ele>
        <time>2021-08-12T06:43:28.000Z</time>
      </trkpt>
      <trkpt lat="49.38114" lon="3.35157">
        <ele>44</ele>
        <time>2021-08-12T06:43:33.000Z</time>
      </trkpt>
      <trkpt lat="49.38133" lon="3.3517">
        <ele>44.200000762939</ele>
        <time>2021-08-12T06:43:39.000Z</time>
      </trkpt>
      <trkpt lat="49.38151" lon="3.35181">
        <ele>45.200000762939</ele>
        <time>2021-08-12T06:43:43.000Z</time>
      </trkpt>
      <trkpt lat="49.38156" lon="3.35184">
        <ele>45.599998474121</ele>
        <time>2021-08-12T06:43:44.000Z</time>
      </trkpt>
      <trkpt lat="49.38185" lon="3.35201">
        <ele>46.799999237061</ele>
        <time>2021-08-12T06:43:49.000Z</time>
      </trkpt>
      <trkpt lat="49.3819" lon="3.35204">
        <ele>47</ele>
        <time>2021-08-12T06:43:50.000Z</time>
      </trkpt>
      <trkpt lat="49.38211" lon="3.35215">
        <ele>46.200000762939</ele>
        <time>2021-08-12T06:43:55.000Z</time>
      </trkpt>
      <trkpt lat="49.38222" lon="3.3522">
        <ele>46</ele>
        <time>2021-08-12T06:43:59.000Z</time>
      </trkpt>
      <trkpt lat="49.38233" lon="3.35222">
        <ele>45.599998474121</ele>
        <time>2021-08-12T06:44:03.000Z</time>
      </trkpt>
      <trkpt lat="49.38235" lon="3.35221">
        <ele>45.400001525879</ele>
        <time>2021-08-12T06:44:04.000Z</time>
      </trkpt>
      <trkpt lat="49.38247" lon="3.35224">
        <ele>45</ele>
        <time>2021-08-12T06:44:08.000Z</time>
      </trkpt>
      <trkpt lat="49.38255" lon="3.35227">
        <ele>45.200000762939</ele>
        <time>2021-08-12T06:44:10.000Z</time>
      </trkpt>
      <trkpt lat="49.38266" lon="3.35231">
        <ele>45.200000762939</ele>
        <time>2021-08-12T06:44:13.000Z</time>
      </trkpt>
      <trkpt lat="49.3829" lon="3.35246">
        <ele>44.400001525879</ele>
        <time>2021-08-12T06:44:19.000Z</time>
      </trkpt>
      <trkpt lat="49.38303" lon="3.35261">
        <ele>44.599998474121</ele>
        <time>2021-08-12T06:44:23.000Z</time>
      </trkpt>
      <trkpt lat="49.38321" lon="3.35283">
        <ele>47</ele>
        <time>2021-08-12T06:44:29.000Z</time>
      </trkpt>
      <trkpt lat="49.3834" lon="3.35306">
        <ele>48.400001525879</ele>
        <time>2021-08-12T06:44:34.000Z</time>
      </trkpt>
      <trkpt lat="49.38346" lon="3.35312">
        <ele>48.200000762939</ele>
        <time>2021-08-12T06:44:35.000Z</time>
      </trkpt>
      <trkpt lat="49.38355" lon="3.35323">
        <ele>48</ele>
        <time>2021-08-12T06:44:37.000Z</time>
      </trkpt>
      <trkpt lat="49.38358" lon="3.35328">
        <ele>47.799999237061</ele>
        <time>2021-08-12T06:44:38.000Z</time>
      </trkpt>
      <trkpt lat="49.38375" lon="3.35362">
        <ele>46.400001525879</ele>
        <time>2021-08-12T06:44:44.000Z</time>
      </trkpt>
      <trkpt lat="49.38381" lon="3.35379">
        <ele>46.400001525879</ele>
        <time>2021-08-12T06:44:47.000Z</time>
      </trkpt>
      <trkpt lat="49.38385" lon="3.35392">
        <ele>46.200000762939</ele>
        <time>2021-08-12T06:44:49.000Z</time>
      </trkpt>
      <trkpt lat="49.38389" lon="3.35404">
        <ele>45.599998474121</ele>
        <time>2021-08-12T06:44:51.000Z</time>
      </trkpt>
      <trkpt lat="49.38399" lon="3.35436">
        <ele>43.200000762939</ele>
        <time>2021-08-12T06:44:57.000Z</time>
      </trkpt>
      <trkpt lat="49.38397" lon="3.35459">
        <ele>42.200000762939</ele>
        <time>2021-08-12T06:45:01.000Z</time>
      </trkpt>
      <trkpt lat="49.38392" lon="3.35466">
        <ele>41.799999237061</ele>
        <time>2021-08-12T06:45:03.000Z</time>
      </trkpt>
      <trkpt lat="49.38389" lon="3.35467">
        <ele>42</ele>
        <time>2021-08-12T06:45:04.000Z</time>
      </trkpt>
      <trkpt lat="49.38364" lon="3.35472">
        <ele>44</ele>
        <time>2021-08-12T06:45:11.000Z</time>
      </trkpt>
      <trkpt lat="49.38348" lon="3.3548">
        <ele>43.400001525879</ele>
        <time>2021-08-12T06:45:15.000Z</time>
      </trkpt>
      <trkpt lat="49.38344" lon="3.3548">
        <ele>43.200000762939</ele>
        <time>2021-08-12T06:45:16.000Z</time>
      </trkpt>
      <trkpt lat="49.38326" lon="3.35479">
        <ele>43.200000762939</ele>
        <time>2021-08-12T06:45:20.000Z</time>
      </trkpt>
      <trkpt lat="49.38291" lon="3.35477">
        <ele>42.400001525879</ele>
        <time>2021-08-12T06:45:28.000Z</time>
      </trkpt>
      <trkpt lat="49.38264" lon="3.35484">
        <ele>42.599998474121</ele>
        <time>2021-08-12T06:45:34.000Z</time>
      </trkpt>
      <trkpt lat="49.38255" lon="3.35488">
        <ele>42.599998474121</ele>
        <time>2021-08-12T06:45:36.000Z</time>
      </trkpt>
      <trkpt lat="49.38239" lon="3.355">
        <ele>42.400001525879</ele>
        <time>2021-08-12T06:45:40.000Z</time>
      </trkpt>
      <trkpt lat="49.38215" lon="3.35518">
        <ele>42.599998474121</ele>
        <time>2021-08-12T06:45:46.000Z</time>
      </trkpt>
      <trkpt lat="49.38192" lon="3.35529">
        <ele>43.799999237061</ele>
        <time>2021-08-12T06:45:52.000Z</time>
      </trkpt>
      <trkpt lat="49.38164" lon="3.3554">
        <ele>45</ele>
        <time>2021-08-12T06:45:59.000Z</time>
      </trkpt>
      <trkpt lat="49.38154" lon="3.35547">
        <ele>45.599998474121</ele>
        <time>2021-08-12T06:46:02.000Z</time>
      </trkpt>
      <trkpt lat="49.38153" lon="3.35553">
        <ele>45.799999237061</ele>
        <time>2021-08-12T06:46:03.000Z</time>
      </trkpt>
      <trkpt lat="49.38152" lon="3.3556">
        <ele>45.799999237061</ele>
        <time>2021-08-12T06:46:04.000Z</time>
      </trkpt>
      <trkpt lat="49.38156" lon="3.35571">
        <ele>45.599998474121</ele>
        <time>2021-08-12T06:46:06.000Z</time>
      </trkpt>
      <trkpt lat="49.38163" lon="3.35591">
        <ele>45</ele>
        <time>2021-08-12T06:46:11.000Z</time>
      </trkpt>
      <trkpt lat="49.38169" lon="3.35607">
        <ele>44.799999237061</ele>
        <time>2021-08-12T06:46:16.000Z</time>
      </trkpt>
      <trkpt lat="49.38178" lon="3.35641">
        <ele>44.400001525879</ele>
        <time>2021-08-12T06:46:23.000Z</time>
      </trkpt>
      <trkpt lat="49.3819" lon="3.35685">
        <ele>44</ele>
        <time>2021-08-12T06:46:31.000Z</time>
      </trkpt>
      <trkpt lat="49.38197" lon="3.35709">
        <ele>43.799999237061</ele>
        <time>2021-08-12T06:46:35.000Z</time>
      </trkpt>
      <trkpt lat="49.38198" lon="3.35722">
        <ele>43.799999237061</ele>
        <time>2021-08-12T06:46:37.000Z</time>
      </trkpt>
      <trkpt lat="49.38198" lon="3.35729">
        <ele>43.799999237061</ele>
        <time>2021-08-12T06:46:38.000Z</time>
      </trkpt>
      <trkpt lat="49.38205" lon="3.35785">
        <ele>43.599998474121</ele>
        <time>2021-08-12T06:46:46.000Z</time>
      </trkpt>
      <trkpt lat="49.38211" lon="3.3583">
        <ele>43</ele>
        <time>2021-08-12T06:46:53.000Z</time>
      </trkpt>
      <trkpt lat="49.38212" lon="3.35864">
        <ele>43</ele>
        <time>2021-08-12T06:46:59.000Z</time>
      </trkpt>
      <trkpt lat="49.38216" lon="3.3589">
        <ele>43</ele>
        <time>2021-08-12T06:47:03.000Z</time>
      </trkpt>
      <trkpt lat="49.38219" lon="3.35911">
        <ele>43</ele>
        <time>2021-08-12T06:47:06.000Z</time>
      </trkpt>
      <trkpt lat="49.38226" lon="3.35967">
        <ele>44</ele>
        <time>2021-08-12T06:47:14.000Z</time>
      </trkpt>
      <trkpt lat="49.38233" lon="3.36021">
        <ele>43.200000762939</ele>
        <time>2021-08-12T06:47:22.000Z</time>
      </trkpt>
      <trkpt lat="49.38236" lon="3.36068">
        <ele>43</ele>
        <time>2021-08-12T06:47:29.000Z</time>
      </trkpt>
      <trkpt lat="49.38238" lon="3.36082">
        <ele>42.599998474121</ele>
        <time>2021-08-12T06:47:31.000Z</time>
      </trkpt>
      <trkpt lat="49.3824" lon="3.36109">
        <ele>42.799999237061</ele>
        <time>2021-08-12T06:47:35.000Z</time>
      </trkpt>
      <trkpt lat="49.38243" lon="3.3613">
        <ele>43.599998474121</ele>
        <time>2021-08-12T06:47:38.000Z</time>
      </trkpt>
      <trkpt lat="49.38244" lon="3.36179">
        <ele>42.400001525879</ele>
        <time>2021-08-12T06:47:45.000Z</time>
      </trkpt>
      <trkpt lat="49.38247" lon="3.3623">
        <ele>41</ele>
        <time>2021-08-12T06:47:52.000Z</time>
      </trkpt>
      <trkpt lat="49.38247" lon="3.36292">
        <ele>40</ele>
        <time>2021-08-12T06:48:00.000Z</time>
      </trkpt>
      <trkpt lat="49.38247" lon="3.363">
        <ele>40</ele>
        <time>2021-08-12T06:48:01.000Z</time>
      </trkpt>
      <trkpt lat="49.38242" lon="3.36337">
        <ele>40.599998474121</ele>
        <time>2021-08-12T06:48:06.000Z</time>
      </trkpt>
      <trkpt lat="49.38232" lon="3.36397">
        <ele>41</ele>
        <time>2021-08-12T06:48:14.000Z</time>
      </trkpt>
      <trkpt lat="49.3823" lon="3.36456">
        <ele>42</ele>
        <time>2021-08-12T06:48:22.000Z</time>
      </trkpt>
      <trkpt lat="49.38229" lon="3.36463">
        <ele>42</ele>
        <time>2021-08-12T06:48:23.000Z</time>
      </trkpt>
      <trkpt lat="49.38225" lon="3.36476">
        <ele>42</ele>
        <time>2021-08-12T06:48:25.000Z</time>
      </trkpt>
      <trkpt lat="49.38216" lon="3.36481">
        <ele>42.200000762939</ele>
        <time>2021-08-12T06:48:27.000Z</time>
      </trkpt>
      <trkpt lat="49.38207" lon="3.36483">
        <ele>42.400001525879</ele>
        <time>2021-08-12T06:48:29.000Z</time>
      </trkpt>
      <trkpt lat="49.38197" lon="3.36483">
        <ele>42.799999237061</ele>
        <time>2021-08-12T06:48:31.000Z</time>
      </trkpt>
      <trkpt lat="49.38181" lon="3.36479">
        <ele>43.400001525879</ele>
        <time>2021-08-12T06:48:34.000Z</time>
      </trkpt>
      <trkpt lat="49.3814" lon="3.36466">
        <ele>44</ele>
        <time>2021-08-12T06:48:42.000Z</time>
      </trkpt>
      <trkpt lat="49.381" lon="3.36456">
        <ele>44.200000762939</ele>
        <time>2021-08-12T06:48:50.000Z</time>
      </trkpt>
      <trkpt lat="49.38061" lon="3.36446">
        <ele>43.200000762939</ele>
        <time>2021-08-12T06:48:58.000Z</time>
      </trkpt>
      <trkpt lat="49.38028" lon="3.36436">
        <ele>43</ele>
        <time>2021-08-12T06:49:05.000Z</time>
      </trkpt>
      <trkpt lat="49.3802" lon="3.36434">
        <ele>43.200000762939</ele>
        <time>2021-08-12T06:49:07.000Z</time>
      </trkpt>
      <trkpt lat="49.38012" lon="3.36441">
        <ele>43.400001525879</ele>
        <time>2021-08-12T06:49:09.000Z</time>
      </trkpt>
      <trkpt lat="49.38009" lon="3.36454">
        <ele>44</ele>
        <time>2021-08-12T06:49:11.000Z</time>
      </trkpt>
      <trkpt lat="49.38009" lon="3.36461">
        <ele>44</ele>
        <time>2021-08-12T06:49:12.000Z</time>
      </trkpt>
      <trkpt lat="49.38007" lon="3.36528">
        <ele>45</ele>
        <time>2021-08-12T06:49:21.000Z</time>
      </trkpt>
      <trkpt lat="49.38002" lon="3.36595">
        <ele>43.400001525879</ele>
        <time>2021-08-12T06:49:30.000Z</time>
      </trkpt>
      <trkpt lat="49.37995" lon="3.36664">
        <ele>43</ele>
        <time>2021-08-12T06:49:39.000Z</time>
      </trkpt>
      <trkpt lat="49.3799" lon="3.36725">
        <ele>42.799999237061</ele>
        <time>2021-08-12T06:49:47.000Z</time>
      </trkpt>
      <trkpt lat="49.37989" lon="3.3674">
        <ele>42.200000762939</ele>
        <time>2021-08-12T06:49:49.000Z</time>
      </trkpt>
      <trkpt lat="49.37988" lon="3.36777">
        <ele>41.799999237061</ele>
        <time>2021-08-12T06:49:54.000Z</time>
      </trkpt>
      <trkpt lat="49.37986" lon="3.36831">
        <ele>42</ele>
        <time>2021-08-12T06:50:01.000Z</time>
      </trkpt>
      <trkpt lat="49.37982" lon="3.36902">
        <ele>43.599998474121</ele>
        <time>2021-08-12T06:50:10.000Z</time>
      </trkpt>
      <trkpt lat="49.37981" lon="3.36918">
        <ele>43.599998474121</ele>
        <time>2021-08-12T06:50:12.000Z</time>
      </trkpt>
      <trkpt lat="49.37978" lon="3.36948">
        <ele>44</ele>
        <time>2021-08-12T06:50:16.000Z</time>
      </trkpt>
      <trkpt lat="49.37975" lon="3.36964">
        <ele>44</ele>
        <time>2021-08-12T06:50:18.000Z</time>
      </trkpt>
      <trkpt lat="49.37968" lon="3.36986">
        <ele>44</ele>
        <time>2021-08-12T06:50:21.000Z</time>
      </trkpt>
      <trkpt lat="49.37949" lon="3.37042">
        <ele>43.200000762939</ele>
        <time>2021-08-12T06:50:29.000Z</time>
      </trkpt>
      <trkpt lat="49.37932" lon="3.37087">
        <ele>42.599998474121</ele>
        <time>2021-08-12T06:50:36.000Z</time>
      </trkpt>
      <trkpt lat="49.37918" lon="3.3713">
        <ele>43.200000762939</ele>
        <time>2021-08-12T06:50:43.000Z</time>
      </trkpt>
      <trkpt lat="49.37911" lon="3.37149">
        <ele>43.400001525879</ele>
        <time>2021-08-12T06:50:46.000Z</time>
      </trkpt>
      <trkpt lat="49.379" lon="3.37181">
        <ele>43.599998474121</ele>
        <time>2021-08-12T06:50:51.000Z</time>
      </trkpt>
      <trkpt lat="49.37893" lon="3.37201">
        <ele>43.599998474121</ele>
        <time>2021-08-12T06:50:54.000Z</time>
      </trkpt>
      <trkpt lat="49.37886" lon="3.37213">
        <ele>43.200000762939</ele>
        <time>2021-08-12T06:50:56.000Z</time>
      </trkpt>
      <trkpt lat="49.37882" lon="3.37218">
        <ele>43</ele>
        <time>2021-08-12T06:50:57.000Z</time>
      </trkpt>
      <trkpt lat="49.37857" lon="3.37243">
        <ele>43</ele>
        <time>2021-08-12T06:51:03.000Z</time>
      </trkpt>
      <trkpt lat="49.37834" lon="3.37272">
        <ele>42.799999237061</ele>
        <time>2021-08-12T06:51:09.000Z</time>
      </trkpt>
      <trkpt lat="49.37799" lon="3.37304">
        <ele>43</ele>
        <time>2021-08-12T06:51:17.000Z</time>
      </trkpt>
      <trkpt lat="49.37762" lon="3.37334">
        <ele>43.400001525879</ele>
        <time>2021-08-12T06:51:25.000Z</time>
      </trkpt>
      <trkpt lat="49.37723" lon="3.37362">
        <ele>42.799999237061</ele>
        <time>2021-08-12T06:51:33.000Z</time>
      </trkpt>
      <trkpt lat="49.37677" lon="3.37391">
        <ele>42.799999237061</ele>
        <time>2021-08-12T06:51:42.000Z</time>
      </trkpt>
      <trkpt lat="49.37629" lon="3.37416">
        <ele>42.799999237061</ele>
        <time>2021-08-12T06:51:51.000Z</time>
      </trkpt>
      <trkpt lat="49.37603" lon="3.37429">
        <ele>43</ele>
        <time>2021-08-12T06:51:56.000Z</time>
      </trkpt>
      <trkpt lat="49.37598" lon="3.3743">
        <ele>43</ele>
        <time>2021-08-12T06:51:57.000Z</time>
      </trkpt>
      <trkpt lat="49.37589" lon="3.37422">
        <ele>43</ele>
        <time>2021-08-12T06:51:59.000Z</time>
      </trkpt>
      <trkpt lat="49.37586" lon="3.37408">
        <ele>43</ele>
        <time>2021-08-12T06:52:01.000Z</time>
      </trkpt>
      <trkpt lat="49.37584" lon="3.37393">
        <ele>43</ele>
        <time>2021-08-12T06:52:03.000Z</time>
      </trkpt>
      <trkpt lat="49.37578" lon="3.37346">
        <ele>44.400001525879</ele>
        <time>2021-08-12T06:52:10.000Z</time>
      </trkpt>
      <trkpt lat="49.37577" lon="3.3734">
        <ele>44.599998474121</ele>
        <time>2021-08-12T06:52:11.000Z</time>
      </trkpt>
      <trkpt lat="49.37572" lon="3.37294">
        <ele>44.799999237061</ele>
        <time>2021-08-12T06:52:18.000Z</time>
      </trkpt>
      <trkpt lat="49.37564" lon="3.37227">
        <ele>44</ele>
        <time>2021-08-12T06:52:27.000Z</time>
      </trkpt>
      <trkpt lat="49.3756" lon="3.37181">
        <ele>44.400001525879</ele>
        <time>2021-08-12T06:52:34.000Z</time>
      </trkpt>
      <trkpt lat="49.37558" lon="3.37175">
        <ele>44.599998474121</ele>
        <time>2021-08-12T06:52:35.000Z</time>
      </trkpt>
      <trkpt lat="49.37556" lon="3.37169">
        <ele>44.799999237061</ele>
        <time>2021-08-12T06:52:36.000Z</time>
      </trkpt>
      <trkpt lat="49.37543" lon="3.37135">
        <ele>46.599998474121</ele>
        <time>2021-08-12T06:52:42.000Z</time>
      </trkpt>
      <trkpt lat="49.3753" lon="3.371">
        <ele>48.400001525879</ele>
        <time>2021-08-12T06:52:48.000Z</time>
      </trkpt>
      <trkpt lat="49.37527" lon="3.37087">
        <ele>48.799999237061</ele>
        <time>2021-08-12T06:52:50.000Z</time>
      </trkpt>
      <trkpt lat="49.37516" lon="3.37044">
        <ele>49.599998474121</ele>
        <time>2021-08-12T06:52:57.000Z</time>
      </trkpt>
      <trkpt lat="49.37499" lon="3.36989">
        <ele>49</ele>
        <time>2021-08-12T06:53:06.000Z</time>
      </trkpt>
      <trkpt lat="49.37484" lon="3.36939">
        <ele>49</ele>
        <time>2021-08-12T06:53:14.000Z</time>
      </trkpt>
      <trkpt lat="49.37472" lon="3.36898">
        <ele>48.599998474121</ele>
        <time>2021-08-12T06:53:21.000Z</time>
      </trkpt>
      <trkpt lat="49.3747" lon="3.36892">
        <ele>48.200000762939</ele>
        <time>2021-08-12T06:53:22.000Z</time>
      </trkpt>
      <trkpt lat="49.37456" lon="3.36859">
        <ele>47.599998474121</ele>
        <time>2021-08-12T06:53:28.000Z</time>
      </trkpt>
      <trkpt lat="49.37431" lon="3.3681">
        <ele>47.400001525879</ele>
        <time>2021-08-12T06:53:37.000Z</time>
      </trkpt>
      <trkpt lat="49.37402" lon="3.36759">
        <ele>48.200000762939</ele>
        <time>2021-08-12T06:53:47.000Z</time>
      </trkpt>
      <trkpt lat="49.37381" lon="3.36729">
        <ele>48.599998474121</ele>
        <time>2021-08-12T06:53:53.000Z</time>
      </trkpt>
      <trkpt lat="49.3736" lon="3.36701">
        <ele>49.599998474121</ele>
        <time>2021-08-12T06:53:59.000Z</time>
      </trkpt>
      <trkpt lat="49.37357" lon="3.36696">
        <ele>49.799999237061</ele>
        <time>2021-08-12T06:54:00.000Z</time>
      </trkpt>
      <trkpt lat="49.37323" lon="3.36658">
        <ele>50</ele>
        <time>2021-08-12T06:54:09.000Z</time>
      </trkpt>
      <trkpt lat="49.37288" lon="3.36623">
        <ele>50</ele>
        <time>2021-08-12T06:54:18.000Z</time>
      </trkpt>
      <trkpt lat="49.37252" lon="3.36594">
        <ele>50.799999237061</ele>
        <time>2021-08-12T06:54:27.000Z</time>
      </trkpt>
      <trkpt lat="49.37226" lon="3.36574">
        <ele>51</ele>
        <time>2021-08-12T06:54:34.000Z</time>
      </trkpt>
      <trkpt lat="49.37197" lon="3.36555">
        <ele>51.799999237061</ele>
        <time>2021-08-12T06:54:41.000Z</time>
      </trkpt>
      <trkpt lat="49.37155" lon="3.36533">
        <ele>52</ele>
        <time>2021-08-12T06:54:50.000Z</time>
      </trkpt>
      <trkpt lat="49.37117" lon="3.3651">
        <ele>52</ele>
        <time>2021-08-12T06:54:59.000Z</time>
      </trkpt>
      <trkpt lat="49.37078" lon="3.36489">
        <ele>52</ele>
        <time>2021-08-12T06:55:08.000Z</time>
      </trkpt>
      <trkpt lat="49.37056" lon="3.36477">
        <ele>52.200000762939</ele>
        <time>2021-08-12T06:55:14.000Z</time>
      </trkpt>
      <trkpt lat="49.37037" lon="3.36466">
        <ele>52</ele>
        <time>2021-08-12T06:55:20.000Z</time>
      </trkpt>
      <trkpt lat="49.37034" lon="3.36462">
        <ele>52</ele>
        <time>2021-08-12T06:55:21.000Z</time>
      </trkpt>
      <trkpt lat="49.37017" lon="3.36451">
        <ele>52.200000762939</ele>
        <time>2021-08-12T06:55:26.000Z</time>
      </trkpt>
      <trkpt lat="49.36987" lon="3.36436">
        <ele>53.400001525879</ele>
        <time>2021-08-12T06:55:34.000Z</time>
      </trkpt>
      <trkpt lat="49.36965" lon="3.36425">
        <ele>54.200000762939</ele>
        <time>2021-08-12T06:55:40.000Z</time>
      </trkpt>
      <trkpt lat="49.36941" lon="3.36412">
        <ele>55</ele>
        <time>2021-08-12T06:55:47.000Z</time>
      </trkpt>
      <trkpt lat="49.36919" lon="3.364">
        <ele>56</ele>
        <time>2021-08-12T06:55:54.000Z</time>
      </trkpt>
      <trkpt lat="49.36891" lon="3.36382">
        <ele>57.400001525879</ele>
        <time>2021-08-12T06:56:03.000Z</time>
      </trkpt>
      <trkpt lat="49.36878" lon="3.36367">
        <ele>57.799999237061</ele>
        <time>2021-08-12T06:56:08.000Z</time>
      </trkpt>
      <trkpt lat="49.36876" lon="3.36357">
        <ele>57.599998474121</ele>
        <time>2021-08-12T06:56:10.000Z</time>
      </trkpt>
      <trkpt lat="49.36874" lon="3.36349">
        <ele>57.799999237061</ele>
        <time>2021-08-12T06:56:12.000Z</time>
      </trkpt>
      <trkpt lat="49.3687" lon="3.36345">
        <ele>58.200000762939</ele>
        <time>2021-08-12T06:56:14.000Z</time>
      </trkpt>
      <trkpt lat="49.36865" lon="3.36342">
        <ele>58.400001525879</ele>
        <time>2021-08-12T06:56:18.000Z</time>
      </trkpt>
      <trkpt lat="49.36858" lon="3.36337">
        <ele>59</ele>
        <time>2021-08-12T06:56:25.000Z</time>
      </trkpt>
      <trkpt lat="49.36854" lon="3.36333">
        <ele>59.200000762939</ele>
        <time>2021-08-12T06:56:30.000Z</time>
      </trkpt>
      <trkpt lat="49.36854" lon="3.36329">
        <ele>59.200000762939</ele>
        <time>2021-08-12T06:56:32.000Z</time>
      </trkpt>
      <trkpt lat="49.36854" lon="3.36323">
        <ele>59.200000762939</ele>
        <time>2021-08-12T06:56:34.000Z</time>
      </trkpt>
      <trkpt lat="49.36851" lon="3.36319">
        <ele>59.400001525879</ele>
        <time>2021-08-12T06:56:36.000Z</time>
      </trkpt>
      <trkpt lat="49.36849" lon="3.3632">
        <ele>59.599998474121</ele>
        <time>2021-08-12T06:56:37.000Z</time>
      </trkpt>
      <trkpt lat="49.36846" lon="3.36327">
        <ele>59.799999237061</ele>
        <time>2021-08-12T06:56:39.000Z</time>
      </trkpt>
      <trkpt lat="49.36835" lon="3.36347">
        <ele>60.599998474121</ele>
        <time>2021-08-12T06:56:44.000Z</time>
      </trkpt>
      <trkpt lat="49.36828" lon="3.36348">
        <ele>61.200000762939</ele>
        <time>2021-08-12T06:56:46.000Z</time>
      </trkpt>
      <trkpt lat="49.36824" lon="3.36345">
        <ele>61.599998474121</ele>
        <time>2021-08-12T06:56:47.000Z</time>
      </trkpt>
      <trkpt lat="49.36821" lon="3.36341">
        <ele>62</ele>
        <time>2021-08-12T06:56:48.000Z</time>
      </trkpt>
      <trkpt lat="49.3681" lon="3.36328">
        <ele>63</ele>
        <time>2021-08-12T06:56:52.000Z</time>
      </trkpt>
      <trkpt lat="49.36793" lon="3.3631">
        <ele>64.400001525879</ele>
        <time>2021-08-12T06:56:58.000Z</time>
      </trkpt>
      <trkpt lat="49.36781" lon="3.36297">
        <ele>64.400001525879</ele>
        <time>2021-08-12T06:57:03.000Z</time>
      </trkpt>
      <trkpt lat="49.36779" lon="3.36293">
        <ele>64.199996948242</ele>
        <time>2021-08-12T06:57:06.000Z</time>
      </trkpt>
      <trkpt lat="49.36772" lon="3.36288">
        <ele>64.199996948242</ele>
        <time>2021-08-12T06:57:51.000Z</time>
      </trkpt>
      <trkpt lat="49.36761" lon="3.36275">
        <ele>63.599998474121</ele>
        <time>2021-08-12T06:57:55.000Z</time>
      </trkpt>
      <trkpt lat="49.36744" lon="3.36258">
        <ele>63.200000762939</ele>
        <time>2021-08-12T06:58:00.000Z</time>
      </trkpt>
      <trkpt lat="49.36721" lon="3.36232">
        <ele>63.799999237061</ele>
        <time>2021-08-12T06:58:08.000Z</time>
      </trkpt>
      <trkpt lat="49.36706" lon="3.36217">
        <ele>64.199996948242</ele>
        <time>2021-08-12T06:58:13.000Z</time>
      </trkpt>
      <trkpt lat="49.36691" lon="3.36199">
        <ele>64.599998474121</ele>
        <time>2021-08-12T06:58:19.000Z</time>
      </trkpt>
      <trkpt lat="49.36678" lon="3.36185">
        <ele>65.599998474121</ele>
        <time>2021-08-12T06:58:24.000Z</time>
      </trkpt>
      <trkpt lat="49.36665" lon="3.3617">
        <ele>67</ele>
        <time>2021-08-12T06:58:29.000Z</time>
      </trkpt>
      <trkpt lat="49.36649" lon="3.36152">
        <ele>69</ele>
        <time>2021-08-12T06:58:35.000Z</time>
      </trkpt>
      <trkpt lat="49.36629" lon="3.36131">
        <ele>71.400001525879</ele>
        <time>2021-08-12T06:58:42.000Z</time>
      </trkpt>
      <trkpt lat="49.36615" lon="3.36117">
        <ele>72</ele>
        <time>2021-08-12T06:58:47.000Z</time>
      </trkpt>
      <trkpt lat="49.36601" lon="3.36104">
        <ele>72.800003051758</ele>
        <time>2021-08-12T06:58:52.000Z</time>
      </trkpt>
      <trkpt lat="49.36579" lon="3.36084">
        <ele>75</ele>
        <time>2021-08-12T06:58:59.000Z</time>
      </trkpt>
      <trkpt lat="49.36564" lon="3.36072">
        <ele>79.199996948242</ele>
        <time>2021-08-12T06:59:05.000Z</time>
      </trkpt>
      <trkpt lat="49.36562" lon="3.36072">
        <ele>79.599998474121</ele>
        <time>2021-08-12T06:59:06.000Z</time>
      </trkpt>
      <trkpt lat="49.36545" lon="3.36084">
        <ele>81.400001525879</ele>
        <time>2021-08-12T06:59:11.000Z</time>
      </trkpt>
      <trkpt lat="49.36532" lon="3.36102">
        <ele>79.599998474121</ele>
        <time>2021-08-12T06:59:15.000Z</time>
      </trkpt>
      <trkpt lat="49.36509" lon="3.36134">
        <ele>77.400001525879</ele>
        <time>2021-08-12T06:59:21.000Z</time>
      </trkpt>
      <trkpt lat="49.36505" lon="3.36138">
        <ele>77.400001525879</ele>
        <time>2021-08-12T06:59:22.000Z</time>
      </trkpt>
      <trkpt lat="49.36494" lon="3.36151">
        <ele>77</ele>
        <time>2021-08-12T06:59:25.000Z</time>
      </trkpt>
      <trkpt lat="49.36491" lon="3.36156">
        <ele>76.599998474121</ele>
        <time>2021-08-12T06:59:26.000Z</time>
      </trkpt>
      <trkpt lat="49.36477" lon="3.36178">
        <ele>77.199996948242</ele>
        <time>2021-08-12T06:59:31.000Z</time>
      </trkpt>
      <trkpt lat="49.36463" lon="3.36199">
        <ele>78.599998474121</ele>
        <time>2021-08-12T06:59:36.000Z</time>
      </trkpt>
      <trkpt lat="49.36447" lon="3.36225">
        <ele>81</ele>
        <time>2021-08-12T06:59:42.000Z</time>
      </trkpt>
      <trkpt lat="49.36436" lon="3.36243">
        <ele>83</ele>
        <time>2021-08-12T06:59:46.000Z</time>
      </trkpt>
      <trkpt lat="49.36427" lon="3.36265">
        <ele>84.199996948242</ele>
        <time>2021-08-12T06:59:51.000Z</time>
      </trkpt>
      <trkpt lat="49.36423" lon="3.36288">
        <ele>85.199996948242</ele>
        <time>2021-08-12T06:59:56.000Z</time>
      </trkpt>
      <trkpt lat="49.36414" lon="3.36316">
        <ele>86</ele>
        <time>2021-08-12T07:00:01.000Z</time>
      </trkpt>
      <trkpt lat="49.36413" lon="3.36349">
        <ele>85.400001525879</ele>
        <time>2021-08-12T07:00:06.000Z</time>
      </trkpt>
      <trkpt lat="49.36409" lon="3.36372">
        <ele>84.400001525879</ele>
        <time>2021-08-12T07:00:10.000Z</time>
      </trkpt>
      <trkpt lat="49.36395" lon="3.36398">
        <ele>83.599998474121</ele>
        <time>2021-08-12T07:00:16.000Z</time>
      </trkpt>
      <trkpt lat="49.36384" lon="3.36421">
        <ele>84.800003051758</ele>
        <time>2021-08-12T07:00:22.000Z</time>
      </trkpt>
      <trkpt lat="49.36384" lon="3.36439">
        <ele>86.199996948242</ele>
        <time>2021-08-12T07:00:26.000Z</time>
      </trkpt>
      <trkpt lat="49.36385" lon="3.36462">
        <ele>86.800003051758</ele>
        <time>2021-08-12T07:00:31.000Z</time>
      </trkpt>
      <trkpt lat="49.36385" lon="3.36486">
        <ele>88.199996948242</ele>
        <time>2021-08-12T07:00:36.000Z</time>
      </trkpt>
      <trkpt lat="49.36385" lon="3.36513">
        <ele>89</ele>
        <time>2021-08-12T07:00:41.000Z</time>
      </trkpt>
      <trkpt lat="49.36383" lon="3.36539">
        <ele>89.199996948242</ele>
        <time>2021-08-12T07:00:45.000Z</time>
      </trkpt>
      <trkpt lat="49.36383" lon="3.36546">
        <ele>89.199996948242</ele>
        <time>2021-08-12T07:00:46.000Z</time>
      </trkpt>
      <trkpt lat="49.36383" lon="3.36553">
        <ele>89.199996948242</ele>
        <time>2021-08-12T07:00:47.000Z</time>
      </trkpt>
      <trkpt lat="49.36382" lon="3.36574">
        <ele>89.199996948242</ele>
        <time>2021-08-12T07:00:50.000Z</time>
      </trkpt>
      <trkpt lat="49.36383" lon="3.36581">
        <ele>89</ele>
        <time>2021-08-12T07:00:51.000Z</time>
      </trkpt>
      <trkpt lat="49.36382" lon="3.36608">
        <ele>88.199996948242</ele>
        <time>2021-08-12T07:00:55.000Z</time>
      </trkpt>
      <trkpt lat="49.36379" lon="3.36638">
        <ele>87</ele>
        <time>2021-08-12T07:01:00.000Z</time>
      </trkpt>
      <trkpt lat="49.36376" lon="3.3666">
        <ele>85.800003051758</ele>
        <time>2021-08-12T07:01:04.000Z</time>
      </trkpt>
      <trkpt lat="49.36373" lon="3.36673">
        <ele>85.400001525879</ele>
        <time>2021-08-12T07:01:06.000Z</time>
      </trkpt>
      <trkpt lat="49.36374" lon="3.36682">
        <ele>85.199996948242</ele>
        <time>2021-08-12T07:01:08.000Z</time>
      </trkpt>
      <trkpt lat="49.36372" lon="3.36694">
        <ele>85.199996948242</ele>
        <time>2021-08-12T07:01:12.000Z</time>
      </trkpt>
      <trkpt lat="49.36371" lon="3.367">
        <ele>85.199996948242</ele>
        <time>2021-08-12T07:01:14.000Z</time>
      </trkpt>
      <trkpt lat="49.36371" lon="3.36706">
        <ele>85</ele>
        <time>2021-08-12T07:01:16.000Z</time>
      </trkpt>
      <trkpt lat="49.36375" lon="3.3672">
        <ele>84.400001525879</ele>
        <time>2021-08-12T07:01:19.000Z</time>
      </trkpt>
      <trkpt lat="49.36372" lon="3.36736">
        <ele>84.199996948242</ele>
        <time>2021-08-12T07:01:23.000Z</time>
      </trkpt>
      <trkpt lat="49.3637" lon="3.36746">
        <ele>84.199996948242</ele>
        <time>2021-08-12T07:01:25.000Z</time>
      </trkpt>
      <trkpt lat="49.36366" lon="3.36754">
        <ele>84.599998474121</ele>
        <time>2021-08-12T07:01:27.000Z</time>
      </trkpt>
      <trkpt lat="49.36365" lon="3.36759">
        <ele>84.599998474121</ele>
        <time>2021-08-12T07:01:28.000Z</time>
      </trkpt>
      <trkpt lat="49.36365" lon="3.36775">
        <ele>84.199996948242</ele>
        <time>2021-08-12T07:01:31.000Z</time>
      </trkpt>
      <trkpt lat="49.36356" lon="3.36798">
        <ele>84.199996948242</ele>
        <time>2021-08-12T07:01:36.000Z</time>
      </trkpt>
      <trkpt lat="49.36345" lon="3.36828">
        <ele>84</ele>
        <time>2021-08-12T07:01:43.000Z</time>
      </trkpt>
      <trkpt lat="49.36337" lon="3.36845">
        <ele>84.199996948242</ele>
        <time>2021-08-12T07:01:48.000Z</time>
      </trkpt>
      <trkpt lat="49.36335" lon="3.36848">
        <ele>84.199996948242</ele>
        <time>2021-08-12T07:01:49.000Z</time>
      </trkpt>
      <trkpt lat="49.36332" lon="3.36855">
        <ele>84</ele>
        <time>2021-08-12T07:01:51.000Z</time>
      </trkpt>
      <trkpt lat="49.36326" lon="3.36869">
        <ele>84.400001525879</ele>
        <time>2021-08-12T07:01:56.000Z</time>
      </trkpt>
      <trkpt lat="49.36323" lon="3.36883">
        <ele>84.599998474121</ele>
        <time>2021-08-12T07:02:02.000Z</time>
      </trkpt>
      <trkpt lat="49.36322" lon="3.36886">
        <ele>84.400001525879</ele>
        <time>2021-08-12T07:02:03.000Z</time>
      </trkpt>
      <trkpt lat="49.36319" lon="3.36902">
        <ele>84.199996948242</ele>
        <time>2021-08-12T07:02:07.000Z</time>
      </trkpt>
      <trkpt lat="49.36315" lon="3.36919">
        <ele>84</ele>
        <time>2021-08-12T07:02:11.000Z</time>
      </trkpt>
      <trkpt lat="49.36312" lon="3.36925">
        <ele>84.400001525879</ele>
        <time>2021-08-12T07:02:13.000Z</time>
      </trkpt>
      <trkpt lat="49.36308" lon="3.36932">
        <ele>85</ele>
        <time>2021-08-12T07:02:15.000Z</time>
      </trkpt>
      <trkpt lat="49.36305" lon="3.36948">
        <ele>85.800003051758</ele>
        <time>2021-08-12T07:02:19.000Z</time>
      </trkpt>
      <trkpt lat="49.36305" lon="3.36953">
        <ele>86.400001525879</ele>
        <time>2021-08-12T07:02:20.000Z</time>
      </trkpt>
      <trkpt lat="49.36304" lon="3.36961">
        <ele>87</ele>
        <time>2021-08-12T07:02:22.000Z</time>
      </trkpt>
      <trkpt lat="49.36304" lon="3.36969">
        <ele>87.599998474121</ele>
        <time>2021-08-12T07:02:24.000Z</time>
      </trkpt>
      <trkpt lat="49.36303" lon="3.36974">
        <ele>88.199996948242</ele>
        <time>2021-08-12T07:02:25.000Z</time>
      </trkpt>
      <trkpt lat="49.36303" lon="3.36979">
        <ele>88.800003051758</ele>
        <time>2021-08-12T07:02:26.000Z</time>
      </trkpt>
      <trkpt lat="49.36299" lon="3.36995">
        <ele>91.400001525879</ele>
        <time>2021-08-12T07:02:30.000Z</time>
      </trkpt>
      <trkpt lat="49.36297" lon="3.37011">
        <ele>93</ele>
        <time>2021-08-12T07:02:34.000Z</time>
      </trkpt>
      <trkpt lat="49.36296" lon="3.37021">
        <ele>94</ele>
        <time>2021-08-12T07:02:37.000Z</time>
      </trkpt>
      <trkpt lat="49.36296" lon="3.37029">
        <ele>94.400001525879</ele>
        <time>2021-08-12T07:02:39.000Z</time>
      </trkpt>
      <trkpt lat="49.36289" lon="3.37044">
        <ele>96.199996948242</ele>
        <time>2021-08-12T07:02:44.000Z</time>
      </trkpt>
      <trkpt lat="49.3628" lon="3.37059">
        <ele>97</ele>
        <time>2021-08-12T07:02:50.000Z</time>
      </trkpt>
      <trkpt lat="49.36275" lon="3.37065">
        <ele>97.400001525879</ele>
        <time>2021-08-12T07:02:53.000Z</time>
      </trkpt>
      <trkpt lat="49.36272" lon="3.3707">
        <ele>97.599998474121</ele>
        <time>2021-08-12T07:02:55.000Z</time>
      </trkpt>
      <trkpt lat="49.36267" lon="3.3708">
        <ele>97.800003051758</ele>
        <time>2021-08-12T07:02:59.000Z</time>
      </trkpt>
      <trkpt lat="49.36263" lon="3.37085">
        <ele>98</ele>
        <time>2021-08-12T07:03:02.000Z</time>
      </trkpt>
      <trkpt lat="49.36254" lon="3.37098">
        <ele>98.199996948242</ele>
        <time>2021-08-12T07:03:07.000Z</time>
      </trkpt>
      <trkpt lat="49.36251" lon="3.37103">
        <ele>98</ele>
        <time>2021-08-12T07:03:09.000Z</time>
      </trkpt>
      <trkpt lat="49.36247" lon="3.3711">
        <ele>97.800003051758</ele>
        <time>2021-08-12T07:03:13.000Z</time>
      </trkpt>
      <trkpt lat="49.36237" lon="3.37126">
        <ele>97</ele>
        <time>2021-08-12T07:03:19.000Z</time>
      </trkpt>
      <trkpt lat="49.36236" lon="3.37129">
        <ele>96.800003051758</ele>
        <time>2021-08-12T07:03:20.000Z</time>
      </trkpt>
      <trkpt lat="49.36229" lon="3.37142">
        <ele>96.199996948242</ele>
        <time>2021-08-12T07:03:23.000Z</time>
      </trkpt>
      <trkpt lat="49.36227" lon="3.37149">
        <ele>95.800003051758</ele>
        <time>2021-08-12T07:03:24.000Z</time>
      </trkpt>
      <trkpt lat="49.36218" lon="3.37179">
        <ele>94.400001525879</ele>
        <time>2021-08-12T07:03:28.000Z</time>
      </trkpt>
      <trkpt lat="49.36214" lon="3.37207">
        <ele>93.800003051758</ele>
        <time>2021-08-12T07:03:32.000Z</time>
      </trkpt>
      <trkpt lat="49.36215" lon="3.37226">
        <ele>93</ele>
        <time>2021-08-12T07:03:36.000Z</time>
      </trkpt>
      <trkpt lat="49.36216" lon="3.3723">
        <ele>92.800003051758</ele>
        <time>2021-08-12T07:03:37.000Z</time>
      </trkpt>
      <trkpt lat="49.36215" lon="3.37239">
        <ele>92.599998474121</ele>
        <time>2021-08-12T07:03:39.000Z</time>
      </trkpt>
      <trkpt lat="49.36215" lon="3.37243">
        <ele>92.400001525879</ele>
        <time>2021-08-12T07:03:40.000Z</time>
      </trkpt>
      <trkpt lat="49.3622" lon="3.37261">
        <ele>90.800003051758</ele>
        <time>2021-08-12T07:03:45.000Z</time>
      </trkpt>
      <trkpt lat="49.36223" lon="3.37269">
        <ele>90</ele>
        <time>2021-08-12T07:03:47.000Z</time>
      </trkpt>
      <trkpt lat="49.36223" lon="3.37274">
        <ele>89.599998474121</ele>
        <time>2021-08-12T07:03:48.000Z</time>
      </trkpt>
      <trkpt lat="49.3622" lon="3.3731">
        <ele>88.599998474121</ele>
        <time>2021-08-12T07:03:53.000Z</time>
      </trkpt>
      <trkpt lat="49.36223" lon="3.37322">
        <ele>88</ele>
        <time>2021-08-12T07:03:55.000Z</time>
      </trkpt>
      <trkpt lat="49.36227" lon="3.37326">
        <ele>87.599998474121</ele>
        <time>2021-08-12T07:03:56.000Z</time>
      </trkpt>
      <trkpt lat="49.3624" lon="3.37345">
        <ele>85.800003051758</ele>
        <time>2021-08-12T07:04:00.000Z</time>
      </trkpt>
      <trkpt lat="49.36245" lon="3.37352">
        <ele>85.199996948242</ele>
        <time>2021-08-12T07:04:02.000Z</time>
      </trkpt>
      <trkpt lat="49.36248" lon="3.3736">
        <ele>84.599998474121</ele>
        <time>2021-08-12T07:04:04.000Z</time>
      </trkpt>
      <trkpt lat="49.36252" lon="3.37376">
        <ele>83.599998474121</ele>
        <time>2021-08-12T07:04:09.000Z</time>
      </trkpt>
      <trkpt lat="49.36251" lon="3.37379">
        <ele>83.599998474121</ele>
        <time>2021-08-12T07:04:10.000Z</time>
      </trkpt>
      <trkpt lat="49.36245" lon="3.37392">
        <ele>84.199996948242</ele>
        <time>2021-08-12T07:04:15.000Z</time>
      </trkpt>
      <trkpt lat="49.36241" lon="3.37401">
        <ele>84.400001525879</ele>
        <time>2021-08-12T07:04:19.000Z</time>
      </trkpt>
      <trkpt lat="49.36236" lon="3.37415">
        <ele>84.800003051758</ele>
        <time>2021-08-12T07:04:24.000Z</time>
      </trkpt>
      <trkpt lat="49.3623" lon="3.37429">
        <ele>85.400001525879</ele>
        <time>2021-08-12T07:04:28.000Z</time>
      </trkpt>
      <trkpt lat="49.36222" lon="3.37442">
        <ele>86.599998474121</ele>
        <time>2021-08-12T07:04:32.000Z</time>
      </trkpt>
      <trkpt lat="49.3622" lon="3.37448">
        <ele>87</ele>
        <time>2021-08-12T07:04:34.000Z</time>
      </trkpt>
      <trkpt lat="49.36218" lon="3.37455">
        <ele>87.599998474121</ele>
        <time>2021-08-12T07:04:36.000Z</time>
      </trkpt>
      <trkpt lat="49.36216" lon="3.37468">
        <ele>88.199996948242</ele>
        <time>2021-08-12T07:04:40.000Z</time>
      </trkpt>
      <trkpt lat="49.36215" lon="3.3747">
        <ele>88.199996948242</ele>
        <time>2021-08-12T07:04:41.000Z</time>
      </trkpt>
      <trkpt lat="49.36215" lon="3.37473">
        <ele>88.400001525879</ele>
        <time>2021-08-12T07:04:42.000Z</time>
      </trkpt>
      <trkpt lat="49.36215" lon="3.37481">
        <ele>88.800003051758</ele>
        <time>2021-08-12T07:04:44.000Z</time>
      </trkpt>
      <trkpt lat="49.36214" lon="3.37484">
        <ele>88.800003051758</ele>
        <time>2021-08-12T07:04:45.000Z</time>
      </trkpt>
      <trkpt lat="49.36208" lon="3.37505">
        <ele>90</ele>
        <time>2021-08-12T07:04:49.000Z</time>
      </trkpt>
      <trkpt lat="49.362" lon="3.3753">
        <ele>90.199996948242</ele>
        <time>2021-08-12T07:04:54.000Z</time>
      </trkpt>
      <trkpt lat="49.36197" lon="3.37545">
        <ele>89.400001525879</ele>
        <time>2021-08-12T07:04:58.000Z</time>
      </trkpt>
      <trkpt lat="49.36197" lon="3.37547">
        <ele>89.199996948242</ele>
        <time>2021-08-12T07:04:59.000Z</time>
      </trkpt>
      <trkpt lat="49.36197" lon="3.3755">
        <ele>89</ele>
        <time>2021-08-12T07:05:00.000Z</time>
      </trkpt>
      <trkpt lat="49.36195" lon="3.37556">
        <ele>88.599998474121</ele>
        <time>2021-08-12T07:05:02.000Z</time>
      </trkpt>
      <trkpt lat="49.36193" lon="3.37561">
        <ele>88.199996948242</ele>
        <time>2021-08-12T07:05:04.000Z</time>
      </trkpt>
      <trkpt lat="49.36191" lon="3.37568">
        <ele>87.800003051758</ele>
        <time>2021-08-12T07:05:06.000Z</time>
      </trkpt>
      <trkpt lat="49.36188" lon="3.37576">
        <ele>87.400001525879</ele>
        <time>2021-08-12T07:05:08.000Z</time>
      </trkpt>
      <trkpt lat="49.36172" lon="3.37597">
        <ele>84.599998474121</ele>
        <time>2021-08-12T07:05:14.000Z</time>
      </trkpt>
      <trkpt lat="49.36158" lon="3.37619">
        <ele>82.199996948242</ele>
        <time>2021-08-12T07:05:20.000Z</time>
      </trkpt>
      <trkpt lat="49.36149" lon="3.37636">
        <ele>80.400001525879</ele>
        <time>2021-08-12T07:05:25.000Z</time>
      </trkpt>
      <trkpt lat="49.36131" lon="3.37686">
        <ele>77.599998474121</ele>
        <time>2021-08-12T07:05:33.000Z</time>
      </trkpt>
      <trkpt lat="49.36118" lon="3.37721">
        <ele>76.199996948242</ele>
        <time>2021-08-12T07:05:40.000Z</time>
      </trkpt>
      <trkpt lat="49.36111" lon="3.3775">
        <ele>75.800003051758</ele>
        <time>2021-08-12T07:05:46.000Z</time>
      </trkpt>
      <trkpt lat="49.36104" lon="3.37774">
        <ele>75.599998474121</ele>
        <time>2021-08-12T07:05:51.000Z</time>
      </trkpt>
      <trkpt lat="49.36095" lon="3.37809">
        <ele>76</ele>
        <time>2021-08-12T07:05:58.000Z</time>
      </trkpt>
      <trkpt lat="49.36085" lon="3.37851">
        <ele>74.800003051758</ele>
        <time>2021-08-12T07:06:05.000Z</time>
      </trkpt>
      <trkpt lat="49.36077" lon="3.37874">
        <ele>74.599998474121</ele>
        <time>2021-08-12T07:06:09.000Z</time>
      </trkpt>
      <trkpt lat="49.36075" lon="3.3788">
        <ele>74.599998474121</ele>
        <time>2021-08-12T07:06:10.000Z</time>
      </trkpt>
      <trkpt lat="49.36068" lon="3.37922">
        <ele>73.599998474121</ele>
        <time>2021-08-12T07:06:15.000Z</time>
      </trkpt>
      <trkpt lat="49.36058" lon="3.3799">
        <ele>70.199996948242</ele>
        <time>2021-08-12T07:06:22.000Z</time>
      </trkpt>
      <trkpt lat="49.36049" lon="3.38041">
        <ele>68.599998474121</ele>
        <time>2021-08-12T07:06:27.000Z</time>
      </trkpt>
      <trkpt lat="49.36046" lon="3.38051">
        <ele>68.199996948242</ele>
        <time>2021-08-12T07:06:28.000Z</time>
      </trkpt>
      <trkpt lat="49.36036" lon="3.38079">
        <ele>67.599998474121</ele>
        <time>2021-08-12T07:06:31.000Z</time>
      </trkpt>
      <trkpt lat="49.36031" lon="3.38087">
        <ele>67.800003051758</ele>
        <time>2021-08-12T07:06:32.000Z</time>
      </trkpt>
      <trkpt lat="49.36026" lon="3.38094">
        <ele>67.400001525879</ele>
        <time>2021-08-12T07:06:33.000Z</time>
      </trkpt>
      <trkpt lat="49.36015" lon="3.38107">
        <ele>67.400001525879</ele>
        <time>2021-08-12T07:06:35.000Z</time>
      </trkpt>
      <trkpt lat="49.36011" lon="3.38114">
        <ele>67.199996948242</ele>
        <time>2021-08-12T07:06:36.000Z</time>
      </trkpt>
      <trkpt lat="49.35993" lon="3.38151">
        <ele>67.599998474121</ele>
        <time>2021-08-12T07:06:41.000Z</time>
      </trkpt>
      <trkpt lat="49.35973" lon="3.38194">
        <ele>67.800003051758</ele>
        <time>2021-08-12T07:06:47.000Z</time>
      </trkpt>
      <trkpt lat="49.35949" lon="3.38246">
        <ele>67.400001525879</ele>
        <time>2021-08-12T07:06:55.000Z</time>
      </trkpt>
      <trkpt lat="49.35932" lon="3.38277">
        <ele>67.199996948242</ele>
        <time>2021-08-12T07:07:00.000Z</time>
      </trkpt>
      <trkpt lat="49.35929" lon="3.38283">
        <ele>67.199996948242</ele>
        <time>2021-08-12T07:07:01.000Z</time>
      </trkpt>
      <trkpt lat="49.35905" lon="3.38326">
        <ele>66.199996948242</ele>
        <time>2021-08-12T07:07:07.000Z</time>
      </trkpt>
      <trkpt lat="49.35881" lon="3.38359">
        <ele>65</ele>
        <time>2021-08-12T07:07:11.000Z</time>
      </trkpt>
      <trkpt lat="49.35873" lon="3.38367">
        <ele>64.599998474121</ele>
        <time>2021-08-12T07:07:12.000Z</time>
      </trkpt>
      <trkpt lat="49.35866" lon="3.38374">
        <ele>64.400001525879</ele>
        <time>2021-08-12T07:07:13.000Z</time>
      </trkpt>
      <trkpt lat="49.35848" lon="3.38382">
        <ele>63.799999237061</ele>
        <time>2021-08-12T07:07:15.000Z</time>
      </trkpt>
      <trkpt lat="49.3584" lon="3.38385">
        <ele>63.400001525879</ele>
        <time>2021-08-12T07:07:16.000Z</time>
      </trkpt>
      <trkpt lat="49.35815" lon="3.38387">
        <ele>63</ele>
        <time>2021-08-12T07:07:19.000Z</time>
      </trkpt>
      <trkpt lat="49.35807" lon="3.38385">
        <ele>63</ele>
        <time>2021-08-12T07:07:20.000Z</time>
      </trkpt>
      <trkpt lat="49.35793" lon="3.38376">
        <ele>62.599998474121</ele>
        <time>2021-08-12T07:07:22.000Z</time>
      </trkpt>
      <trkpt lat="49.35762" lon="3.38342">
        <ele>62</ele>
        <time>2021-08-12T07:07:28.000Z</time>
      </trkpt>
      <trkpt lat="49.35747" lon="3.38329">
        <ele>62</ele>
        <time>2021-08-12T07:07:31.000Z</time>
      </trkpt>
      <trkpt lat="49.35737" lon="3.38326">
        <ele>62.200000762939</ele>
        <time>2021-08-12T07:07:33.000Z</time>
      </trkpt>
      <trkpt lat="49.35727" lon="3.38327">
        <ele>62.599998474121</ele>
        <time>2021-08-12T07:07:35.000Z</time>
      </trkpt>
      <trkpt lat="49.35717" lon="3.38331">
        <ele>63.200000762939</ele>
        <time>2021-08-12T07:07:37.000Z</time>
      </trkpt>
      <trkpt lat="49.35713" lon="3.38334">
        <ele>63.599998474121</ele>
        <time>2021-08-12T07:07:38.000Z</time>
      </trkpt>
      <trkpt lat="49.35695" lon="3.38349">
        <ele>65.400001525879</ele>
        <time>2021-08-12T07:07:43.000Z</time>
      </trkpt>
      <trkpt lat="49.35667" lon="3.38375">
        <ele>68.400001525879</ele>
        <time>2021-08-12T07:07:52.000Z</time>
      </trkpt>
      <trkpt lat="49.35645" lon="3.38398">
        <ele>70.599998474121</ele>
        <time>2021-08-12T07:08:00.000Z</time>
      </trkpt>
      <trkpt lat="49.35627" lon="3.38418">
        <ele>72</ele>
        <time>2021-08-12T07:08:07.000Z</time>
      </trkpt>
      <trkpt lat="49.35615" lon="3.38441">
        <ele>73.400001525879</ele>
        <time>2021-08-12T07:08:13.000Z</time>
      </trkpt>
      <trkpt lat="49.35602" lon="3.38466">
        <ele>74.400001525879</ele>
        <time>2021-08-12T07:08:20.000Z</time>
      </trkpt>
      <trkpt lat="49.35589" lon="3.3849">
        <ele>75.599998474121</ele>
        <time>2021-08-12T07:08:27.000Z</time>
      </trkpt>
      <trkpt lat="49.35579" lon="3.38513">
        <ele>76</ele>
        <time>2021-08-12T07:08:33.000Z</time>
      </trkpt>
      <trkpt lat="49.3558" lon="3.38523">
        <ele>76</ele>
        <time>2021-08-12T07:08:35.000Z</time>
      </trkpt>
      <trkpt lat="49.35585" lon="3.38531">
        <ele>75.800003051758</ele>
        <time>2021-08-12T07:08:37.000Z</time>
      </trkpt>
      <trkpt lat="49.35589" lon="3.38538">
        <ele>75.599998474121</ele>
        <time>2021-08-12T07:08:39.000Z</time>
      </trkpt>
      <trkpt lat="49.35591" lon="3.38547">
        <ele>75.599998474121</ele>
        <time>2021-08-12T07:08:41.000Z</time>
      </trkpt>
      <trkpt lat="49.35596" lon="3.3856">
        <ele>75.400001525879</ele>
        <time>2021-08-12T07:08:44.000Z</time>
      </trkpt>
      <trkpt lat="49.35595" lon="3.38586">
        <ele>75</ele>
        <time>2021-08-12T07:08:49.000Z</time>
      </trkpt>
      <trkpt lat="49.35604" lon="3.386">
        <ele>75</ele>
        <time>2021-08-12T07:08:53.000Z</time>
      </trkpt>
      <trkpt lat="49.35606" lon="3.38604">
        <ele>75</ele>
        <time>2021-08-12T07:08:54.000Z</time>
      </trkpt>
      <trkpt lat="49.35606" lon="3.38614">
        <ele>74.800003051758</ele>
        <time>2021-08-12T07:08:56.000Z</time>
      </trkpt>
      <trkpt lat="49.35607" lon="3.38629">
        <ele>74.199996948242</ele>
        <time>2021-08-12T07:08:59.000Z</time>
      </trkpt>
      <trkpt lat="49.3561" lon="3.38631">
        <ele>74</ele>
        <time>2021-08-12T07:09:00.000Z</time>
      </trkpt>
      <trkpt lat="49.35616" lon="3.38635">
        <ele>73.800003051758</ele>
        <time>2021-08-12T07:09:04.000Z</time>
      </trkpt>
      <trkpt lat="49.35616" lon="3.38652">
        <ele>72.800003051758</ele>
        <time>2021-08-12T07:09:08.000Z</time>
      </trkpt>
      <trkpt lat="49.35612" lon="3.38686">
        <ele>71.800003051758</ele>
        <time>2021-08-12T07:09:14.000Z</time>
      </trkpt>
      <trkpt lat="49.35606" lon="3.38709">
        <ele>72</ele>
        <time>2021-08-12T07:09:19.000Z</time>
      </trkpt>
      <trkpt lat="49.35604" lon="3.38733">
        <ele>71.400001525879</ele>
        <time>2021-08-12T07:09:24.000Z</time>
      </trkpt>
      <trkpt lat="49.35603" lon="3.38745">
        <ele>71.199996948242</ele>
        <time>2021-08-12T07:09:29.000Z</time>
      </trkpt>
      <trkpt lat="49.356" lon="3.38744">
        <ele>71.199996948242</ele>
        <time>2021-08-12T07:09:32.000Z</time>
      </trkpt>
      <trkpt lat="49.35594" lon="3.38744">
        <ele>71.400001525879</ele>
        <time>2021-08-12T07:09:35.000Z</time>
      </trkpt>
      <trkpt lat="49.35582" lon="3.38743">
        <ele>72</ele>
        <time>2021-08-12T07:09:40.000Z</time>
      </trkpt>
      <trkpt lat="49.3558" lon="3.38743">
        <ele>72</ele>
        <time>2021-08-12T07:09:41.000Z</time>
      </trkpt>
      <trkpt lat="49.35576" lon="3.38747">
        <ele>72.199996948242</ele>
        <time>2021-08-12T07:09:44.000Z</time>
      </trkpt>
      <trkpt lat="49.35575" lon="3.3875">
        <ele>72.199996948242</ele>
        <time>2021-08-12T07:09:45.000Z</time>
      </trkpt>
      <trkpt lat="49.35574" lon="3.38759">
        <ele>72.599998474121</ele>
        <time>2021-08-12T07:09:48.000Z</time>
      </trkpt>
      <trkpt lat="49.35573" lon="3.38761">
        <ele>72.800003051758</ele>
        <time>2021-08-12T07:09:49.000Z</time>
      </trkpt>
      <trkpt lat="49.35569" lon="3.38771">
        <ele>73</ele>
        <time>2021-08-12T07:09:54.000Z</time>
      </trkpt>
      <trkpt lat="49.35566" lon="3.38776">
        <ele>73</ele>
        <time>2021-08-12T07:09:56.000Z</time>
      </trkpt>
      <trkpt lat="49.35557" lon="3.38779">
        <ele>73</ele>
        <time>2021-08-12T07:10:00.000Z</time>
      </trkpt>
      <trkpt lat="49.35538" lon="3.3878">
        <ele>72.599998474121</ele>
        <time>2021-08-12T07:10:07.000Z</time>
      </trkpt>
      <trkpt lat="49.35523" lon="3.3878">
        <ele>72</ele>
        <time>2021-08-12T07:10:12.000Z</time>
      </trkpt>
      <trkpt lat="49.35514" lon="3.38782">
        <ele>71.199996948242</ele>
        <time>2021-08-12T07:10:15.000Z</time>
      </trkpt>
      <trkpt lat="49.35511" lon="3.38783">
        <ele>71</ele>
        <time>2021-08-12T07:10:16.000Z</time>
      </trkpt>
      <trkpt lat="49.35512" lon="3.38802">
        <ele>71.199996948242</ele>
        <time>2021-08-12T07:10:20.000Z</time>
      </trkpt>
      <trkpt lat="49.35515" lon="3.38832">
        <ele>70.199996948242</ele>
        <time>2021-08-12T07:10:26.000Z</time>
      </trkpt>
      <trkpt lat="49.35518" lon="3.38866">
        <ele>69.599998474121</ele>
        <time>2021-08-12T07:10:33.000Z</time>
      </trkpt>
      <trkpt lat="49.35519" lon="3.38894">
        <ele>69.400001525879</ele>
        <time>2021-08-12T07:10:39.000Z</time>
      </trkpt>
      <trkpt lat="49.35521" lon="3.38928">
        <ele>69</ele>
        <time>2021-08-12T07:10:47.000Z</time>
      </trkpt>
      <trkpt lat="49.35524" lon="3.38959">
        <ele>69.599998474121</ele>
        <time>2021-08-12T07:10:55.000Z</time>
      </trkpt>
      <trkpt lat="49.35526" lon="3.38988">
        <ele>70.800003051758</ele>
        <time>2021-08-12T07:11:03.000Z</time>
      </trkpt>
      <trkpt lat="49.3553" lon="3.39026">
        <ele>72.199996948242</ele>
        <time>2021-08-12T07:11:14.000Z</time>
      </trkpt>
      <trkpt lat="49.35533" lon="3.3905">
        <ele>73.199996948242</ele>
        <time>2021-08-12T07:11:21.000Z</time>
      </trkpt>
      <trkpt lat="49.35538" lon="3.39086">
        <ele>75.199996948242</ele>
        <time>2021-08-12T07:11:31.000Z</time>
      </trkpt>
      <trkpt lat="49.35541" lon="3.39117">
        <ele>76.400001525879</ele>
        <time>2021-08-12T07:11:40.000Z</time>
      </trkpt>
      <trkpt lat="49.35544" lon="3.39143">
        <ele>77.800003051758</ele>
        <time>2021-08-12T07:11:48.000Z</time>
      </trkpt>
      <trkpt lat="49.35545" lon="3.39169">
        <ele>79.199996948242</ele>
        <time>2021-08-12T07:11:56.000Z</time>
      </trkpt>
      <trkpt lat="49.35546" lon="3.39192">
        <ele>80.400001525879</ele>
        <time>2021-08-12T07:12:03.000Z</time>
      </trkpt>
      <trkpt lat="49.35548" lon="3.39212">
        <ele>81.800003051758</ele>
        <time>2021-08-12T07:12:09.000Z</time>
      </trkpt>
      <trkpt lat="49.35548" lon="3.39215">
        <ele>82</ele>
        <time>2021-08-12T07:12:10.000Z</time>
      </trkpt>
      <trkpt lat="49.35547" lon="3.39222">
        <ele>82.800003051758</ele>
        <time>2021-08-12T07:12:13.000Z</time>
      </trkpt>
      <trkpt lat="49.35551" lon="3.39242">
        <ele>84.400001525879</ele>
        <time>2021-08-12T07:12:20.000Z</time>
      </trkpt>
      <trkpt lat="49.35553" lon="3.39249">
        <ele>85</ele>
        <time>2021-08-12T07:12:23.000Z</time>
      </trkpt>
      <trkpt lat="49.35554" lon="3.39256">
        <ele>85.800003051758</ele>
        <time>2021-08-12T07:12:26.000Z</time>
      </trkpt>
      <trkpt lat="49.35554" lon="3.39273">
        <ele>87.599998474121</ele>
        <time>2021-08-12T07:12:32.000Z</time>
      </trkpt>
      <trkpt lat="49.35555" lon="3.39285">
        <ele>89</ele>
        <time>2021-08-12T07:12:37.000Z</time>
      </trkpt>
      <trkpt lat="49.35555" lon="3.39288">
        <ele>89.400001525879</ele>
        <time>2021-08-12T07:12:38.000Z</time>
      </trkpt>
      <trkpt lat="49.35554" lon="3.39303">
        <ele>91.800003051758</ele>
        <time>2021-08-12T07:12:44.000Z</time>
      </trkpt>
      <trkpt lat="49.35544" lon="3.39313">
        <ele>93</ele>
        <time>2021-08-12T07:12:51.000Z</time>
      </trkpt>
      <trkpt lat="49.35533" lon="3.39319">
        <ele>94.400001525879</ele>
        <time>2021-08-12T07:12:58.000Z</time>
      </trkpt>
      <trkpt lat="49.3552" lon="3.39329">
        <ele>97</ele>
        <time>2021-08-12T07:13:05.000Z</time>
      </trkpt>
      <trkpt lat="49.35513" lon="3.39337">
        <ele>98.400001525879</ele>
        <time>2021-08-12T07:13:11.000Z</time>
      </trkpt>
      <trkpt lat="49.35508" lon="3.39351">
        <ele>100.40000152588</ele>
        <time>2021-08-12T07:13:18.000Z</time>
      </trkpt>
      <trkpt lat="49.35501" lon="3.39368">
        <ele>102.59999847412</ele>
        <time>2021-08-12T07:13:26.000Z</time>
      </trkpt>
      <trkpt lat="49.35497" lon="3.39378">
        <ele>104.19999694824</ele>
        <time>2021-08-12T07:13:31.000Z</time>
      </trkpt>
      <trkpt lat="49.35496" lon="3.3938">
        <ele>104.40000152588</ele>
        <time>2021-08-12T07:13:32.000Z</time>
      </trkpt>
      <trkpt lat="49.35491" lon="3.39389">
        <ele>106</ele>
        <time>2021-08-12T07:13:38.000Z</time>
      </trkpt>
      <trkpt lat="49.35482" lon="3.39404">
        <ele>109</ele>
        <time>2021-08-12T07:13:46.000Z</time>
      </trkpt>
      <trkpt lat="49.35477" lon="3.39413">
        <ele>110.59999847412</ele>
        <time>2021-08-12T07:13:52.000Z</time>
      </trkpt>
      <trkpt lat="49.35472" lon="3.39422">
        <ele>112.19999694824</ele>
        <time>2021-08-12T07:13:58.000Z</time>
      </trkpt>
      <trkpt lat="49.35471" lon="3.39423">
        <ele>112.40000152588</ele>
        <time>2021-08-12T07:13:59.000Z</time>
      </trkpt>
      <trkpt lat="49.35468" lon="3.39427">
        <ele>113.40000152588</ele>
        <time>2021-08-12T07:14:02.000Z</time>
      </trkpt>
      <trkpt lat="49.35466" lon="3.3943">
        <ele>114.19999694824</ele>
        <time>2021-08-12T07:14:05.000Z</time>
      </trkpt>
      <trkpt lat="49.35462" lon="3.39434">
        <ele>115.59999847412</ele>
        <time>2021-08-12T07:14:09.000Z</time>
      </trkpt>
      <trkpt lat="49.35452" lon="3.39444">
        <ele>118.19999694824</ele>
        <time>2021-08-12T07:14:16.000Z</time>
      </trkpt>
      <trkpt lat="49.35442" lon="3.39448">
        <ele>120</ele>
        <time>2021-08-12T07:14:22.000Z</time>
      </trkpt>
      <trkpt lat="49.35434" lon="3.39448">
        <ele>121.40000152588</ele>
        <time>2021-08-12T07:14:28.000Z</time>
      </trkpt>
      <trkpt lat="49.35431" lon="3.39447">
        <ele>121.80000305176</ele>
        <time>2021-08-12T07:14:30.000Z</time>
      </trkpt>
      <trkpt lat="49.35426" lon="3.39447">
        <ele>122.59999847412</ele>
        <time>2021-08-12T07:14:34.000Z</time>
      </trkpt>
      <trkpt lat="49.35422" lon="3.39447">
        <ele>123.19999694824</ele>
        <time>2021-08-12T07:14:37.000Z</time>
      </trkpt>
      <trkpt lat="49.35413" lon="3.39445">
        <ele>124.40000152588</ele>
        <time>2021-08-12T07:14:44.000Z</time>
      </trkpt>
      <trkpt lat="49.35405" lon="3.39442">
        <ele>124.59999847412</ele>
        <time>2021-08-12T07:14:50.000Z</time>
      </trkpt>
      <trkpt lat="49.35398" lon="3.39442">
        <ele>125.19999694824</ele>
        <time>2021-08-12T07:14:55.000Z</time>
      </trkpt>
      <trkpt lat="49.35389" lon="3.39443">
        <ele>125.80000305176</ele>
        <time>2021-08-12T07:15:02.000Z</time>
      </trkpt>
      <trkpt lat="49.35388" lon="3.39444">
        <ele>126.19999694824</ele>
        <time>2021-08-12T07:15:05.000Z</time>
      </trkpt>
      <trkpt lat="49.35385" lon="3.39445">
        <ele>126.59999847412</ele>
        <time>2021-08-12T07:15:07.000Z</time>
      </trkpt>
      <trkpt lat="49.35377" lon="3.39445">
        <ele>126.59999847412</ele>
        <time>2021-08-12T07:15:13.000Z</time>
      </trkpt>
      <trkpt lat="49.35369" lon="3.39447">
        <ele>126.80000305176</ele>
        <time>2021-08-12T07:15:18.000Z</time>
      </trkpt>
      <trkpt lat="49.35357" lon="3.39453">
        <ele>128</ele>
        <time>2021-08-12T07:15:26.000Z</time>
      </trkpt>
      <trkpt lat="49.35352" lon="3.39456">
        <ele>128.19999694824</ele>
        <time>2021-08-12T07:15:31.000Z</time>
      </trkpt>
      <trkpt lat="49.35345" lon="3.39459">
        <ele>128.19999694824</ele>
        <time>2021-08-12T07:15:37.000Z</time>
      </trkpt>
      <trkpt lat="49.35208" lon="3.39641">
        <ele>146.39999389648</ele>
        <time>2021-08-12T07:17:51.000Z</time>
      </trkpt>
      <trkpt lat="49.35204" lon="3.39646">
        <ele>146.60000610352</ele>
        <time>2021-08-12T07:17:55.000Z</time>
      </trkpt>
      <trkpt lat="49.35197" lon="3.39656">
        <ele>147.19999694824</ele>
        <time>2021-08-12T07:18:02.000Z</time>
      </trkpt>
      <trkpt lat="49.35189" lon="3.39669">
        <ele>148</ele>
        <time>2021-08-12T07:18:10.000Z</time>
      </trkpt>
      <trkpt lat="49.35181" lon="3.39682">
        <ele>148</ele>
        <time>2021-08-12T07:18:18.000Z</time>
      </trkpt>
      <trkpt lat="49.35173" lon="3.39694">
        <ele>148.80000305176</ele>
        <time>2021-08-12T07:18:26.000Z</time>
      </trkpt>
      <trkpt lat="49.35166" lon="3.39703">
        <ele>149.19999694824</ele>
        <time>2021-08-12T07:18:32.000Z</time>
      </trkpt>
      <trkpt lat="49.35159" lon="3.39714">
        <ele>149.80000305176</ele>
        <time>2021-08-12T07:18:39.000Z</time>
      </trkpt>
      <trkpt lat="49.35151" lon="3.39725">
        <ele>150.19999694824</ele>
        <time>2021-08-12T07:18:47.000Z</time>
      </trkpt>
      <trkpt lat="49.35141" lon="3.39738">
        <ele>150.60000610352</ele>
        <time>2021-08-12T07:18:56.000Z</time>
      </trkpt>
      <trkpt lat="49.35135" lon="3.39746">
        <ele>151</ele>
        <time>2021-08-12T07:19:02.000Z</time>
      </trkpt>
      <trkpt lat="49.35131" lon="3.39755">
        <ele>151.19999694824</ele>
        <time>2021-08-12T07:19:07.000Z</time>
      </trkpt>
      <trkpt lat="49.35124" lon="3.39768">
        <ele>151.80000305176</ele>
        <time>2021-08-12T07:19:14.000Z</time>
      </trkpt>
      <trkpt lat="49.35119" lon="3.39786">
        <ele>152.39999389648</ele>
        <time>2021-08-12T07:19:22.000Z</time>
      </trkpt>
      <trkpt lat="49.35113" lon="3.39803">
        <ele>153.80000305176</ele>
        <time>2021-08-12T07:19:30.000Z</time>
      </trkpt>
      <trkpt lat="49.35108" lon="3.39821">
        <ele>154.60000610352</ele>
        <time>2021-08-12T07:19:37.000Z</time>
      </trkpt>
      <trkpt lat="49.351" lon="3.39833">
        <ele>155.19999694824</ele>
        <time>2021-08-12T07:19:43.000Z</time>
      </trkpt>
      <trkpt lat="49.35092" lon="3.39849">
        <ele>156.19999694824</ele>
        <time>2021-08-12T07:19:49.000Z</time>
      </trkpt>
      <trkpt lat="49.35083" lon="3.39869">
        <ele>156.60000610352</ele>
        <time>2021-08-12T07:19:56.000Z</time>
      </trkpt>
      <trkpt lat="49.35075" lon="3.3989">
        <ele>157.19999694824</ele>
        <time>2021-08-12T07:20:03.000Z</time>
      </trkpt>
      <trkpt lat="49.35066" lon="3.39909">
        <ele>157.80000305176</ele>
        <time>2021-08-12T07:20:10.000Z</time>
      </trkpt>
      <trkpt lat="49.35056" lon="3.39933">
        <ele>158</ele>
        <time>2021-08-12T07:20:18.000Z</time>
      </trkpt>
      <trkpt lat="49.35047" lon="3.39957">
        <ele>158.60000610352</ele>
        <time>2021-08-12T07:20:26.000Z</time>
      </trkpt>
      <trkpt lat="49.35036" lon="3.39982">
        <ele>159</ele>
        <time>2021-08-12T07:20:34.000Z</time>
      </trkpt>
      <trkpt lat="49.3503" lon="3.40001">
        <ele>159.19999694824</ele>
        <time>2021-08-12T07:20:40.000Z</time>
      </trkpt>
      <trkpt lat="49.35023" lon="3.40021">
        <ele>159.80000305176</ele>
        <time>2021-08-12T07:20:46.000Z</time>
      </trkpt>
      <trkpt lat="49.35014" lon="3.40051">
        <ele>160</ele>
        <time>2021-08-12T07:20:54.000Z</time>
      </trkpt>
      <trkpt lat="49.35003" lon="3.40088">
        <ele>159.80000305176</ele>
        <time>2021-08-12T07:21:03.000Z</time>
      </trkpt>
      <trkpt lat="49.34993" lon="3.40125">
        <ele>159.39999389648</ele>
        <time>2021-08-12T07:21:11.000Z</time>
      </trkpt>
      <trkpt lat="49.34984" lon="3.40163">
        <ele>159.39999389648</ele>
        <time>2021-08-12T07:21:18.000Z</time>
      </trkpt>
      <trkpt lat="49.34971" lon="3.4021">
        <ele>159.80000305176</ele>
        <time>2021-08-12T07:21:26.000Z</time>
      </trkpt>
      <trkpt lat="49.34954" lon="3.40269">
        <ele>159.39999389648</ele>
        <time>2021-08-12T07:21:35.000Z</time>
      </trkpt>
      <trkpt lat="49.34939" lon="3.40322">
        <ele>160</ele>
        <time>2021-08-12T07:21:43.000Z</time>
      </trkpt>
      <trkpt lat="49.34919" lon="3.4038">
        <ele>158.19999694824</ele>
        <time>2021-08-12T07:21:52.000Z</time>
      </trkpt>
      <trkpt lat="49.34896" lon="3.40447">
        <ele>158</ele>
        <time>2021-08-12T07:22:02.000Z</time>
      </trkpt>
      <trkpt lat="49.34874" lon="3.40511">
        <ele>156.60000610352</ele>
        <time>2021-08-12T07:22:12.000Z</time>
      </trkpt>
      <trkpt lat="49.3485" lon="3.40566">
        <ele>157</ele>
        <time>2021-08-12T07:22:21.000Z</time>
      </trkpt>
      <trkpt lat="49.34837" lon="3.40591">
        <ele>157</ele>
        <time>2021-08-12T07:22:25.000Z</time>
      </trkpt>
      <trkpt lat="49.34826" lon="3.40608">
        <ele>156</ele>
        <time>2021-08-12T07:22:28.000Z</time>
      </trkpt>
      <trkpt lat="49.34799" lon="3.40644">
        <ele>154</ele>
        <time>2021-08-12T07:22:35.000Z</time>
      </trkpt>
      <trkpt lat="49.34759" lon="3.40686">
        <ele>154.19999694824</ele>
        <time>2021-08-12T07:22:43.000Z</time>
      </trkpt>
      <trkpt lat="49.34722" lon="3.40732">
        <ele>151.80000305176</ele>
        <time>2021-08-12T07:22:50.000Z</time>
      </trkpt>
      <trkpt lat="49.34701" lon="3.40777">
        <ele>149.39999389648</ele>
        <time>2021-08-12T07:22:55.000Z</time>
      </trkpt>
      <trkpt lat="49.34685" lon="3.40829">
        <ele>146</ele>
        <time>2021-08-12T07:23:01.000Z</time>
      </trkpt>
      <trkpt lat="49.34682" lon="3.40836">
        <ele>145.80000305176</ele>
        <time>2021-08-12T07:23:02.000Z</time>
      </trkpt>
      <trkpt lat="49.34674" lon="3.4085">
        <ele>145.39999389648</ele>
        <time>2021-08-12T07:23:04.000Z</time>
      </trkpt>
      <trkpt lat="49.3467" lon="3.40857">
        <ele>145</ele>
        <time>2021-08-12T07:23:05.000Z</time>
      </trkpt>
      <trkpt lat="49.34656" lon="3.40876">
        <ele>144.80000305176</ele>
        <time>2021-08-12T07:23:08.000Z</time>
      </trkpt>
      <trkpt lat="49.34651" lon="3.4088">
        <ele>145</ele>
        <time>2021-08-12T07:23:09.000Z</time>
      </trkpt>
      <trkpt lat="49.3464" lon="3.4088">
        <ele>145.80000305176</ele>
        <time>2021-08-12T07:23:12.000Z</time>
      </trkpt>
      <trkpt lat="49.34636" lon="3.40881">
        <ele>146.19999694824</ele>
        <time>2021-08-12T07:23:14.000Z</time>
      </trkpt>
      <trkpt lat="49.34636" lon="3.40884">
        <ele>146</ele>
        <time>2021-08-12T07:23:15.000Z</time>
      </trkpt>
      <trkpt lat="49.3464" lon="3.40897">
        <ele>145.19999694824</ele>
        <time>2021-08-12T07:23:18.000Z</time>
      </trkpt>
      <trkpt lat="49.34639" lon="3.40903">
        <ele>145</ele>
        <time>2021-08-12T07:23:19.000Z</time>
      </trkpt>
      <trkpt lat="49.34638" lon="3.40909">
        <ele>145</ele>
        <time>2021-08-12T07:23:20.000Z</time>
      </trkpt>
      <trkpt lat="49.3463" lon="3.40941">
        <ele>144.39999389648</ele>
        <time>2021-08-12T07:23:25.000Z</time>
      </trkpt>
      <trkpt lat="49.34615" lon="3.40989">
        <ele>144.39999389648</ele>
        <time>2021-08-12T07:23:32.000Z</time>
      </trkpt>
      <trkpt lat="49.3459" lon="3.41059">
        <ele>144.39999389648</ele>
        <time>2021-08-12T07:23:43.000Z</time>
      </trkpt>
      <trkpt lat="49.34565" lon="3.41131">
        <ele>144.80000305176</ele>
        <time>2021-08-12T07:23:54.000Z</time>
      </trkpt>
      <trkpt lat="49.34546" lon="3.41183">
        <ele>144.60000610352</ele>
        <time>2021-08-12T07:24:02.000Z</time>
      </trkpt>
      <trkpt lat="49.34528" lon="3.41219">
        <ele>144</ele>
        <time>2021-08-12T07:24:08.000Z</time>
      </trkpt>
      <trkpt lat="49.34525" lon="3.41224">
        <ele>143.80000305176</ele>
        <time>2021-08-12T07:24:09.000Z</time>
      </trkpt>
      <trkpt lat="49.34508" lon="3.4126">
        <ele>142.19999694824</ele>
        <time>2021-08-12T07:24:15.000Z</time>
      </trkpt>
      <trkpt lat="49.34497" lon="3.41273">
        <ele>141.19999694824</ele>
        <time>2021-08-12T07:24:19.000Z</time>
      </trkpt>
      <trkpt lat="49.34482" lon="3.41269">
        <ele>142</ele>
        <time>2021-08-12T07:24:23.000Z</time>
      </trkpt>
      <trkpt lat="49.34479" lon="3.41266">
        <ele>142.19999694824</ele>
        <time>2021-08-12T07:24:24.000Z</time>
      </trkpt>
      <trkpt lat="49.34453" lon="3.41249">
        <ele>143.39999389648</ele>
        <time>2021-08-12T07:24:30.000Z</time>
      </trkpt>
      <trkpt lat="49.34449" lon="3.41247">
        <ele>143.39999389648</ele>
        <time>2021-08-12T07:24:31.000Z</time>
      </trkpt>
      <trkpt lat="49.34425" lon="3.41227">
        <ele>143.19999694824</ele>
        <time>2021-08-12T07:24:37.000Z</time>
      </trkpt>
      <trkpt lat="49.34421" lon="3.41224">
        <ele>143.19999694824</ele>
        <time>2021-08-12T07:24:38.000Z</time>
      </trkpt>
      <trkpt lat="49.34405" lon="3.41214">
        <ele>142.60000610352</ele>
        <time>2021-08-12T07:24:42.000Z</time>
      </trkpt>
      <trkpt lat="49.34401" lon="3.4121">
        <ele>142.60000610352</ele>
        <time>2021-08-12T07:24:43.000Z</time>
      </trkpt>
      <trkpt lat="49.34371" lon="3.4118">
        <ele>141.39999389648</ele>
        <time>2021-08-12T07:24:51.000Z</time>
      </trkpt>
      <trkpt lat="49.34347" lon="3.41151">
        <ele>140.60000610352</ele>
        <time>2021-08-12T07:24:57.000Z</time>
      </trkpt>
      <trkpt lat="49.34315" lon="3.41114">
        <ele>139.39999389648</ele>
        <time>2021-08-12T07:25:04.000Z</time>
      </trkpt>
      <trkpt lat="49.34276" lon="3.41079">
        <ele>138.19999694824</ele>
        <time>2021-08-12T07:25:12.000Z</time>
      </trkpt>
      <trkpt lat="49.34243" lon="3.41046">
        <ele>138.39999389648</ele>
        <time>2021-08-12T07:25:19.000Z</time>
      </trkpt>
      <trkpt lat="49.34198" lon="3.4101">
        <ele>138.60000610352</ele>
        <time>2021-08-12T07:25:27.000Z</time>
      </trkpt>
      <trkpt lat="49.34179" lon="3.40999">
        <ele>138.19999694824</ele>
        <time>2021-08-12T07:25:30.000Z</time>
      </trkpt>
      <trkpt lat="49.34165" lon="3.40994">
        <ele>137.39999389648</ele>
        <time>2021-08-12T07:25:32.000Z</time>
      </trkpt>
      <trkpt lat="49.34158" lon="3.40993">
        <ele>136.80000305176</ele>
        <time>2021-08-12T07:25:33.000Z</time>
      </trkpt>
      <trkpt lat="49.34129" lon="3.40986">
        <ele>135</ele>
        <time>2021-08-12T07:25:37.000Z</time>
      </trkpt>
      <trkpt lat="49.34116" lon="3.40979">
        <ele>134.39999389648</ele>
        <time>2021-08-12T07:25:39.000Z</time>
      </trkpt>
      <trkpt lat="49.34109" lon="3.40974">
        <ele>134</ele>
        <time>2021-08-12T07:25:40.000Z</time>
      </trkpt>
      <trkpt lat="49.34086" lon="3.40956">
        <ele>132.60000610352</ele>
        <time>2021-08-12T07:25:44.000Z</time>
      </trkpt>
      <trkpt lat="49.34058" lon="3.40934">
        <ele>131.19999694824</ele>
        <time>2021-08-12T07:25:50.000Z</time>
      </trkpt>
      <trkpt lat="49.34056" lon="3.4093">
        <ele>131.39999389648</ele>
        <time>2021-08-12T07:25:51.000Z</time>
      </trkpt>
      <trkpt lat="49.34057" lon="3.40919">
        <ele>132.19999694824</ele>
        <time>2021-08-12T07:25:53.000Z</time>
      </trkpt>
      <trkpt lat="49.34069" lon="3.40894">
        <ele>134.80000305176</ele>
        <time>2021-08-12T07:26:00.000Z</time>
      </trkpt>
      <trkpt lat="49.34081" lon="3.40867">
        <ele>137.60000610352</ele>
        <time>2021-08-12T07:26:07.000Z</time>
      </trkpt>
      <trkpt lat="49.34091" lon="3.40846">
        <ele>139.39999389648</ele>
        <time>2021-08-12T07:26:13.000Z</time>
      </trkpt>
      <trkpt lat="49.34105" lon="3.40817">
        <ele>141.39999389648</ele>
        <time>2021-08-12T07:26:21.000Z</time>
      </trkpt>
      <trkpt lat="49.34121" lon="3.4078">
        <ele>143.60000610352</ele>
        <time>2021-08-12T07:26:31.000Z</time>
      </trkpt>
      <trkpt lat="49.34138" lon="3.40744">
        <ele>145.39999389648</ele>
        <time>2021-08-12T07:26:41.000Z</time>
      </trkpt>
      <trkpt lat="49.3415" lon="3.40719">
        <ele>147.19999694824</ele>
        <time>2021-08-12T07:26:49.000Z</time>
      </trkpt>
      <trkpt lat="49.34162" lon="3.40692">
        <ele>149</ele>
        <time>2021-08-12T07:26:57.000Z</time>
      </trkpt>
      <trkpt lat="49.34172" lon="3.40668">
        <ele>150.39999389648</ele>
        <time>2021-08-12T07:27:04.000Z</time>
      </trkpt>
      <trkpt lat="49.34184" lon="3.40643">
        <ele>152.39999389648</ele>
        <time>2021-08-12T07:27:12.000Z</time>
      </trkpt>
      <trkpt lat="49.34194" lon="3.40621">
        <ele>153</ele>
        <time>2021-08-12T07:27:19.000Z</time>
      </trkpt>
      <trkpt lat="49.34209" lon="3.40588">
        <ele>154</ele>
        <time>2021-08-12T07:27:29.000Z</time>
      </trkpt>
      <trkpt lat="49.34226" lon="3.40552">
        <ele>155</ele>
        <time>2021-08-12T07:27:40.000Z</time>
      </trkpt>
      <trkpt lat="49.34241" lon="3.40518">
        <ele>155.80000305176</ele>
        <time>2021-08-12T07:27:50.000Z</time>
      </trkpt>
      <trkpt lat="49.34255" lon="3.40491">
        <ele>156.39999389648</ele>
        <time>2021-08-12T07:27:58.000Z</time>
      </trkpt>
      <trkpt lat="49.3427" lon="3.40484">
        <ele>157.19999694824</ele>
        <time>2021-08-12T07:28:04.000Z</time>
      </trkpt>
      <trkpt lat="49.34287" lon="3.40493">
        <ele>157.60000610352</ele>
        <time>2021-08-12T07:28:10.000Z</time>
      </trkpt>
      <trkpt lat="49.34299" lon="3.40497">
        <ele>158</ele>
        <time>2021-08-12T07:28:14.000Z</time>
      </trkpt>
      <trkpt lat="49.3431" lon="3.40481">
        <ele>157.60000610352</ele>
        <time>2021-08-12T07:28:18.000Z</time>
      </trkpt>
      <trkpt lat="49.34329" lon="3.40446">
        <ele>158</ele>
        <time>2021-08-12T07:28:26.000Z</time>
      </trkpt>
      <trkpt lat="49.34348" lon="3.40412">
        <ele>158.80000305176</ele>
        <time>2021-08-12T07:28:34.000Z</time>
      </trkpt>
      <trkpt lat="49.34374" lon="3.40367">
        <ele>158.60000610352</ele>
        <time>2021-08-12T07:28:44.000Z</time>
      </trkpt>
      <trkpt lat="49.34398" lon="3.40327">
        <ele>158</ele>
        <time>2021-08-12T07:28:52.000Z</time>
      </trkpt>
      <trkpt lat="49.34434" lon="3.40269">
        <ele>157</ele>
        <time>2021-08-12T07:29:04.000Z</time>
      </trkpt>
      <trkpt lat="49.34461" lon="3.40225">
        <ele>157</ele>
        <time>2021-08-12T07:29:13.000Z</time>
      </trkpt>
      <trkpt lat="49.34491" lon="3.40175">
        <ele>158.39999389648</ele>
        <time>2021-08-12T07:29:23.000Z</time>
      </trkpt>
      <trkpt lat="49.34514" lon="3.40132">
        <ele>158</ele>
        <time>2021-08-12T07:29:31.000Z</time>
      </trkpt>
      <trkpt lat="49.34535" lon="3.40095">
        <ele>158.39999389648</ele>
        <time>2021-08-12T07:29:38.000Z</time>
      </trkpt>
      <trkpt lat="49.34552" lon="3.40062">
        <ele>158.60000610352</ele>
        <time>2021-08-12T07:29:44.000Z</time>
      </trkpt>
      <trkpt lat="49.34557" lon="3.40049">
        <ele>158.80000305176</ele>
        <time>2021-08-12T07:29:46.000Z</time>
      </trkpt>
      <trkpt lat="49.34579" lon="3.39998">
        <ele>158</ele>
        <time>2021-08-12T07:29:54.000Z</time>
      </trkpt>
      <trkpt lat="49.34581" lon="3.39991">
        <ele>158</ele>
        <time>2021-08-12T07:29:55.000Z</time>
      </trkpt>
      <trkpt lat="49.34597" lon="3.3996">
        <ele>157.60000610352</ele>
        <time>2021-08-12T07:30:00.000Z</time>
      </trkpt>
      <trkpt lat="49.3462" lon="3.39912">
        <ele>155</ele>
        <time>2021-08-12T07:30:07.000Z</time>
      </trkpt>
      <trkpt lat="49.34632" lon="3.39883">
        <ele>154</ele>
        <time>2021-08-12T07:30:11.000Z</time>
      </trkpt>
      <trkpt lat="49.3464" lon="3.3986">
        <ele>154</ele>
        <time>2021-08-12T07:30:14.000Z</time>
      </trkpt>
      <trkpt lat="49.34644" lon="3.39838">
        <ele>153.39999389648</ele>
        <time>2021-08-12T07:30:17.000Z</time>
      </trkpt>
      <trkpt lat="49.34646" lon="3.39831">
        <ele>153.39999389648</ele>
        <time>2021-08-12T07:30:18.000Z</time>
      </trkpt>
      <trkpt lat="49.34649" lon="3.39825">
        <ele>153.39999389648</ele>
        <time>2021-08-12T07:30:19.000Z</time>
      </trkpt>
      <trkpt lat="49.34654" lon="3.39814">
        <ele>153.19999694824</ele>
        <time>2021-08-12T07:30:21.000Z</time>
      </trkpt>
      <trkpt lat="49.34657" lon="3.39807">
        <ele>153</ele>
        <time>2021-08-12T07:30:22.000Z</time>
      </trkpt>
      <trkpt lat="49.34659" lon="3.398">
        <ele>152.80000305176</ele>
        <time>2021-08-12T07:30:23.000Z</time>
      </trkpt>
      <trkpt lat="49.34665" lon="3.39772">
        <ele>153</ele>
        <time>2021-08-12T07:30:27.000Z</time>
      </trkpt>
      <trkpt lat="49.3467" lon="3.39736">
        <ele>152.19999694824</ele>
        <time>2021-08-12T07:30:32.000Z</time>
      </trkpt>
      <trkpt lat="49.34671" lon="3.39729">
        <ele>152.39999389648</ele>
        <time>2021-08-12T07:30:33.000Z</time>
      </trkpt>
      <trkpt lat="49.34672" lon="3.39722">
        <ele>152</ele>
        <time>2021-08-12T07:30:34.000Z</time>
      </trkpt>
      <trkpt lat="49.34674" lon="3.39702">
        <ele>151.39999389648</ele>
        <time>2021-08-12T07:30:37.000Z</time>
      </trkpt>
      <trkpt lat="49.34678" lon="3.3968">
        <ele>150.19999694824</ele>
        <time>2021-08-12T07:30:40.000Z</time>
      </trkpt>
      <trkpt lat="49.34681" lon="3.39648">
        <ele>148.80000305176</ele>
        <time>2021-08-12T07:30:44.000Z</time>
      </trkpt>
      <trkpt lat="49.34686" lon="3.39602">
        <ele>146.60000610352</ele>
        <time>2021-08-12T07:30:49.000Z</time>
      </trkpt>
      <trkpt lat="49.34687" lon="3.39592">
        <ele>146.19999694824</ele>
        <time>2021-08-12T07:30:50.000Z</time>
      </trkpt>
      <trkpt lat="49.34695" lon="3.39531">
        <ele>144.39999389648</ele>
        <time>2021-08-12T07:30:56.000Z</time>
      </trkpt>
      <trkpt lat="49.34704" lon="3.3948">
        <ele>142.19999694824</ele>
        <time>2021-08-12T07:31:02.000Z</time>
      </trkpt>
      <trkpt lat="49.34706" lon="3.39474">
        <ele>141.80000305176</ele>
        <time>2021-08-12T07:31:03.000Z</time>
      </trkpt>
      <trkpt lat="49.34712" lon="3.39468">
        <ele>141</ele>
        <time>2021-08-12T07:31:05.000Z</time>
      </trkpt>
      <trkpt lat="49.34716" lon="3.39467">
        <ele>140.80000305176</ele>
        <time>2021-08-12T07:31:06.000Z</time>
      </trkpt>
      <trkpt lat="49.34724" lon="3.39468">
        <ele>140.60000610352</ele>
        <time>2021-08-12T07:31:08.000Z</time>
      </trkpt>
      <trkpt lat="49.34737" lon="3.39473">
        <ele>140.60000610352</ele>
        <time>2021-08-12T07:31:11.000Z</time>
      </trkpt>
      <trkpt lat="49.34741" lon="3.39475">
        <ele>140.60000610352</ele>
        <time>2021-08-12T07:31:12.000Z</time>
      </trkpt>
      <trkpt lat="49.34749" lon="3.39477">
        <ele>140.39999389648</ele>
        <time>2021-08-12T07:31:14.000Z</time>
      </trkpt>
      <trkpt lat="49.34763" lon="3.39477">
        <ele>140</ele>
        <time>2021-08-12T07:31:17.000Z</time>
      </trkpt>
      <trkpt lat="49.34773" lon="3.39477">
        <ele>139.60000610352</ele>
        <time>2021-08-12T07:31:19.000Z</time>
      </trkpt>
      <trkpt lat="49.34784" lon="3.39479">
        <ele>139.39999389648</ele>
        <time>2021-08-12T07:31:21.000Z</time>
      </trkpt>
      <trkpt lat="49.34789" lon="3.39482">
        <ele>139</ele>
        <time>2021-08-12T07:31:22.000Z</time>
      </trkpt>
      <trkpt lat="49.34794" lon="3.39483">
        <ele>138.80000305176</ele>
        <time>2021-08-12T07:31:23.000Z</time>
      </trkpt>
      <trkpt lat="49.34808" lon="3.39483">
        <ele>137.60000610352</ele>
        <time>2021-08-12T07:31:26.000Z</time>
      </trkpt>
      <trkpt lat="49.34823" lon="3.39483">
        <ele>136.80000305176</ele>
        <time>2021-08-12T07:31:28.000Z</time>
      </trkpt>
      <trkpt lat="49.34837" lon="3.39482">
        <ele>136.19999694824</ele>
        <time>2021-08-12T07:31:30.000Z</time>
      </trkpt>
      <trkpt lat="49.34843" lon="3.3948">
        <ele>135.80000305176</ele>
        <time>2021-08-12T07:31:31.000Z</time>
      </trkpt>
      <trkpt lat="49.34859" lon="3.3947">
        <ele>135</ele>
        <time>2021-08-12T07:31:34.000Z</time>
      </trkpt>
      <trkpt lat="49.34884" lon="3.39452">
        <ele>133.80000305176</ele>
        <time>2021-08-12T07:31:38.000Z</time>
      </trkpt>
      <trkpt lat="49.34909" lon="3.39442">
        <ele>131.39999389648</ele>
        <time>2021-08-12T07:31:42.000Z</time>
      </trkpt>
      <trkpt lat="49.34919" lon="3.39436">
        <ele>130.19999694824</ele>
        <time>2021-08-12T07:31:44.000Z</time>
      </trkpt>
      <trkpt lat="49.34925" lon="3.39436">
        <ele>130</ele>
        <time>2021-08-12T07:31:45.000Z</time>
      </trkpt>
      <trkpt lat="49.34931" lon="3.39437">
        <ele>129.80000305176</ele>
        <time>2021-08-12T07:31:46.000Z</time>
      </trkpt>
      <trkpt lat="49.34947" lon="3.39439">
        <ele>129</ele>
        <time>2021-08-12T07:31:49.000Z</time>
      </trkpt>
      <trkpt lat="49.34953" lon="3.3944">
        <ele>128.39999389648</ele>
        <time>2021-08-12T07:31:50.000Z</time>
      </trkpt>
      <trkpt lat="49.34968" lon="3.39445">
        <ele>127.40000152588</ele>
        <time>2021-08-12T07:31:53.000Z</time>
      </trkpt>
      <trkpt lat="49.34977" lon="3.39447">
        <ele>126.19999694824</ele>
        <time>2021-08-12T07:31:55.000Z</time>
      </trkpt>
      <trkpt lat="49.34982" lon="3.39448">
        <ele>125.40000152588</ele>
        <time>2021-08-12T07:31:56.000Z</time>
      </trkpt>
      <trkpt lat="49.34998" lon="3.39446">
        <ele>122.59999847412</ele>
        <time>2021-08-12T07:31:59.000Z</time>
      </trkpt>
      <trkpt lat="49.35003" lon="3.39445">
        <ele>122.19999694824</ele>
        <time>2021-08-12T07:32:00.000Z</time>
      </trkpt>
      <trkpt lat="49.35018" lon="3.39441">
        <ele>120.19999694824</ele>
        <time>2021-08-12T07:32:03.000Z</time>
      </trkpt>
      <trkpt lat="49.35029" lon="3.39436">
        <ele>119.40000152588</ele>
        <time>2021-08-12T07:32:05.000Z</time>
      </trkpt>
      <trkpt lat="49.35055" lon="3.39429">
        <ele>118.59999847412</ele>
        <time>2021-08-12T07:32:10.000Z</time>
      </trkpt>
      <trkpt lat="49.35085" lon="3.3942">
        <ele>117.19999694824</ele>
        <time>2021-08-12T07:32:15.000Z</time>
      </trkpt>
      <trkpt lat="49.35126" lon="3.39408">
        <ele>116.59999847412</ele>
        <time>2021-08-12T07:32:21.000Z</time>
      </trkpt>
      <trkpt lat="49.35166" lon="3.39396">
        <ele>113.40000152588</ele>
        <time>2021-08-12T07:32:27.000Z</time>
      </trkpt>
      <trkpt lat="49.35191" lon="3.39384">
        <ele>110.59999847412</ele>
        <time>2021-08-12T07:32:31.000Z</time>
      </trkpt>
      <trkpt lat="49.35203" lon="3.39374">
        <ele>109.19999694824</ele>
        <time>2021-08-12T07:32:33.000Z</time>
      </trkpt>
      <trkpt lat="49.35209" lon="3.3937">
        <ele>108.59999847412</ele>
        <time>2021-08-12T07:32:34.000Z</time>
      </trkpt>
      <trkpt lat="49.3522" lon="3.39365">
        <ele>108</ele>
        <time>2021-08-12T07:32:36.000Z</time>
      </trkpt>
      <trkpt lat="49.35225" lon="3.39364">
        <ele>108.19999694824</ele>
        <time>2021-08-12T07:32:37.000Z</time>
      </trkpt>
      <trkpt lat="49.35233" lon="3.39361">
        <ele>108.40000152588</ele>
        <time>2021-08-12T07:32:40.000Z</time>
      </trkpt>
      <trkpt lat="49.35233" lon="3.39361">
        <ele>108.40000152588</ele>
        <time>2021-08-12T07:32:42.000Z</time>
      </trkpt>
      <trkpt lat="49.35236" lon="3.39353">
        <ele>107.59999847412</ele>
        <time>2021-08-12T07:33:01.000Z</time>
      </trkpt>
      <trkpt lat="49.35239" lon="3.39332">
        <ele>104.80000305176</ele>
        <time>2021-08-12T07:33:04.000Z</time>
      </trkpt>
      <trkpt lat="49.35243" lon="3.3929">
        <ele>99.199996948242</ele>
        <time>2021-08-12T07:33:09.000Z</time>
      </trkpt>
      <trkpt lat="49.35246" lon="3.39268">
        <ele>96.199996948242</ele>
        <time>2021-08-12T07:33:12.000Z</time>
      </trkpt>
      <trkpt lat="49.35246" lon="3.39256">
        <ele>95</ele>
        <time>2021-08-12T07:33:14.000Z</time>
      </trkpt>
      <trkpt lat="49.35249" lon="3.3923">
        <ele>92.800003051758</ele>
        <time>2021-08-12T07:33:19.000Z</time>
      </trkpt>
      <trkpt lat="49.35252" lon="3.39205">
        <ele>92</ele>
        <time>2021-08-12T07:33:24.000Z</time>
      </trkpt>
      <trkpt lat="49.35257" lon="3.39172">
        <ele>90.800003051758</ele>
        <time>2021-08-12T07:33:30.000Z</time>
      </trkpt>
      <trkpt lat="49.35261" lon="3.39162">
        <ele>89.800003051758</ele>
        <time>2021-08-12T07:33:32.000Z</time>
      </trkpt>
      <trkpt lat="49.35268" lon="3.39154">
        <ele>89.400001525879</ele>
        <time>2021-08-12T07:33:34.000Z</time>
      </trkpt>
      <trkpt lat="49.35293" lon="3.39135">
        <ele>87.199996948242</ele>
        <time>2021-08-12T07:33:40.000Z</time>
      </trkpt>
      <trkpt lat="49.35316" lon="3.3912">
        <ele>84.400001525879</ele>
        <time>2021-08-12T07:33:45.000Z</time>
      </trkpt>
      <trkpt lat="49.35332" lon="3.39112">
        <ele>83</ele>
        <time>2021-08-12T07:33:48.000Z</time>
      </trkpt>
      <trkpt lat="49.35343" lon="3.39106">
        <ele>82.400001525879</ele>
        <time>2021-08-12T07:33:50.000Z</time>
      </trkpt>
      <trkpt lat="49.35349" lon="3.39104">
        <ele>82</ele>
        <time>2021-08-12T07:33:51.000Z</time>
      </trkpt>
      <trkpt lat="49.35366" lon="3.39106">
        <ele>81.599998474121</ele>
        <time>2021-08-12T07:33:54.000Z</time>
      </trkpt>
      <trkpt lat="49.35375" lon="3.39106">
        <ele>81.199996948242</ele>
        <time>2021-08-12T07:33:57.000Z</time>
      </trkpt>
      <trkpt lat="49.35376" lon="3.39097">
        <ele>80.599998474121</ele>
        <time>2021-08-12T07:33:59.000Z</time>
      </trkpt>
      <trkpt lat="49.35374" lon="3.39093">
        <ele>80.400001525879</ele>
        <time>2021-08-12T07:34:00.000Z</time>
      </trkpt>
      <trkpt lat="49.35365" lon="3.3907">
        <ele>79.599998474121</ele>
        <time>2021-08-12T07:34:05.000Z</time>
      </trkpt>
      <trkpt lat="49.35351" lon="3.39035">
        <ele>78.599998474121</ele>
        <time>2021-08-12T07:34:12.000Z</time>
      </trkpt>
      <trkpt lat="49.35344" lon="3.39019">
        <ele>78.400001525879</ele>
        <time>2021-08-12T07:34:15.000Z</time>
      </trkpt>
      <trkpt lat="49.35334" lon="3.39006">
        <ele>78.800003051758</ele>
        <time>2021-08-12T07:34:18.000Z</time>
      </trkpt>
      <trkpt lat="49.35326" lon="3.39">
        <ele>79.199996948242</ele>
        <time>2021-08-12T07:34:20.000Z</time>
      </trkpt>
      <trkpt lat="49.35313" lon="3.38995">
        <ele>79.599998474121</ele>
        <time>2021-08-12T07:34:23.000Z</time>
      </trkpt>
      <trkpt lat="49.35282" lon="3.3899">
        <ele>80.199996948242</ele>
        <time>2021-08-12T07:34:30.000Z</time>
      </trkpt>
      <trkpt lat="49.3526" lon="3.3899">
        <ele>81.199996948242</ele>
        <time>2021-08-12T07:34:35.000Z</time>
      </trkpt>
      <trkpt lat="49.35252" lon="3.3899">
        <ele>81.800003051758</ele>
        <time>2021-08-12T07:34:37.000Z</time>
      </trkpt>
      <trkpt lat="49.35239" lon="3.38997">
        <ele>82.199996948242</ele>
        <time>2021-08-12T07:34:42.000Z</time>
      </trkpt>
      <trkpt lat="49.35228" lon="3.39014">
        <ele>82.400001525879</ele>
        <time>2021-08-12T07:34:47.000Z</time>
      </trkpt>
      <trkpt lat="49.3521" lon="3.39026">
        <ele>83.400001525879</ele>
        <time>2021-08-12T07:34:52.000Z</time>
      </trkpt>
      <trkpt lat="49.35202" lon="3.39027">
        <ele>83.599998474121</ele>
        <time>2021-08-12T07:34:54.000Z</time>
      </trkpt>
      <trkpt lat="49.3519" lon="3.39031">
        <ele>84.199996948242</ele>
        <time>2021-08-12T07:34:56.000Z</time>
      </trkpt>
      <trkpt lat="49.35184" lon="3.39033">
        <ele>84.800003051758</ele>
        <time>2021-08-12T07:34:57.000Z</time>
      </trkpt>
      <trkpt lat="49.35161" lon="3.39037">
        <ele>87</ele>
        <time>2021-08-12T07:35:02.000Z</time>
      </trkpt>
      <trkpt lat="49.35147" lon="3.39044">
        <ele>89</ele>
        <time>2021-08-12T07:35:06.000Z</time>
      </trkpt>
      <trkpt lat="49.3513" lon="3.39047">
        <ele>91</ele>
        <time>2021-08-12T07:35:10.000Z</time>
      </trkpt>
      <trkpt lat="49.35125" lon="3.39047">
        <ele>91.400001525879</ele>
        <time>2021-08-12T07:35:11.000Z</time>
      </trkpt>
      <trkpt lat="49.35106" lon="3.39051">
        <ele>92.800003051758</ele>
        <time>2021-08-12T07:35:16.000Z</time>
      </trkpt>
      <trkpt lat="49.35092" lon="3.39051">
        <ele>93</ele>
        <time>2021-08-12T07:35:20.000Z</time>
      </trkpt>
      <trkpt lat="49.35076" lon="3.3905">
        <ele>92.599998474121</ele>
        <time>2021-08-12T07:35:24.000Z</time>
      </trkpt>
      <trkpt lat="49.35055" lon="3.39054">
        <ele>92.199996948242</ele>
        <time>2021-08-12T07:35:29.000Z</time>
      </trkpt>
      <trkpt lat="49.35039" lon="3.39052">
        <ele>92.400001525879</ele>
        <time>2021-08-12T07:35:34.000Z</time>
      </trkpt>
      <trkpt lat="49.35028" lon="3.39047">
        <ele>92.599998474121</ele>
        <time>2021-08-12T07:35:38.000Z</time>
      </trkpt>
      <trkpt lat="49.35026" lon="3.39046">
        <ele>92.599998474121</ele>
        <time>2021-08-12T07:35:39.000Z</time>
      </trkpt>
      <trkpt lat="49.35021" lon="3.3904">
        <ele>93</ele>
        <time>2021-08-12T07:35:41.000Z</time>
      </trkpt>
      <trkpt lat="49.35007" lon="3.39031">
        <ele>94.599998474121</ele>
        <time>2021-08-12T07:35:45.000Z</time>
      </trkpt>
      <trkpt lat="49.3499" lon="3.39038">
        <ele>96</ele>
        <time>2021-08-12T07:35:50.000Z</time>
      </trkpt>
      <trkpt lat="49.34977" lon="3.39047">
        <ele>96.599998474121</ele>
        <time>2021-08-12T07:35:56.000Z</time>
      </trkpt>
      <trkpt lat="49.3496" lon="3.3905">
        <ele>96.800003051758</ele>
        <time>2021-08-12T07:36:02.000Z</time>
      </trkpt>
      <trkpt lat="49.34946" lon="3.39054">
        <ele>97</ele>
        <time>2021-08-12T07:36:08.000Z</time>
      </trkpt>
      <trkpt lat="49.34929" lon="3.39064">
        <ele>97.400001525879</ele>
        <time>2021-08-12T07:36:15.000Z</time>
      </trkpt>
      <trkpt lat="49.34919" lon="3.3907">
        <ele>97</ele>
        <time>2021-08-12T07:36:21.000Z</time>
      </trkpt>
      <trkpt lat="49.34906" lon="3.39076">
        <ele>96.400001525879</ele>
        <time>2021-08-12T07:36:28.000Z</time>
      </trkpt>
      <trkpt lat="49.34889" lon="3.3908">
        <ele>95.199996948242</ele>
        <time>2021-08-12T07:36:36.000Z</time>
      </trkpt>
      <trkpt lat="49.34877" lon="3.3908">
        <ele>94.800003051758</ele>
        <time>2021-08-12T07:36:42.000Z</time>
      </trkpt>
      <trkpt lat="49.3486" lon="3.39078">
        <ele>94</ele>
        <time>2021-08-12T07:36:50.000Z</time>
      </trkpt>
      <trkpt lat="49.34844" lon="3.39074">
        <ele>93.800003051758</ele>
        <time>2021-08-12T07:36:56.000Z</time>
      </trkpt>
      <trkpt lat="49.3481" lon="3.39069">
        <ele>94.599998474121</ele>
        <time>2021-08-12T07:37:04.000Z</time>
      </trkpt>
      <trkpt lat="49.34786" lon="3.39074">
        <ele>94.400001525879</ele>
        <time>2021-08-12T07:37:11.000Z</time>
      </trkpt>
      <trkpt lat="49.34767" lon="3.39079">
        <ele>93.599998474121</ele>
        <time>2021-08-12T07:37:15.000Z</time>
      </trkpt>
      <trkpt lat="49.34732" lon="3.39086">
        <ele>91.599998474121</ele>
        <time>2021-08-12T07:37:20.000Z</time>
      </trkpt>
      <trkpt lat="49.34716" lon="3.39092">
        <ele>91.599998474121</ele>
        <time>2021-08-12T07:37:23.000Z</time>
      </trkpt>
      <trkpt lat="49.34712" lon="3.39095">
        <ele>91.599998474121</ele>
        <time>2021-08-12T07:37:24.000Z</time>
      </trkpt>
      <trkpt lat="49.34692" lon="3.39102">
        <ele>93.599998474121</ele>
        <time>2021-08-12T07:37:30.000Z</time>
      </trkpt>
      <trkpt lat="49.3468" lon="3.39108">
        <ele>94</ele>
        <time>2021-08-12T07:37:35.000Z</time>
      </trkpt>
      <trkpt lat="49.34659" lon="3.39115">
        <ele>94.599998474121</ele>
        <time>2021-08-12T07:37:41.000Z</time>
      </trkpt>
      <trkpt lat="49.34636" lon="3.39133">
        <ele>96.800003051758</ele>
        <time>2021-08-12T07:37:48.000Z</time>
      </trkpt>
      <trkpt lat="49.34625" lon="3.39142">
        <ele>98.400001525879</ele>
        <time>2021-08-12T07:37:52.000Z</time>
      </trkpt>
      <trkpt lat="49.34613" lon="3.39154">
        <ele>100.19999694824</ele>
        <time>2021-08-12T07:37:57.000Z</time>
      </trkpt>
      <trkpt lat="49.34601" lon="3.39163">
        <ele>101.19999694824</ele>
        <time>2021-08-12T07:38:01.000Z</time>
      </trkpt>
      <trkpt lat="49.34585" lon="3.39168">
        <ele>102</ele>
        <time>2021-08-12T07:38:06.000Z</time>
      </trkpt>
      <trkpt lat="49.3457" lon="3.39161">
        <ele>102.59999847412</ele>
        <time>2021-08-12T07:38:10.000Z</time>
      </trkpt>
      <trkpt lat="49.34568" lon="3.39156">
        <ele>102.59999847412</ele>
        <time>2021-08-12T07:38:11.000Z</time>
      </trkpt>
      <trkpt lat="49.34567" lon="3.39145">
        <ele>102.19999694824</ele>
        <time>2021-08-12T07:38:13.000Z</time>
      </trkpt>
      <trkpt lat="49.34559" lon="3.39114">
        <ele>101.59999847412</ele>
        <time>2021-08-12T07:38:17.000Z</time>
      </trkpt>
      <trkpt lat="49.34555" lon="3.39093">
        <ele>101.59999847412</ele>
        <time>2021-08-12T07:38:20.000Z</time>
      </trkpt>
      <trkpt lat="49.3455" lon="3.39081">
        <ele>102.19999694824</ele>
        <time>2021-08-12T07:38:22.000Z</time>
      </trkpt>
      <trkpt lat="49.34545" lon="3.39064">
        <ele>103</ele>
        <time>2021-08-12T07:38:26.000Z</time>
      </trkpt>
      <trkpt lat="49.34545" lon="3.3906">
        <ele>103</ele>
        <time>2021-08-12T07:38:27.000Z</time>
      </trkpt>
      <trkpt lat="49.34545" lon="3.39057">
        <ele>102.80000305176</ele>
        <time>2021-08-12T07:38:28.000Z</time>
      </trkpt>
      <trkpt lat="49.34548" lon="3.39046">
        <ele>102.59999847412</ele>
        <time>2021-08-12T07:38:30.000Z</time>
      </trkpt>
      <trkpt lat="49.34553" lon="3.39026">
        <ele>101.59999847412</ele>
        <time>2021-08-12T07:38:34.000Z</time>
      </trkpt>
      <trkpt lat="49.34561" lon="3.39007">
        <ele>100.59999847412</ele>
        <time>2021-08-12T07:38:38.000Z</time>
      </trkpt>
      <trkpt lat="49.34568" lon="3.38998">
        <ele>99.599998474121</ele>
        <time>2021-08-12T07:38:40.000Z</time>
      </trkpt>
      <trkpt lat="49.3457" lon="3.38992">
        <ele>99.199996948242</ele>
        <time>2021-08-12T07:38:41.000Z</time>
      </trkpt>
      <trkpt lat="49.34572" lon="3.38984">
        <ele>99</ele>
        <time>2021-08-12T07:38:42.000Z</time>
      </trkpt>
      <trkpt lat="49.34576" lon="3.38969">
        <ele>98.400001525879</ele>
        <time>2021-08-12T07:38:44.000Z</time>
      </trkpt>
      <trkpt lat="49.34585" lon="3.38938">
        <ele>98.400001525879</ele>
        <time>2021-08-12T07:38:48.000Z</time>
      </trkpt>
      <trkpt lat="49.34588" lon="3.38931">
        <ele>98.199996948242</ele>
        <time>2021-08-12T07:38:49.000Z</time>
      </trkpt>
      <trkpt lat="49.34593" lon="3.3892">
        <ele>98</ele>
        <time>2021-08-12T07:38:51.000Z</time>
      </trkpt>
      <trkpt lat="49.34599" lon="3.38911">
        <ele>98</ele>
        <time>2021-08-12T07:38:53.000Z</time>
      </trkpt>
      <trkpt lat="49.34606" lon="3.38901">
        <ele>97.199996948242</ele>
        <time>2021-08-12T07:38:55.000Z</time>
      </trkpt>
      <trkpt lat="49.34613" lon="3.38894">
        <ele>96.199996948242</ele>
        <time>2021-08-12T07:38:57.000Z</time>
      </trkpt>
      <trkpt lat="49.34625" lon="3.38889">
        <ele>95</ele>
        <time>2021-08-12T07:39:01.000Z</time>
      </trkpt>
      <trkpt lat="49.34633" lon="3.38885">
        <ele>94.199996948242</ele>
        <time>2021-08-12T07:39:03.000Z</time>
      </trkpt>
      <trkpt lat="49.34641" lon="3.38879">
        <ele>93.199996948242</ele>
        <time>2021-08-12T07:39:05.000Z</time>
      </trkpt>
      <trkpt lat="49.34645" lon="3.38876">
        <ele>92.800003051758</ele>
        <time>2021-08-12T07:39:06.000Z</time>
      </trkpt>
      <trkpt lat="49.34656" lon="3.38865">
        <ele>92.199996948242</ele>
        <time>2021-08-12T07:39:09.000Z</time>
      </trkpt>
      <trkpt lat="49.34668" lon="3.38856">
        <ele>91.599998474121</ele>
        <time>2021-08-12T07:39:13.000Z</time>
      </trkpt>
      <trkpt lat="49.34678" lon="3.38849">
        <ele>91.199996948242</ele>
        <time>2021-08-12T07:39:16.000Z</time>
      </trkpt>
      <trkpt lat="49.3468" lon="3.38846">
        <ele>91</ele>
        <time>2021-08-12T07:39:17.000Z</time>
      </trkpt>
      <trkpt lat="49.34696" lon="3.3884">
        <ele>89.599998474121</ele>
        <time>2021-08-12T07:39:23.000Z</time>
      </trkpt>
      <trkpt lat="49.34708" lon="3.38836">
        <ele>88.800003051758</ele>
        <time>2021-08-12T07:39:29.000Z</time>
      </trkpt>
      <trkpt lat="49.34713" lon="3.38832">
        <ele>88.400001525879</ele>
        <time>2021-08-12T07:39:31.000Z</time>
      </trkpt>
      <trkpt lat="49.34715" lon="3.3883">
        <ele>88.199996948242</ele>
        <time>2021-08-12T07:39:32.000Z</time>
      </trkpt>
      <trkpt lat="49.34726" lon="3.38821">
        <ele>87.400001525879</ele>
        <time>2021-08-12T07:39:36.000Z</time>
      </trkpt>
      <trkpt lat="49.34742" lon="3.38817">
        <ele>86.199996948242</ele>
        <time>2021-08-12T07:39:40.000Z</time>
      </trkpt>
      <trkpt lat="49.3476" lon="3.38812">
        <ele>85.199996948242</ele>
        <time>2021-08-12T07:39:44.000Z</time>
      </trkpt>
      <trkpt lat="49.34769" lon="3.38816">
        <ele>84.599998474121</ele>
        <time>2021-08-12T07:39:46.000Z</time>
      </trkpt>
      <trkpt lat="49.34779" lon="3.38823">
        <ele>84</ele>
        <time>2021-08-12T07:39:48.000Z</time>
      </trkpt>
      <trkpt lat="49.34804" lon="3.3884">
        <ele>82.400001525879</ele>
        <time>2021-08-12T07:39:54.000Z</time>
      </trkpt>
      <trkpt lat="49.34818" lon="3.38842">
        <ele>81.599998474121</ele>
        <time>2021-08-12T07:39:57.000Z</time>
      </trkpt>
      <trkpt lat="49.34829" lon="3.38841">
        <ele>81.199996948242</ele>
        <time>2021-08-12T07:39:59.000Z</time>
      </trkpt>
      <trkpt lat="49.34838" lon="3.38839">
        <ele>81</ele>
        <time>2021-08-12T07:40:01.000Z</time>
      </trkpt>
      <trkpt lat="49.34847" lon="3.38835">
        <ele>81.599998474121</ele>
        <time>2021-08-12T07:40:03.000Z</time>
      </trkpt>
      <trkpt lat="49.34851" lon="3.38832">
        <ele>81.800003051758</ele>
        <time>2021-08-12T07:40:04.000Z</time>
      </trkpt>
      <trkpt lat="49.34855" lon="3.38829">
        <ele>82.199996948242</ele>
        <time>2021-08-12T07:40:05.000Z</time>
      </trkpt>
      <trkpt lat="49.34866" lon="3.38818">
        <ele>82.800003051758</ele>
        <time>2021-08-12T07:40:08.000Z</time>
      </trkpt>
      <trkpt lat="49.34884" lon="3.38802">
        <ele>84</ele>
        <time>2021-08-12T07:40:13.000Z</time>
      </trkpt>
      <trkpt lat="49.34895" lon="3.38791">
        <ele>84.800003051758</ele>
        <time>2021-08-12T07:40:16.000Z</time>
      </trkpt>
      <trkpt lat="49.34908" lon="3.38783">
        <ele>85</ele>
        <time>2021-08-12T07:40:19.000Z</time>
      </trkpt>
      <trkpt lat="49.34924" lon="3.38773">
        <ele>85</ele>
        <time>2021-08-12T07:40:23.000Z</time>
      </trkpt>
      <trkpt lat="49.34933" lon="3.38769">
        <ele>85.199996948242</ele>
        <time>2021-08-12T07:40:25.000Z</time>
      </trkpt>
      <trkpt lat="49.34955" lon="3.38756">
        <ele>84.800003051758</ele>
        <time>2021-08-12T07:40:31.000Z</time>
      </trkpt>
      <trkpt lat="49.3497" lon="3.3875">
        <ele>84.800003051758</ele>
        <time>2021-08-12T07:40:35.000Z</time>
      </trkpt>
      <trkpt lat="49.34983" lon="3.38741">
        <ele>84.800003051758</ele>
        <time>2021-08-12T07:40:39.000Z</time>
      </trkpt>
      <trkpt lat="49.34995" lon="3.3873">
        <ele>85.199996948242</ele>
        <time>2021-08-12T07:40:44.000Z</time>
      </trkpt>
      <trkpt lat="49.35006" lon="3.38723">
        <ele>85</ele>
        <time>2021-08-12T07:40:49.000Z</time>
      </trkpt>
      <trkpt lat="49.35019" lon="3.38715">
        <ele>84.599998474121</ele>
        <time>2021-08-12T07:40:53.000Z</time>
      </trkpt>
      <trkpt lat="49.35034" lon="3.38709">
        <ele>83.599998474121</ele>
        <time>2021-08-12T07:40:58.000Z</time>
      </trkpt>
      <trkpt lat="49.35054" lon="3.38707">
        <ele>82.800003051758</ele>
        <time>2021-08-12T07:41:03.000Z</time>
      </trkpt>
      <trkpt lat="49.35059" lon="3.38705">
        <ele>82.800003051758</ele>
        <time>2021-08-12T07:41:04.000Z</time>
      </trkpt>
      <trkpt lat="49.35069" lon="3.38701">
        <ele>82.599998474121</ele>
        <time>2021-08-12T07:41:06.000Z</time>
      </trkpt>
      <trkpt lat="49.35079" lon="3.387">
        <ele>82.599998474121</ele>
        <time>2021-08-12T07:41:08.000Z</time>
      </trkpt>
      <trkpt lat="49.3511" lon="3.38695">
        <ele>80.599998474121</ele>
        <time>2021-08-12T07:41:13.000Z</time>
      </trkpt>
      <trkpt lat="49.35117" lon="3.38694">
        <ele>80.400001525879</ele>
        <time>2021-08-12T07:41:14.000Z</time>
      </trkpt>
      <trkpt lat="49.35137" lon="3.38687">
        <ele>80</ele>
        <time>2021-08-12T07:41:17.000Z</time>
      </trkpt>
      <trkpt lat="49.35155" lon="3.3868">
        <ele>79.800003051758</ele>
        <time>2021-08-12T07:41:20.000Z</time>
      </trkpt>
      <trkpt lat="49.35163" lon="3.3867">
        <ele>80.599998474121</ele>
        <time>2021-08-12T07:41:22.000Z</time>
      </trkpt>
      <trkpt lat="49.35164" lon="3.38656">
        <ele>81</ele>
        <time>2021-08-12T07:41:24.000Z</time>
      </trkpt>
      <trkpt lat="49.35164" lon="3.38649">
        <ele>81</ele>
        <time>2021-08-12T07:41:25.000Z</time>
      </trkpt>
      <trkpt lat="49.35161" lon="3.38606">
        <ele>81</ele>
        <time>2021-08-12T07:41:32.000Z</time>
      </trkpt>
      <trkpt lat="49.35165" lon="3.38579">
        <ele>80.800003051758</ele>
        <time>2021-08-12T07:41:38.000Z</time>
      </trkpt>
      <trkpt lat="49.35177" lon="3.3857">
        <ele>80</ele>
        <time>2021-08-12T07:41:43.000Z</time>
      </trkpt>
      <trkpt lat="49.35195" lon="3.38562">
        <ele>79.3</ele>
      </trkpt>
      <trkpt lat="49.35188" lon="3.38539">
        <ele>78.800003051758</ele>
        <time>2021-08-12T07:42:17.000Z</time>
      </trkpt>
      <trkpt lat="49.35184" lon="3.38516">
        <ele>78.800003051758</ele>
        <time>2021-08-12T07:42:24.000Z</time>
      </trkpt>
      <trkpt lat="49.35181" lon="3.38501">
        <ele>79.599998474121</ele>
        <time>2021-08-12T07:42:29.000Z</time>
      </trkpt>
      <trkpt lat="49.35178" lon="3.38484">
        <ele>80.800003051758</ele>
        <time>2021-08-12T07:42:35.000Z</time>
      </trkpt>
      <trkpt lat="49.35177" lon="3.38472">
        <ele>81.800003051758</ele>
        <time>2021-08-12T07:42:40.000Z</time>
      </trkpt>
      <trkpt lat="49.35176" lon="3.38452">
        <ele>83.800003051758</ele>
        <time>2021-08-12T07:42:47.000Z</time>
      </trkpt>
      <trkpt lat="49.35173" lon="3.38437">
        <ele>85.400001525879</ele>
        <time>2021-08-12T07:42:54.000Z</time>
      </trkpt>
      <trkpt lat="49.35173" lon="3.3843">
        <ele>86</ele>
        <time>2021-08-12T07:42:57.000Z</time>
      </trkpt>
      <trkpt lat="49.35177" lon="3.38427">
        <ele>86</ele>
        <time>2021-08-12T07:43:00.000Z</time>
      </trkpt>
      <trkpt lat="49.35187" lon="3.38422">
        <ele>85.400001525879</ele>
        <time>2021-08-12T07:43:06.000Z</time>
      </trkpt>
      <trkpt lat="49.3519" lon="3.38419">
        <ele>85.599998474121</ele>
        <time>2021-08-12T07:43:08.000Z</time>
      </trkpt>
      <trkpt lat="49.3519" lon="3.38413">
        <ele>86.199996948242</ele>
        <time>2021-08-12T07:43:10.000Z</time>
      </trkpt>
      <trkpt lat="49.3519" lon="3.3841">
        <ele>86.199996948242</ele>
        <time>2021-08-12T07:43:11.000Z</time>
      </trkpt>
      <trkpt lat="49.35194" lon="3.38406">
        <ele>86</ele>
        <time>2021-08-12T07:43:14.000Z</time>
      </trkpt>
      <trkpt lat="49.35205" lon="3.38403">
        <ele>84.599998474121</ele>
        <time>2021-08-12T07:43:21.000Z</time>
      </trkpt>
      <trkpt lat="49.35221" lon="3.38402">
        <ele>83</ele>
        <time>2021-08-12T07:43:29.000Z</time>
      </trkpt>
      <trkpt lat="49.35236" lon="3.38396">
        <ele>82.199996948242</ele>
        <time>2021-08-12T07:43:35.000Z</time>
      </trkpt>
      <trkpt lat="49.35255" lon="3.38396">
        <ele>81</ele>
        <time>2021-08-12T07:43:40.000Z</time>
      </trkpt>
      <trkpt lat="49.35269" lon="3.38396">
        <ele>80.400001525879</ele>
        <time>2021-08-12T07:43:43.000Z</time>
      </trkpt>
      <trkpt lat="49.35277" lon="3.38395">
        <ele>80.400001525879</ele>
        <time>2021-08-12T07:43:45.000Z</time>
      </trkpt>
      <trkpt lat="49.35281" lon="3.38394">
        <ele>80.599998474121</ele>
        <time>2021-08-12T07:43:47.000Z</time>
      </trkpt>
      <trkpt lat="49.35282" lon="3.38389">
        <ele>80.599998474121</ele>
        <time>2021-08-12T07:43:49.000Z</time>
      </trkpt>
      <trkpt lat="49.35283" lon="3.3837">
        <ele>81.199996948242</ele>
        <time>2021-08-12T07:43:55.000Z</time>
      </trkpt>
      <trkpt lat="49.35286" lon="3.38337">
        <ele>82.8</ele>
      </trkpt>
      <trkpt lat="49.35319" lon="3.38352">
        <ele>81.199996948242</ele>
        <time>2021-08-12T07:48:11.000Z</time>
      </trkpt>
      <trkpt lat="49.35331" lon="3.38362">
        <ele>81</ele>
        <time>2021-08-12T07:48:16.000Z</time>
      </trkpt>
      <trkpt lat="49.35334" lon="3.38362">
        <ele>81</ele>
        <time>2021-08-12T07:48:17.000Z</time>
      </trkpt>
      <trkpt lat="49.35341" lon="3.38354">
        <ele>80.599998474121</ele>
        <time>2021-08-12T07:48:20.000Z</time>
      </trkpt>
      <trkpt lat="49.35361" lon="3.38334">
        <ele>80</ele>
        <time>2021-08-12T07:48:26.000Z</time>
      </trkpt>
      <trkpt lat="49.35388" lon="3.3831">
        <ele>77.400001525879</ele>
        <time>2021-08-12T07:48:33.000Z</time>
      </trkpt>
      <trkpt lat="49.35407" lon="3.38294">
        <ele>75.800003051758</ele>
        <time>2021-08-12T07:48:40.000Z</time>
      </trkpt>
      <trkpt lat="49.35414" lon="3.38278">
        <ele>75</ele>
        <time>2021-08-12T07:48:44.000Z</time>
      </trkpt>
      <trkpt lat="49.35422" lon="3.38248">
        <ele>73.800003051758</ele>
        <time>2021-08-12T07:48:50.000Z</time>
      </trkpt>
      <trkpt lat="49.35435" lon="3.38215">
        <ele>73.199996948242</ele>
        <time>2021-08-12T07:48:57.000Z</time>
      </trkpt>
      <trkpt lat="49.35439" lon="3.38205">
        <ele>73</ele>
        <time>2021-08-12T07:49:01.000Z</time>
      </trkpt>
      <trkpt lat="49.35432" lon="3.38197">
        <ele>73.199996948242</ele>
        <time>2021-08-12T07:49:05.000Z</time>
      </trkpt>
      <trkpt lat="49.35422" lon="3.38188">
        <ele>73.800003051758</ele>
        <time>2021-08-12T07:49:10.000Z</time>
      </trkpt>
      <trkpt lat="49.35406" lon="3.3817">
        <ele>74.800003051758</ele>
        <time>2021-08-12T07:49:17.000Z</time>
      </trkpt>
      <trkpt lat="49.35388" lon="3.38152">
        <ele>75</ele>
        <time>2021-08-12T07:49:24.000Z</time>
      </trkpt>
      <trkpt lat="49.35365" lon="3.38126">
        <ele>75.800003051758</ele>
        <time>2021-08-12T07:49:33.000Z</time>
      </trkpt>
      <trkpt lat="49.35345" lon="3.38103">
        <ele>76.400001525879</ele>
        <time>2021-08-12T07:49:41.000Z</time>
      </trkpt>
      <trkpt lat="49.35324" lon="3.38077">
        <ele>77.400001525879</ele>
        <time>2021-08-12T07:49:50.000Z</time>
      </trkpt>
      <trkpt lat="49.35297" lon="3.38047">
        <ele>79</ele>
        <time>2021-08-12T07:50:01.000Z</time>
      </trkpt>
      <trkpt lat="49.3527" lon="3.38018">
        <ele>79.199996948242</ele>
        <time>2021-08-12T07:50:11.000Z</time>
      </trkpt>
      <trkpt lat="49.35248" lon="3.37991">
        <ele>80.400001525879</ele>
        <time>2021-08-12T07:50:18.000Z</time>
      </trkpt>
      <trkpt lat="49.35227" lon="3.37961">
        <ele>83.199996948242</ele>
        <time>2021-08-12T07:50:24.000Z</time>
      </trkpt>
      <trkpt lat="49.35205" lon="3.37935">
        <ele>87.800003051758</ele>
        <time>2021-08-12T07:50:30.000Z</time>
      </trkpt>
      <trkpt lat="49.35182" lon="3.3791">
        <ele>90.199996948242</ele>
        <time>2021-08-12T07:50:36.000Z</time>
      </trkpt>
      <trkpt lat="49.35165" lon="3.37888">
        <ele>90.599998474121</ele>
        <time>2021-08-12T07:50:41.000Z</time>
      </trkpt>
      <trkpt lat="49.35158" lon="3.37877">
        <ele>90.800003051758</ele>
        <time>2021-08-12T07:50:43.000Z</time>
      </trkpt>
      <trkpt lat="49.35151" lon="3.37861">
        <ele>90.400001525879</ele>
        <time>2021-08-12T07:50:46.000Z</time>
      </trkpt>
      <trkpt lat="49.35141" lon="3.37833">
        <ele>91</ele>
        <time>2021-08-12T07:50:51.000Z</time>
      </trkpt>
      <trkpt lat="49.3513" lon="3.37808">
        <ele>92.800003051758</ele>
        <time>2021-08-12T07:50:57.000Z</time>
      </trkpt>
      <trkpt lat="49.35125" lon="3.37799">
        <ele>93.599998474121</ele>
        <time>2021-08-12T07:51:02.000Z</time>
      </trkpt>
      <trkpt lat="49.35118" lon="3.37787">
        <ele>95</ele>
        <time>2021-08-12T07:51:08.000Z</time>
      </trkpt>
      <trkpt lat="49.35113" lon="3.37773">
        <ele>95.800003051758</ele>
        <time>2021-08-12T07:51:13.000Z</time>
      </trkpt>
      <trkpt lat="49.3511" lon="3.37769">
        <ele>96</ele>
        <time>2021-08-12T07:51:15.000Z</time>
      </trkpt>
      <trkpt lat="49.35104" lon="3.37764">
        <ele>96.400001525879</ele>
        <time>2021-08-12T07:51:18.000Z</time>
      </trkpt>
      <trkpt lat="49.35089" lon="3.3776">
        <ele>97.199996948242</ele>
        <time>2021-08-12T07:51:24.000Z</time>
      </trkpt>
      <trkpt lat="49.35084" lon="3.3776">
        <ele>97.199996948242</ele>
        <time>2021-08-12T07:51:26.000Z</time>
      </trkpt>
      <trkpt lat="49.35078" lon="3.37761">
        <ele>97.400001525879</ele>
        <time>2021-08-12T07:51:29.000Z</time>
      </trkpt>
      <trkpt lat="49.35074" lon="3.37762">
        <ele>97.400001525879</ele>
        <time>2021-08-12T07:51:31.000Z</time>
      </trkpt>
      <trkpt lat="49.35072" lon="3.37765">
        <ele>97.400001525879</ele>
        <time>2021-08-12T07:51:34.000Z</time>
      </trkpt>
      <trkpt lat="49.35075" lon="3.37761">
        <ele>97.400001525879</ele>
        <time>2021-08-12T07:51:41.000Z</time>
      </trkpt>
      <trkpt lat="49.3508" lon="3.37757">
        <ele>97.400001525879</ele>
        <time>2021-08-12T07:51:43.000Z</time>
      </trkpt>
      <trkpt lat="49.35081" lon="3.37755">
        <ele>97.199996948242</ele>
        <time>2021-08-12T07:51:44.000Z</time>
      </trkpt>
      <trkpt lat="49.35078" lon="3.3775">
        <ele>97</ele>
        <time>2021-08-12T07:51:46.000Z</time>
      </trkpt>
      <trkpt lat="49.35065" lon="3.37742">
        <ele>96</ele>
        <time>2021-08-12T07:51:51.000Z</time>
      </trkpt>
      <trkpt lat="49.35047" lon="3.37734">
        <ele>94.599998474121</ele>
        <time>2021-08-12T07:51:55.000Z</time>
      </trkpt>
      <trkpt lat="49.35043" lon="3.37733">
        <ele>94.400001525879</ele>
        <time>2021-08-12T07:51:56.000Z</time>
      </trkpt>
      <trkpt lat="49.35022" lon="3.37725">
        <ele>93.800003051758</ele>
        <time>2021-08-12T07:52:00.000Z</time>
      </trkpt>
      <trkpt lat="49.35001" lon="3.37711">
        <ele>92.800003051758</ele>
        <time>2021-08-12T07:52:05.000Z</time>
      </trkpt>
      <trkpt lat="49.3498" lon="3.37693">
        <ele>92.599998474121</ele>
        <time>2021-08-12T07:52:12.000Z</time>
      </trkpt>
      <trkpt lat="49.34964" lon="3.37678">
        <ele>93.400001525879</ele>
        <time>2021-08-12T07:52:18.000Z</time>
      </trkpt>
      <trkpt lat="49.34957" lon="3.37669">
        <ele>93.599998474121</ele>
        <time>2021-08-12T07:52:22.000Z</time>
      </trkpt>
      <trkpt lat="49.34951" lon="3.37664">
        <ele>94</ele>
        <time>2021-08-12T07:52:31.000Z</time>
      </trkpt>
      <trkpt lat="49.34939" lon="3.37653">
        <ele>94.400001525879</ele>
        <time>2021-08-12T07:52:37.000Z</time>
      </trkpt>
      <trkpt lat="49.34929" lon="3.37646">
        <ele>94.599998474121</ele>
        <time>2021-08-12T07:52:41.000Z</time>
      </trkpt>
      <trkpt lat="49.34913" lon="3.37636">
        <ele>95</ele>
        <time>2021-08-12T07:52:46.000Z</time>
      </trkpt>
      <trkpt lat="49.349" lon="3.37625">
        <ele>96</ele>
        <time>2021-08-12T07:52:51.000Z</time>
      </trkpt>
      <trkpt lat="49.34887" lon="3.37615">
        <ele>97</ele>
        <time>2021-08-12T07:52:56.000Z</time>
      </trkpt>
      <trkpt lat="49.34884" lon="3.37614">
        <ele>97.199996948242</ele>
        <time>2021-08-12T07:52:57.000Z</time>
      </trkpt>
      <trkpt lat="49.34876" lon="3.37608">
        <ele>97.599998474121</ele>
        <time>2021-08-12T07:53:00.000Z</time>
      </trkpt>
      <trkpt lat="49.3487" lon="3.37597">
        <ele>97.599998474121</ele>
        <time>2021-08-12T07:53:04.000Z</time>
      </trkpt>
      <trkpt lat="49.34867" lon="3.37591">
        <ele>97.599998474121</ele>
        <time>2021-08-12T07:53:05.000Z</time>
      </trkpt>
      <trkpt lat="49.3485" lon="3.37577">
        <ele>98.599998474121</ele>
        <time>2021-08-12T07:53:10.000Z</time>
      </trkpt>
      <trkpt lat="49.34833" lon="3.37562">
        <ele>99.800003051758</ele>
        <time>2021-08-12T07:53:16.000Z</time>
      </trkpt>
      <trkpt lat="49.34825" lon="3.37543">
        <ele>100.80000305176</ele>
        <time>2021-08-12T07:53:21.000Z</time>
      </trkpt>
      <trkpt lat="49.34818" lon="3.37527">
        <ele>102</ele>
        <time>2021-08-12T07:53:26.000Z</time>
      </trkpt>
      <trkpt lat="49.3481" lon="3.37511">
        <ele>103</ele>
        <time>2021-08-12T07:53:31.000Z</time>
      </trkpt>
      <trkpt lat="49.34804" lon="3.37494">
        <ele>103.59999847412</ele>
        <time>2021-08-12T07:53:37.000Z</time>
      </trkpt>
      <trkpt lat="49.34799" lon="3.37487">
        <ele>104.59999847412</ele>
        <time>2021-08-12T07:53:41.000Z</time>
      </trkpt>
      <trkpt lat="49.34797" lon="3.37485">
        <ele>105</ele>
        <time>2021-08-12T07:53:42.000Z</time>
      </trkpt>
      <trkpt lat="49.34789" lon="3.37477">
        <ele>107.19999694824</ele>
        <time>2021-08-12T07:53:48.000Z</time>
      </trkpt>
      <trkpt lat="49.34781" lon="3.37463">
        <ele>108.59999847412</ele>
        <time>2021-08-12T07:53:54.000Z</time>
      </trkpt>
      <trkpt lat="49.34675" lon="3.37212">
        <ele>133.60000610352</ele>
        <time>2021-08-12T07:56:25.000Z</time>
      </trkpt>
      <trkpt lat="49.34673" lon="3.37205">
        <ele>133.60000610352</ele>
        <time>2021-08-12T07:56:28.000Z</time>
      </trkpt>
      <trkpt lat="49.34671" lon="3.37195">
        <ele>133.80000305176</ele>
        <time>2021-08-12T07:56:33.000Z</time>
      </trkpt>
      <trkpt lat="49.34669" lon="3.37193">
        <ele>134</ele>
        <time>2021-08-12T07:56:34.000Z</time>
      </trkpt>
      <trkpt lat="49.34667" lon="3.37187">
        <ele>134.39999389648</ele>
        <time>2021-08-12T07:56:37.000Z</time>
      </trkpt>
      <trkpt lat="49.34666" lon="3.37183">
        <ele>134.60000610352</ele>
        <time>2021-08-12T07:56:39.000Z</time>
      </trkpt>
      <trkpt lat="49.34664" lon="3.37172">
        <ele>134.80000305176</ele>
        <time>2021-08-12T07:56:44.000Z</time>
      </trkpt>
      <trkpt lat="49.34657" lon="3.37147">
        <ele>136</ele>
        <time>2021-08-12T07:56:52.000Z</time>
      </trkpt>
      <trkpt lat="49.34654" lon="3.37135">
        <ele>136.60000610352</ele>
        <time>2021-08-12T07:56:57.000Z</time>
      </trkpt>
      <trkpt lat="49.3465" lon="3.3712">
        <ele>136.80000305176</ele>
        <time>2021-08-12T07:57:03.000Z</time>
      </trkpt>
      <trkpt lat="49.34643" lon="3.37106">
        <ele>137.60000610352</ele>
        <time>2021-08-12T07:57:09.000Z</time>
      </trkpt>
      <trkpt lat="49.34639" lon="3.37094">
        <ele>137.39999389648</ele>
        <time>2021-08-12T07:57:14.000Z</time>
      </trkpt>
      <trkpt lat="49.34636" lon="3.37087">
        <ele>137.39999389648</ele>
        <time>2021-08-12T07:57:17.000Z</time>
      </trkpt>
      <trkpt lat="49.34632" lon="3.37069">
        <ele>137.39999389648</ele>
        <time>2021-08-12T07:57:24.000Z</time>
      </trkpt>
      <trkpt lat="49.34631" lon="3.37064">
        <ele>137.39999389648</ele>
        <time>2021-08-12T07:57:26.000Z</time>
      </trkpt>
      <trkpt lat="49.34626" lon="3.3705">
        <ele>138.19999694824</ele>
        <time>2021-08-12T07:57:32.000Z</time>
      </trkpt>
      <trkpt lat="49.34624" lon="3.37045">
        <ele>138.60000610352</ele>
        <time>2021-08-12T07:57:34.000Z</time>
      </trkpt>
      <trkpt lat="49.34622" lon="3.3704">
        <ele>138.80000305176</ele>
        <time>2021-08-12T07:57:37.000Z</time>
      </trkpt>
      <trkpt lat="49.34619" lon="3.3703">
        <ele>139.19999694824</ele>
        <time>2021-08-12T07:57:42.000Z</time>
      </trkpt>
      <trkpt lat="49.34615" lon="3.37018">
        <ele>139.80000305176</ele>
        <time>2021-08-12T07:57:49.000Z</time>
      </trkpt>
      <trkpt lat="49.34612" lon="3.37006">
        <ele>140.39999389648</ele>
        <time>2021-08-12T07:57:54.000Z</time>
      </trkpt>
      <trkpt lat="49.34607" lon="3.36996">
        <ele>141</ele>
        <time>2021-08-12T07:57:59.000Z</time>
      </trkpt>
      <trkpt lat="49.34606" lon="3.36989">
        <ele>140.80000305176</ele>
        <time>2021-08-12T07:58:02.000Z</time>
      </trkpt>
      <trkpt lat="49.34597" lon="3.36963">
        <ele>140.80000305176</ele>
        <time>2021-08-12T07:58:14.000Z</time>
      </trkpt>
      <trkpt lat="49.34595" lon="3.36961">
        <ele>140.80000305176</ele>
        <time>2021-08-12T07:58:15.000Z</time>
      </trkpt>
      <trkpt lat="49.34587" lon="3.36951">
        <ele>141.39999389648</ele>
        <time>2021-08-12T07:58:21.000Z</time>
      </trkpt>
      <trkpt lat="49.34578" lon="3.36936">
        <ele>142</ele>
        <time>2021-08-12T07:58:30.000Z</time>
      </trkpt>
      <trkpt lat="49.34574" lon="3.36926">
        <ele>142.60000610352</ele>
        <time>2021-08-12T07:58:36.000Z</time>
      </trkpt>
      <trkpt lat="49.34573" lon="3.36923">
        <ele>142.60000610352</ele>
        <time>2021-08-12T07:58:38.000Z</time>
      </trkpt>
      <trkpt lat="49.34572" lon="3.3692">
        <ele>142.80000305176</ele>
        <time>2021-08-12T07:58:40.000Z</time>
      </trkpt>
      <trkpt lat="49.34571" lon="3.36918">
        <ele>142.80000305176</ele>
        <time>2021-08-12T07:58:41.000Z</time>
      </trkpt>
      <trkpt lat="49.34566" lon="3.36908">
        <ele>143.80000305176</ele>
        <time>2021-08-12T07:58:48.000Z</time>
      </trkpt>
      <trkpt lat="49.34561" lon="3.36895">
        <ele>145.19999694824</ele>
        <time>2021-08-12T07:58:55.000Z</time>
      </trkpt>
      <trkpt lat="49.34554" lon="3.36879">
        <ele>147</ele>
        <time>2021-08-12T07:59:04.000Z</time>
      </trkpt>
      <trkpt lat="49.34551" lon="3.36868">
        <ele>147.60000610352</ele>
        <time>2021-08-12T07:59:10.000Z</time>
      </trkpt>
      <trkpt lat="49.34551" lon="3.36866">
        <ele>147.60000610352</ele>
        <time>2021-08-12T07:59:11.000Z</time>
      </trkpt>
      <trkpt lat="49.34549" lon="3.36855">
        <ele>148</ele>
        <time>2021-08-12T07:59:16.000Z</time>
      </trkpt>
      <trkpt lat="49.34546" lon="3.36849">
        <ele>148</ele>
        <time>2021-08-12T07:59:20.000Z</time>
      </trkpt>
      <trkpt lat="49.34543" lon="3.36849">
        <ele>148</ele>
        <time>2021-08-12T07:59:22.000Z</time>
      </trkpt>
      <trkpt lat="49.34535" lon="3.36857">
        <ele>148</ele>
        <time>2021-08-12T07:59:28.000Z</time>
      </trkpt>
      <trkpt lat="49.34525" lon="3.36871">
        <ele>148</ele>
        <time>2021-08-12T07:59:36.000Z</time>
      </trkpt>
      <trkpt lat="49.34515" lon="3.36884">
        <ele>148.19999694824</ele>
        <time>2021-08-12T07:59:42.000Z</time>
      </trkpt>
      <trkpt lat="49.34504" lon="3.36904">
        <ele>148.80000305176</ele>
        <time>2021-08-12T07:59:50.000Z</time>
      </trkpt>
      <trkpt lat="49.34492" lon="3.36927">
        <ele>149.60000610352</ele>
        <time>2021-08-12T07:59:58.000Z</time>
      </trkpt>
      <trkpt lat="49.34483" lon="3.36946">
        <ele>149.80000305176</ele>
        <time>2021-08-12T08:00:05.000Z</time>
      </trkpt>
      <trkpt lat="49.34475" lon="3.36967">
        <ele>150.19999694824</ele>
        <time>2021-08-12T08:00:12.000Z</time>
      </trkpt>
      <trkpt lat="49.34467" lon="3.3699">
        <ele>150.19999694824</ele>
        <time>2021-08-12T08:00:19.000Z</time>
      </trkpt>
      <trkpt lat="49.34459" lon="3.37017">
        <ele>150.39999389648</ele>
        <time>2021-08-12T08:00:26.000Z</time>
      </trkpt>
      <trkpt lat="49.34451" lon="3.37054">
        <ele>150.19999694824</ele>
        <time>2021-08-12T08:00:34.000Z</time>
      </trkpt>
      <trkpt lat="49.34437" lon="3.37114">
        <ele>150.39999389648</ele>
        <time>2021-08-12T08:00:45.000Z</time>
      </trkpt>
      <trkpt lat="49.34427" lon="3.37158">
        <ele>151.39999389648</ele>
        <time>2021-08-12T08:00:53.000Z</time>
      </trkpt>
      <trkpt lat="49.34413" lon="3.37208">
        <ele>151.39999389648</ele>
        <time>2021-08-12T08:01:03.000Z</time>
      </trkpt>
      <trkpt lat="49.34406" lon="3.37211">
        <ele>151.19999694824</ele>
        <time>2021-08-12T08:01:05.000Z</time>
      </trkpt>
      <trkpt lat="49.34403" lon="3.37209">
        <ele>151.39999389648</ele>
        <time>2021-08-12T08:01:06.000Z</time>
      </trkpt>
      <trkpt lat="49.344" lon="3.37205">
        <ele>151.39999389648</ele>
        <time>2021-08-12T08:01:07.000Z</time>
      </trkpt>
      <trkpt lat="49.34398" lon="3.37195">
        <ele>151.80000305176</ele>
        <time>2021-08-12T08:01:09.000Z</time>
      </trkpt>
      <trkpt lat="49.34388" lon="3.37161">
        <ele>152</ele>
        <time>2021-08-12T08:01:16.000Z</time>
      </trkpt>
      <trkpt lat="49.34372" lon="3.37111">
        <ele>153.39999389648</ele>
        <time>2021-08-12T08:01:26.000Z</time>
      </trkpt>
      <trkpt lat="49.34358" lon="3.37068">
        <ele>154</ele>
        <time>2021-08-12T08:01:35.000Z</time>
      </trkpt>
      <trkpt lat="49.34345" lon="3.37035">
        <ele>154.39999389648</ele>
        <time>2021-08-12T08:01:42.000Z</time>
      </trkpt>
      <trkpt lat="49.34329" lon="3.36981">
        <ele>154.39999389648</ele>
        <time>2021-08-12T08:01:52.000Z</time>
      </trkpt>
      <trkpt lat="49.34311" lon="3.36922">
        <ele>154</ele>
        <time>2021-08-12T08:02:02.000Z</time>
      </trkpt>
      <trkpt lat="49.34291" lon="3.36859">
        <ele>155.39999389648</ele>
        <time>2021-08-12T08:02:12.000Z</time>
      </trkpt>
      <trkpt lat="49.34272" lon="3.36809">
        <ele>155.80000305176</ele>
        <time>2021-08-12T08:02:20.000Z</time>
      </trkpt>
      <trkpt lat="49.3425" lon="3.36737">
        <ele>156.80000305176</ele>
        <time>2021-08-12T08:02:31.000Z</time>
      </trkpt>
      <trkpt lat="49.34232" lon="3.36678">
        <ele>157</ele>
        <time>2021-08-12T08:02:40.000Z</time>
      </trkpt>
      <trkpt lat="49.34212" lon="3.36618">
        <ele>156.39999389648</ele>
        <time>2021-08-12T08:02:49.000Z</time>
      </trkpt>
      <trkpt lat="49.34194" lon="3.36557">
        <ele>155.19999694824</ele>
        <time>2021-08-12T08:02:57.000Z</time>
      </trkpt>
      <trkpt lat="49.34172" lon="3.36489">
        <ele>155.39999389648</ele>
        <time>2021-08-12T08:03:05.000Z</time>
      </trkpt>
      <trkpt lat="49.34145" lon="3.36409">
        <ele>154.39999389648</ele>
        <time>2021-08-12T08:03:14.000Z</time>
      </trkpt>
      <trkpt lat="49.34121" lon="3.36329">
        <ele>153.60000610352</ele>
        <time>2021-08-12T08:03:23.000Z</time>
      </trkpt>
      <trkpt lat="49.34119" lon="3.3632">
        <ele>153.39999389648</ele>
        <time>2021-08-12T08:03:24.000Z</time>
      </trkpt>
      <trkpt lat="49.34099" lon="3.36251">
        <ele>151.60000610352</ele>
        <time>2021-08-12T08:03:31.000Z</time>
      </trkpt>
      <trkpt lat="49.34075" lon="3.36193">
        <ele>149.80000305176</ele>
        <time>2021-08-12T08:03:37.000Z</time>
      </trkpt>
      <trkpt lat="49.34034" lon="3.36126">
        <ele>148.39999389648</ele>
        <time>2021-08-12T08:03:44.000Z</time>
      </trkpt>
      <trkpt lat="49.34001" lon="3.36065">
        <ele>146.60000610352</ele>
        <time>2021-08-12T08:03:50.000Z</time>
      </trkpt>
      <trkpt lat="49.33984" lon="3.36036">
        <ele>144.39999389648</ele>
        <time>2021-08-12T08:03:54.000Z</time>
      </trkpt>
      <trkpt lat="49.33966" lon="3.35991">
        <ele>140.80000305176</ele>
        <time>2021-08-12T08:04:00.000Z</time>
      </trkpt>
      <trkpt lat="49.33961" lon="3.35969">
        <ele>140.19999694824</ele>
        <time>2021-08-12T08:04:04.000Z</time>
      </trkpt>
      <trkpt lat="49.33959" lon="3.35967">
        <ele>140</ele>
        <time>2021-08-12T08:04:05.000Z</time>
      </trkpt>
      <trkpt lat="49.33956" lon="3.35967">
        <ele>139.80000305176</ele>
        <time>2021-08-12T08:04:06.000Z</time>
      </trkpt>
      <trkpt lat="49.3395" lon="3.35974">
        <ele>139</ele>
        <time>2021-08-12T08:04:08.000Z</time>
      </trkpt>
      <trkpt lat="49.33946" lon="3.35991">
        <ele>138.60000610352</ele>
        <time>2021-08-12T08:04:11.000Z</time>
      </trkpt>
      <trkpt lat="49.33945" lon="3.35997">
        <ele>138.60000610352</ele>
        <time>2021-08-12T08:04:12.000Z</time>
      </trkpt>
      <trkpt lat="49.33944" lon="3.36034">
        <ele>137.80000305176</ele>
        <time>2021-08-12T08:04:17.000Z</time>
      </trkpt>
      <trkpt lat="49.33949" lon="3.36089">
        <ele>138.19999694824</ele>
        <time>2021-08-12T08:04:24.000Z</time>
      </trkpt>
      <trkpt lat="49.3395" lon="3.36104">
        <ele>138.39999389648</ele>
        <time>2021-08-12T08:04:26.000Z</time>
      </trkpt>
      <trkpt lat="49.33951" lon="3.36132">
        <ele>139</ele>
        <time>2021-08-12T08:04:30.000Z</time>
      </trkpt>
      <trkpt lat="49.33954" lon="3.36179">
        <ele>139</ele>
        <time>2021-08-12T08:04:37.000Z</time>
      </trkpt>
      <trkpt lat="49.33954" lon="3.36228">
        <ele>138.80000305176</ele>
        <time>2021-08-12T08:04:45.000Z</time>
      </trkpt>
      <trkpt lat="49.33954" lon="3.36258">
        <ele>139.60000610352</ele>
        <time>2021-08-12T08:04:50.000Z</time>
      </trkpt>
      <trkpt lat="49.33953" lon="3.36293">
        <ele>139.80000305176</ele>
        <time>2021-08-12T08:04:56.000Z</time>
      </trkpt>
      <trkpt lat="49.33949" lon="3.36345">
        <ele>140.19999694824</ele>
        <time>2021-08-12T08:05:05.000Z</time>
      </trkpt>
      <trkpt lat="49.33945" lon="3.36394">
        <ele>141.80000305176</ele>
        <time>2021-08-12T08:05:14.000Z</time>
      </trkpt>
      <trkpt lat="49.33941" lon="3.36421">
        <ele>142.60000610352</ele>
        <time>2021-08-12T08:05:20.000Z</time>
      </trkpt>
      <trkpt lat="49.33932" lon="3.36459">
        <ele>143.80000305176</ele>
        <time>2021-08-12T08:05:28.000Z</time>
      </trkpt>
      <trkpt lat="49.33921" lon="3.36488">
        <ele>144.39999389648</ele>
        <time>2021-08-12T08:05:33.000Z</time>
      </trkpt>
      <trkpt lat="49.33917" lon="3.36498">
        <ele>144.39999389648</ele>
        <time>2021-08-12T08:05:35.000Z</time>
      </trkpt>
      <trkpt lat="49.339" lon="3.36545">
        <ele>142.80000305176</ele>
        <time>2021-08-12T08:05:44.000Z</time>
      </trkpt>
      <trkpt lat="49.33887" lon="3.3658">
        <ele>142.39999389648</ele>
        <time>2021-08-12T08:05:51.000Z</time>
      </trkpt>
      <trkpt lat="49.33881" lon="3.36606">
        <ele>143.60000610352</ele>
        <time>2021-08-12T08:05:56.000Z</time>
      </trkpt>
      <trkpt lat="49.33867" lon="3.36654">
        <ele>147.39999389648</ele>
        <time>2021-08-12T08:06:05.000Z</time>
      </trkpt>
      <trkpt lat="49.33855" lon="3.36695">
        <ele>150</ele>
        <time>2021-08-12T08:06:13.000Z</time>
      </trkpt>
      <trkpt lat="49.33846" lon="3.36718">
        <ele>149.39999389648</ele>
        <time>2021-08-12T08:06:19.000Z</time>
      </trkpt>
      <trkpt lat="49.33831" lon="3.36753">
        <ele>148</ele>
        <time>2021-08-12T08:06:28.000Z</time>
      </trkpt>
      <trkpt lat="49.33823" lon="3.3678">
        <ele>147.19999694824</ele>
        <time>2021-08-12T08:06:34.000Z</time>
      </trkpt>
      <trkpt lat="49.33814" lon="3.36812">
        <ele>146</ele>
        <time>2021-08-12T08:06:41.000Z</time>
      </trkpt>
      <trkpt lat="49.33808" lon="3.36849">
        <ele>146.19999694824</ele>
        <time>2021-08-12T08:06:48.000Z</time>
      </trkpt>
      <trkpt lat="49.33806" lon="3.36893">
        <ele>146.39999389648</ele>
        <time>2021-08-12T08:06:57.000Z</time>
      </trkpt>
      <trkpt lat="49.33811" lon="3.36938">
        <ele>147</ele>
        <time>2021-08-12T08:07:06.000Z</time>
      </trkpt>
      <trkpt lat="49.33818" lon="3.36972">
        <ele>147.80000305176</ele>
        <time>2021-08-12T08:07:13.000Z</time>
      </trkpt>
      <trkpt lat="49.33821" lon="3.36998">
        <ele>147.80000305176</ele>
        <time>2021-08-12T08:07:18.000Z</time>
      </trkpt>
      <trkpt lat="49.33828" lon="3.3702">
        <ele>148</ele>
        <time>2021-08-12T08:07:22.000Z</time>
      </trkpt>
      <trkpt lat="49.33831" lon="3.37031">
        <ele>148</ele>
        <time>2021-08-12T08:07:24.000Z</time>
      </trkpt>
      <trkpt lat="49.3384" lon="3.37068">
        <ele>147.60000610352</ele>
        <time>2021-08-12T08:07:31.000Z</time>
      </trkpt>
      <trkpt lat="49.33845" lon="3.37097">
        <ele>147</ele>
        <time>2021-08-12T08:07:37.000Z</time>
      </trkpt>
      <trkpt lat="49.33853" lon="3.3712">
        <ele>147.19999694824</ele>
        <time>2021-08-12T08:07:43.000Z</time>
      </trkpt>
      <trkpt lat="49.33867" lon="3.37141">
        <ele>148.39999389648</ele>
        <time>2021-08-12T08:07:51.000Z</time>
      </trkpt>
      <trkpt lat="49.33872" lon="3.37164">
        <ele>148.80000305176</ele>
        <time>2021-08-12T08:07:57.000Z</time>
      </trkpt>
      <trkpt lat="49.33867" lon="3.37192">
        <ele>148.60000610352</ele>
        <time>2021-08-12T08:08:03.000Z</time>
      </trkpt>
      <trkpt lat="49.33865" lon="3.37197">
        <ele>148.19999694824</ele>
        <time>2021-08-12T08:08:04.000Z</time>
      </trkpt>
      <trkpt lat="49.3386" lon="3.37218">
        <ele>147.60000610352</ele>
        <time>2021-08-12T08:08:07.000Z</time>
      </trkpt>
      <trkpt lat="49.33857" lon="3.37242">
        <ele>146.19999694824</ele>
        <time>2021-08-12T08:08:10.000Z</time>
      </trkpt>
      <trkpt lat="49.33857" lon="3.3726">
        <ele>146</ele>
        <time>2021-08-12T08:08:12.000Z</time>
      </trkpt>
      <trkpt lat="49.33857" lon="3.37295">
        <ele>146.80000305176</ele>
        <time>2021-08-12T08:08:17.000Z</time>
      </trkpt>
      <trkpt lat="49.33857" lon="3.37325">
        <ele>146.19999694824</ele>
        <time>2021-08-12T08:08:23.000Z</time>
      </trkpt>
      <trkpt lat="49.33851" lon="3.37325">
        <ele>144.80000305176</ele>
        <time>2021-08-12T08:08:26.000Z</time>
      </trkpt>
      <trkpt lat="49.33841" lon="3.37305">
        <ele>143.39999389648</ele>
        <time>2021-08-12T08:08:30.000Z</time>
      </trkpt>
      <trkpt lat="49.33836" lon="3.37293">
        <ele>142.19999694824</ele>
        <time>2021-08-12T08:08:32.000Z</time>
      </trkpt>
      <trkpt lat="49.33827" lon="3.37268">
        <ele>139.80000305176</ele>
        <time>2021-08-12T08:08:36.000Z</time>
      </trkpt>
      <trkpt lat="49.33819" lon="3.37236">
        <ele>139</ele>
        <time>2021-08-12T08:08:41.000Z</time>
      </trkpt>
      <trkpt lat="49.33819" lon="3.37228">
        <ele>139</ele>
        <time>2021-08-12T08:08:42.000Z</time>
      </trkpt>
      <trkpt lat="49.33822" lon="3.37206">
        <ele>140.19999694824</ele>
        <time>2021-08-12T08:08:45.000Z</time>
      </trkpt>
      <trkpt lat="49.33825" lon="3.37194">
        <ele>141.19999694824</ele>
        <time>2021-08-12T08:08:47.000Z</time>
      </trkpt>
      <trkpt lat="49.33827" lon="3.37178">
        <ele>142.19999694824</ele>
        <time>2021-08-12T08:08:50.000Z</time>
      </trkpt>
      <trkpt lat="49.33826" lon="3.37175">
        <ele>142.19999694824</ele>
        <time>2021-08-12T08:08:51.000Z</time>
      </trkpt>
      <trkpt lat="49.33825" lon="3.37174">
        <ele>142.19999694824</ele>
        <time>2021-08-12T08:08:53.000Z</time>
      </trkpt>
      <trkpt lat="49.33826" lon="3.37179">
        <ele>142</ele>
        <time>2021-08-12T08:08:57.000Z</time>
      </trkpt>
      <trkpt lat="49.33824" lon="3.37187">
        <ele>141.39999389648</ele>
        <time>2021-08-12T08:08:59.000Z</time>
      </trkpt>
      <trkpt lat="49.33821" lon="3.37189">
        <ele>140.60000610352</ele>
        <time>2021-08-12T08:09:00.000Z</time>
      </trkpt>
      <trkpt lat="49.33809" lon="3.37184">
        <ele>138.80000305176</ele>
        <time>2021-08-12T08:09:03.000Z</time>
      </trkpt>
      <trkpt lat="49.33805" lon="3.37179">
        <ele>138.60000610352</ele>
        <time>2021-08-12T08:09:04.000Z</time>
      </trkpt>
      <trkpt lat="49.33787" lon="3.37135">
        <ele>137.39999389648</ele>
        <time>2021-08-12T08:09:11.000Z</time>
      </trkpt>
      <trkpt lat="49.33766" lon="3.3708">
        <ele>134.19999694824</ele>
        <time>2021-08-12T08:09:19.000Z</time>
      </trkpt>
      <trkpt lat="49.33749" lon="3.37034">
        <ele>134.19999694824</ele>
        <time>2021-08-12T08:09:26.000Z</time>
      </trkpt>
      <trkpt lat="49.33746" lon="3.37028">
        <ele>134.60000610352</ele>
        <time>2021-08-12T08:09:27.000Z</time>
      </trkpt>
      <trkpt lat="49.3373" lon="3.37001">
        <ele>135.80000305176</ele>
        <time>2021-08-12T08:09:32.000Z</time>
      </trkpt>
      <trkpt lat="49.33712" lon="3.36976">
        <ele>136.60000610352</ele>
        <time>2021-08-12T08:09:38.000Z</time>
      </trkpt>
      <trkpt lat="49.33702" lon="3.36969">
        <ele>136.19999694824</ele>
        <time>2021-08-12T08:09:41.000Z</time>
      </trkpt>
      <trkpt lat="49.33698" lon="3.36968">
        <ele>136</ele>
        <time>2021-08-12T08:09:42.000Z</time>
      </trkpt>
      <trkpt lat="49.33693" lon="3.36966">
        <ele>135.60000610352</ele>
        <time>2021-08-12T08:09:43.000Z</time>
      </trkpt>
      <trkpt lat="49.33677" lon="3.36956">
        <ele>134.60000610352</ele>
        <time>2021-08-12T08:09:46.000Z</time>
      </trkpt>
      <trkpt lat="49.33656" lon="3.36941">
        <ele>132.80000305176</ele>
        <time>2021-08-12T08:09:50.000Z</time>
      </trkpt>
      <trkpt lat="49.33646" lon="3.36933">
        <ele>130.80000305176</ele>
        <time>2021-08-12T08:09:52.000Z</time>
      </trkpt>
      <trkpt lat="49.33635" lon="3.36923">
        <ele>128.80000305176</ele>
        <time>2021-08-12T08:09:54.000Z</time>
      </trkpt>
      <trkpt lat="49.33617" lon="3.36898">
        <ele>124.80000305176</ele>
        <time>2021-08-12T08:09:58.000Z</time>
      </trkpt>
      <trkpt lat="49.33609" lon="3.36887">
        <ele>123.59999847412</ele>
        <time>2021-08-12T08:10:00.000Z</time>
      </trkpt>
      <trkpt lat="49.336" lon="3.36878">
        <ele>121.80000305176</ele>
        <time>2021-08-12T08:10:02.000Z</time>
      </trkpt>
      <trkpt lat="49.33588" lon="3.36865">
        <ele>119.80000305176</ele>
        <time>2021-08-12T08:10:05.000Z</time>
      </trkpt>
      <trkpt lat="49.33578" lon="3.36855">
        <ele>118.19999694824</ele>
        <time>2021-08-12T08:10:07.000Z</time>
      </trkpt>
      <trkpt lat="49.33573" lon="3.36852">
        <ele>117.59999847412</ele>
        <time>2021-08-12T08:10:08.000Z</time>
      </trkpt>
      <trkpt lat="49.33556" lon="3.36844">
        <ele>114.40000152588</ele>
        <time>2021-08-12T08:10:11.000Z</time>
      </trkpt>
      <trkpt lat="49.33522" lon="3.36831">
        <ele>108.40000152588</ele>
        <time>2021-08-12T08:10:16.000Z</time>
      </trkpt>
      <trkpt lat="49.33492" lon="3.3682">
        <ele>100.40000152588</ele>
        <time>2021-08-12T08:10:21.000Z</time>
      </trkpt>
      <trkpt lat="49.33467" lon="3.36809">
        <ele>94.599998474121</ele>
        <time>2021-08-12T08:10:26.000Z</time>
      </trkpt>
      <trkpt lat="49.33452" lon="3.36799">
        <ele>92.599998474121</ele>
        <time>2021-08-12T08:10:30.000Z</time>
      </trkpt>
      <trkpt lat="49.33447" lon="3.36793">
        <ele>91.800003051758</ele>
        <time>2021-08-12T08:10:32.000Z</time>
      </trkpt>
      <trkpt lat="49.33445" lon="3.36782">
        <ele>91</ele>
        <time>2021-08-12T08:10:34.000Z</time>
      </trkpt>
      <trkpt lat="49.33444" lon="3.36775">
        <ele>90.800003051758</ele>
        <time>2021-08-12T08:10:35.000Z</time>
      </trkpt>
      <trkpt lat="49.33443" lon="3.36752">
        <ele>90.800003051758</ele>
        <time>2021-08-12T08:10:38.000Z</time>
      </trkpt>
      <trkpt lat="49.33447" lon="3.36703">
        <ele>90.400001525879</ele>
        <time>2021-08-12T08:10:43.000Z</time>
      </trkpt>
      <trkpt lat="49.33452" lon="3.36637">
        <ele>88</ele>
        <time>2021-08-12T08:10:49.000Z</time>
      </trkpt>
      <trkpt lat="49.33456" lon="3.36575">
        <ele>83</ele>
        <time>2021-08-12T08:10:55.000Z</time>
      </trkpt>
      <trkpt lat="49.33468" lon="3.36494">
        <ele>79</ele>
        <time>2021-08-12T08:11:02.000Z</time>
      </trkpt>
      <trkpt lat="49.33473" lon="3.36471">
        <ele>79</ele>
        <time>2021-08-12T08:11:04.000Z</time>
      </trkpt>
      <trkpt lat="49.33479" lon="3.3644">
        <ele>77.400001525879</ele>
        <time>2021-08-12T08:11:07.000Z</time>
      </trkpt>
      <trkpt lat="49.33483" lon="3.36417">
        <ele>76.599998474121</ele>
        <time>2021-08-12T08:11:10.000Z</time>
      </trkpt>
      <trkpt lat="49.33486" lon="3.36382">
        <ele>75.599998474121</ele>
        <time>2021-08-12T08:11:14.000Z</time>
      </trkpt>
      <trkpt lat="49.33489" lon="3.36327">
        <ele>75.599998474121</ele>
        <time>2021-08-12T08:11:20.000Z</time>
      </trkpt>
      <trkpt lat="49.33488" lon="3.36317">
        <ele>75.400001525879</ele>
        <time>2021-08-12T08:11:21.000Z</time>
      </trkpt>
      <trkpt lat="49.33486" lon="3.36308">
        <ele>75.400001525879</ele>
        <time>2021-08-12T08:11:22.000Z</time>
      </trkpt>
      <trkpt lat="49.33476" lon="3.36272">
        <ele>74.599998474121</ele>
        <time>2021-08-12T08:11:26.000Z</time>
      </trkpt>
      <trkpt lat="49.33459" lon="3.3621">
        <ele>75</ele>
        <time>2021-08-12T08:11:33.000Z</time>
      </trkpt>
      <trkpt lat="49.33452" lon="3.36158">
        <ele>76</ele>
        <time>2021-08-12T08:11:39.000Z</time>
      </trkpt>
      <trkpt lat="49.3345" lon="3.36123">
        <ele>75.800003051758</ele>
        <time>2021-08-12T08:11:44.000Z</time>
      </trkpt>
      <trkpt lat="49.33445" lon="3.36064">
        <ele>75.800003051758</ele>
        <time>2021-08-12T08:11:53.000Z</time>
      </trkpt>
      <trkpt lat="49.33441" lon="3.36012">
        <ele>75.199996948242</ele>
        <time>2021-08-12T08:12:01.000Z</time>
      </trkpt>
      <trkpt lat="49.33431" lon="3.35977">
        <ele>73.599998474121</ele>
        <time>2021-08-12T08:12:06.000Z</time>
      </trkpt>
      <trkpt lat="49.3343" lon="3.3597">
        <ele>73.400001525879</ele>
        <time>2021-08-12T08:12:07.000Z</time>
      </trkpt>
      <trkpt lat="49.33429" lon="3.35962">
        <ele>73.199996948242</ele>
        <time>2021-08-12T08:12:08.000Z</time>
      </trkpt>
      <trkpt lat="49.33433" lon="3.35946">
        <ele>73.400001525879</ele>
        <time>2021-08-12T08:12:10.000Z</time>
      </trkpt>
      <trkpt lat="49.33454" lon="3.35904">
        <ele>74</ele>
        <time>2021-08-12T08:12:16.000Z</time>
      </trkpt>
      <trkpt lat="49.33471" lon="3.35886">
        <ele>74.199996948242</ele>
        <time>2021-08-12T08:12:21.000Z</time>
      </trkpt>
      <trkpt lat="49.33497" lon="3.35857">
        <ele>75.9</ele>
      </trkpt>
      <trkpt lat="49.33516" lon="3.35836">
        <ele>76.6</ele>
      </trkpt>
      <trkpt lat="49.33523" lon="3.35825">
        <ele>76.8</ele>
      </trkpt>
      <trkpt lat="49.33529" lon="3.35809">
        <ele>77</ele>
      </trkpt>
      <trkpt lat="49.33544" lon="3.35819">
        <ele>76.800003051758</ele>
        <time>2021-08-12T08:17:59.000Z</time>
      </trkpt>
      <trkpt lat="49.33551" lon="3.35825">
        <ele>77</ele>
        <time>2021-08-12T08:18:02.000Z</time>
      </trkpt>
      <trkpt lat="49.3357" lon="3.3583">
        <ele>77.599998474121</ele>
        <time>2021-08-12T08:18:07.000Z</time>
      </trkpt>
      <trkpt lat="49.33582" lon="3.35834">
        <ele>78.199996948242</ele>
        <time>2021-08-12T08:18:13.000Z</time>
      </trkpt>
      <trkpt lat="49.336" lon="3.35845">
        <ele>79.599998474121</ele>
        <time>2021-08-12T08:18:20.000Z</time>
      </trkpt>
      <trkpt lat="49.33616" lon="3.35857">
        <ele>80.400001525879</ele>
        <time>2021-08-12T08:18:27.000Z</time>
      </trkpt>
      <trkpt lat="49.33626" lon="3.35867">
        <ele>81</ele>
        <time>2021-08-12T08:18:32.000Z</time>
      </trkpt>
      <trkpt lat="49.33627" lon="3.35867">
        <ele>81.199996948242</ele>
        <time>2021-08-12T08:18:34.000Z</time>
      </trkpt>
      <trkpt lat="49.33632" lon="3.35872">
        <ele>81.400001525879</ele>
        <time>2021-08-12T08:18:57.000Z</time>
      </trkpt>
      <trkpt lat="49.33634" lon="3.35875">
        <ele>81.599998474121</ele>
        <time>2021-08-12T08:18:58.000Z</time>
      </trkpt>
      <trkpt lat="49.33644" lon="3.35885">
        <ele>82.400001525879</ele>
        <time>2021-08-12T08:19:03.000Z</time>
      </trkpt>
      <trkpt lat="49.33657" lon="3.35895">
        <ele>83.199996948242</ele>
        <time>2021-08-12T08:19:09.000Z</time>
      </trkpt>
      <trkpt lat="49.3367" lon="3.35906">
        <ele>84.199996948242</ele>
        <time>2021-08-12T08:19:15.000Z</time>
      </trkpt>
      <trkpt lat="49.33682" lon="3.35914">
        <ele>85.400001525879</ele>
        <time>2021-08-12T08:19:21.000Z</time>
      </trkpt>
      <trkpt lat="49.33696" lon="3.35925">
        <ele>86.800003051758</ele>
        <time>2021-08-12T08:19:28.000Z</time>
      </trkpt>
      <trkpt lat="49.33717" lon="3.3594">
        <ele>91.8</ele>
      </trkpt>
      <trkpt lat="49.33723" lon="3.35922">
        <ele>89.199996948242</ele>
        <time>2021-08-12T08:20:57.000Z</time>
      </trkpt>
      <trkpt lat="49.33731" lon="3.359">
        <ele>89.400001525879</ele>
        <time>2021-08-12T08:21:04.000Z</time>
      </trkpt>
      <trkpt lat="49.33738" lon="3.35868">
        <ele>90.800003051758</ele>
        <time>2021-08-12T08:21:12.000Z</time>
      </trkpt>
      <trkpt lat="49.33745" lon="3.35832">
        <ele>93.800003051758</ele>
        <time>2021-08-12T08:21:22.000Z</time>
      </trkpt>
      <trkpt lat="49.33748" lon="3.35813">
        <ele>96.199996948242</ele>
        <time>2021-08-12T08:21:29.000Z</time>
      </trkpt>
      <trkpt lat="49.33751" lon="3.35794">
        <ele>97.400001525879</ele>
        <time>2021-08-12T08:21:36.000Z</time>
      </trkpt>
      <trkpt lat="49.33756" lon="3.35773">
        <ele>98.599998474121</ele>
        <time>2021-08-12T08:21:45.000Z</time>
      </trkpt>
      <trkpt lat="49.33756" lon="3.35771">
        <ele>98.800003051758</ele>
        <time>2021-08-12T08:21:46.000Z</time>
      </trkpt>
      <trkpt lat="49.33757" lon="3.35765">
        <ele>99</ele>
        <time>2021-08-12T08:21:49.000Z</time>
      </trkpt>
      <trkpt lat="49.33757" lon="3.35763">
        <ele>99</ele>
        <time>2021-08-12T08:21:50.000Z</time>
      </trkpt>
      <trkpt lat="49.33758" lon="3.35748">
        <ele>98.599998474121</ele>
        <time>2021-08-12T08:21:56.000Z</time>
      </trkpt>
      <trkpt lat="49.33761" lon="3.35729">
        <ele>99.199996948242</ele>
        <time>2021-08-12T08:22:01.000Z</time>
      </trkpt>
      <trkpt lat="49.33768" lon="3.35717">
        <ele>100.80000305176</ele>
        <time>2021-08-12T08:22:05.000Z</time>
      </trkpt>
      <trkpt lat="49.3377" lon="3.35717">
        <ele>101.19999694824</ele>
        <time>2021-08-12T08:22:06.000Z</time>
      </trkpt>
      <trkpt lat="49.33773" lon="3.35716">
        <ele>102</ele>
        <time>2021-08-12T08:22:08.000Z</time>
      </trkpt>
      <trkpt lat="49.33774" lon="3.35718">
        <ele>102.19999694824</ele>
        <time>2021-08-12T08:22:09.000Z</time>
      </trkpt>
      <trkpt lat="49.33783" lon="3.35734">
        <ele>104.80000305176</ele>
        <time>2021-08-12T08:22:15.000Z</time>
      </trkpt>
      <trkpt lat="49.33792" lon="3.35741">
        <ele>107.19999694824</ele>
        <time>2021-08-12T08:22:21.000Z</time>
      </trkpt>
      <trkpt lat="49.33794" lon="3.35744">
        <ele>108</ele>
        <time>2021-08-12T08:22:23.000Z</time>
      </trkpt>
      <trkpt lat="49.33798" lon="3.3575">
        <ele>109.40000152588</ele>
        <time>2021-08-12T08:22:26.000Z</time>
      </trkpt>
      <trkpt lat="49.33803" lon="3.35756">
        <ele>110.80000305176</ele>
        <time>2021-08-12T08:22:29.000Z</time>
      </trkpt>
      <trkpt lat="49.33805" lon="3.35758">
        <ele>111.40000152588</ele>
        <time>2021-08-12T08:22:31.000Z</time>
      </trkpt>
      <trkpt lat="49.33821" lon="3.35781">
        <ele>115.59999847412</ele>
        <time>2021-08-12T08:22:46.000Z</time>
      </trkpt>
      <trkpt lat="49.33823" lon="3.35787">
        <ele>116</ele>
        <time>2021-08-12T08:22:49.000Z</time>
      </trkpt>
      <trkpt lat="49.33827" lon="3.35799">
        <ele>116.80000305176</ele>
        <time>2021-08-12T08:22:55.000Z</time>
      </trkpt>
      <trkpt lat="49.33828" lon="3.35809">
        <ele>116.40000152588</ele>
        <time>2021-08-12T08:23:00.000Z</time>
      </trkpt>
      <trkpt lat="49.33829" lon="3.35814">
        <ele>116.59999847412</ele>
        <time>2021-08-12T08:23:03.000Z</time>
      </trkpt>
      <trkpt lat="49.33854" lon="3.35883">
        <ele>120.19999694824</ele>
        <time>2021-08-12T08:23:45.000Z</time>
      </trkpt>
      <trkpt lat="49.33854" lon="3.35885">
        <ele>120.40000152588</ele>
        <time>2021-08-12T08:23:46.000Z</time>
      </trkpt>
      <trkpt lat="49.33855" lon="3.35887">
        <ele>120.40000152588</ele>
        <time>2021-08-12T08:23:47.000Z</time>
      </trkpt>
      <trkpt lat="49.33856" lon="3.359">
        <ele>120.80000305176</ele>
        <time>2021-08-12T08:23:53.000Z</time>
      </trkpt>
      <trkpt lat="49.33858" lon="3.35908">
        <ele>121.40000152588</ele>
        <time>2021-08-12T08:23:58.000Z</time>
      </trkpt>
      <trkpt lat="49.3386" lon="3.35912">
        <ele>121.80000305176</ele>
        <time>2021-08-12T08:24:01.000Z</time>
      </trkpt>
      <trkpt lat="49.33861" lon="3.35915">
        <ele>122</ele>
        <time>2021-08-12T08:24:03.000Z</time>
      </trkpt>
      <trkpt lat="49.33876" lon="3.35935">
        <ele>125.80000305176</ele>
        <time>2021-08-12T08:24:19.000Z</time>
      </trkpt>
      <trkpt lat="49.3388" lon="3.35934">
        <ele>126.80000305176</ele>
        <time>2021-08-12T08:24:22.000Z</time>
      </trkpt>
      <trkpt lat="49.33887" lon="3.35929">
        <ele>128</ele>
        <time>2021-08-12T08:24:29.000Z</time>
      </trkpt>
      <trkpt lat="49.33892" lon="3.35919">
        <ele>128.80000305176</ele>
        <time>2021-08-12T08:24:36.000Z</time>
      </trkpt>
      <trkpt lat="49.33898" lon="3.35912">
        <ele>130.39999389648</ele>
        <time>2021-08-12T08:24:42.000Z</time>
      </trkpt>
      <trkpt lat="49.339" lon="3.35909">
        <ele>131</ele>
        <time>2021-08-12T08:24:44.000Z</time>
      </trkpt>
      <trkpt lat="49.33901" lon="3.35905">
        <ele>131.60000610352</ele>
        <time>2021-08-12T08:24:46.000Z</time>
      </trkpt>
      <trkpt lat="49.33903" lon="3.35904">
        <ele>132</ele>
        <time>2021-08-12T08:24:47.000Z</time>
      </trkpt>
      <trkpt lat="49.33911" lon="3.35892">
        <ele>134.60000610352</ele>
        <time>2021-08-12T08:24:54.000Z</time>
      </trkpt>
      <trkpt lat="49.33918" lon="3.35883">
        <ele>136</ele>
        <time>2021-08-12T08:25:00.000Z</time>
      </trkpt>
      <trkpt lat="49.33922" lon="3.35875">
        <ele>136.80000305176</ele>
        <time>2021-08-12T08:25:04.000Z</time>
      </trkpt>
      <trkpt lat="49.33923" lon="3.35872">
        <ele>137</ele>
        <time>2021-08-12T08:25:06.000Z</time>
      </trkpt>
      <trkpt lat="49.33925" lon="3.35866">
        <ele>137.19999694824</ele>
        <time>2021-08-12T08:25:09.000Z</time>
      </trkpt>
      <trkpt lat="49.33926" lon="3.35859">
        <ele>137</ele>
        <time>2021-08-12T08:25:12.000Z</time>
      </trkpt>
      <trkpt lat="49.33926" lon="3.35845">
        <ele>137</ele>
        <time>2021-08-12T08:25:18.000Z</time>
      </trkpt>
      <trkpt lat="49.33921" lon="3.35819">
        <ele>136.60000610352</ele>
        <time>2021-08-12T08:25:26.000Z</time>
      </trkpt>
      <trkpt lat="49.33913" lon="3.35784">
        <ele>136</ele>
        <time>2021-08-12T08:25:35.000Z</time>
      </trkpt>
      <trkpt lat="49.33911" lon="3.35766">
        <ele>135.80000305176</ele>
        <time>2021-08-12T08:25:39.000Z</time>
      </trkpt>
      <trkpt lat="49.33912" lon="3.35761">
        <ele>136</ele>
        <time>2021-08-12T08:25:40.000Z</time>
      </trkpt>
      <trkpt lat="49.33914" lon="3.35758">
        <ele>136.19999694824</ele>
        <time>2021-08-12T08:25:41.000Z</time>
      </trkpt>
      <trkpt lat="49.33921" lon="3.3575">
        <ele>136.39999389648</ele>
        <time>2021-08-12T08:25:44.000Z</time>
      </trkpt>
      <trkpt lat="49.33932" lon="3.35736">
        <ele>136.19999694824</ele>
        <time>2021-08-12T08:25:49.000Z</time>
      </trkpt>
      <trkpt lat="49.33948" lon="3.35729">
        <ele>136.60000610352</ele>
        <time>2021-08-12T08:25:54.000Z</time>
      </trkpt>
      <trkpt lat="49.33965" lon="3.35721">
        <ele>137</ele>
        <time>2021-08-12T08:26:00.000Z</time>
      </trkpt>
      <trkpt lat="49.33986" lon="3.3571">
        <ele>136.80000305176</ele>
        <time>2021-08-12T08:26:06.000Z</time>
      </trkpt>
      <trkpt lat="49.33994" lon="3.35706">
        <ele>136.60000610352</ele>
        <time>2021-08-12T08:26:08.000Z</time>
      </trkpt>
      <trkpt lat="49.34012" lon="3.35696">
        <ele>135.80000305176</ele>
        <time>2021-08-12T08:26:12.000Z</time>
      </trkpt>
      <trkpt lat="49.34048" lon="3.35675">
        <ele>133.80000305176</ele>
        <time>2021-08-12T08:26:20.000Z</time>
      </trkpt>
      <trkpt lat="49.34084" lon="3.35655">
        <ele>134.60000610352</ele>
        <time>2021-08-12T08:26:28.000Z</time>
      </trkpt>
      <trkpt lat="49.34098" lon="3.35652">
        <ele>135.39999389648</ele>
        <time>2021-08-12T08:26:31.000Z</time>
      </trkpt>
      <trkpt lat="49.34106" lon="3.35652">
        <ele>136.19999694824</ele>
        <time>2021-08-12T08:26:33.000Z</time>
      </trkpt>
      <trkpt lat="49.34114" lon="3.35651">
        <ele>136.80000305176</ele>
        <time>2021-08-12T08:26:35.000Z</time>
      </trkpt>
      <trkpt lat="49.34126" lon="3.35647">
        <ele>137.19999694824</ele>
        <time>2021-08-12T08:26:38.000Z</time>
      </trkpt>
      <trkpt lat="49.34142" lon="3.35628">
        <ele>137.80000305176</ele>
        <time>2021-08-12T08:26:43.000Z</time>
      </trkpt>
      <trkpt lat="49.34159" lon="3.35604">
        <ele>139.39999389648</ele>
        <time>2021-08-12T08:26:50.000Z</time>
      </trkpt>
      <trkpt lat="49.34166" lon="3.35592">
        <ele>140.60000610352</ele>
        <time>2021-08-12T08:26:54.000Z</time>
      </trkpt>
      <trkpt lat="49.34172" lon="3.35573">
        <ele>141</ele>
        <time>2021-08-12T08:26:59.000Z</time>
      </trkpt>
      <trkpt lat="49.3418" lon="3.35551">
        <ele>142</ele>
        <time>2021-08-12T08:27:05.000Z</time>
      </trkpt>
      <trkpt lat="49.34185" lon="3.35535">
        <ele>142.39999389648</ele>
        <time>2021-08-12T08:27:10.000Z</time>
      </trkpt>
      <trkpt lat="49.34186" lon="3.35532">
        <ele>142.60000610352</ele>
        <time>2021-08-12T08:27:11.000Z</time>
      </trkpt>
      <trkpt lat="49.34193" lon="3.35516">
        <ele>143</ele>
        <time>2021-08-12T08:27:17.000Z</time>
      </trkpt>
      <trkpt lat="49.34199" lon="3.35499">
        <ele>142.80000305176</ele>
        <time>2021-08-12T08:27:23.000Z</time>
      </trkpt>
      <trkpt lat="49.34208" lon="3.35475">
        <ele>142.60000610352</ele>
        <time>2021-08-12T08:27:31.000Z</time>
      </trkpt>
      <trkpt lat="49.34215" lon="3.35454">
        <ele>142.19999694824</ele>
        <time>2021-08-12T08:27:38.000Z</time>
      </trkpt>
      <trkpt lat="49.34221" lon="3.3544">
        <ele>142.39999389648</ele>
        <time>2021-08-12T08:27:43.000Z</time>
      </trkpt>
      <trkpt lat="49.3423" lon="3.35424">
        <ele>142.80000305176</ele>
        <time>2021-08-12T08:27:49.000Z</time>
      </trkpt>
      <trkpt lat="49.34247" lon="3.35402">
        <ele>143.80000305176</ele>
        <time>2021-08-12T08:27:59.000Z</time>
      </trkpt>
      <trkpt lat="49.34263" lon="3.35391">
        <ele>144</ele>
        <time>2021-08-12T08:28:06.000Z</time>
      </trkpt>
      <trkpt lat="49.34279" lon="3.35383">
        <ele>144.19999694824</ele>
        <time>2021-08-12T08:28:11.000Z</time>
      </trkpt>
      <trkpt lat="49.34303" lon="3.35372">
        <ele>145.19999694824</ele>
        <time>2021-08-12T08:28:17.000Z</time>
      </trkpt>
      <trkpt lat="49.34327" lon="3.35363">
        <ele>145.60000610352</ele>
        <time>2021-08-12T08:28:23.000Z</time>
      </trkpt>
      <trkpt lat="49.34357" lon="3.35353">
        <ele>144.80000305176</ele>
        <time>2021-08-12T08:28:30.000Z</time>
      </trkpt>
      <trkpt lat="49.34364" lon="3.35343">
        <ele>145</ele>
        <time>2021-08-12T08:28:32.000Z</time>
      </trkpt>
      <trkpt lat="49.34366" lon="3.35335">
        <ele>144.80000305176</ele>
        <time>2021-08-12T08:28:33.000Z</time>
      </trkpt>
      <trkpt lat="49.34369" lon="3.3532">
        <ele>144.60000610352</ele>
        <time>2021-08-12T08:28:35.000Z</time>
      </trkpt>
      <trkpt lat="49.34373" lon="3.35309">
        <ele>144.80000305176</ele>
        <time>2021-08-12T08:28:37.000Z</time>
      </trkpt>
      <trkpt lat="49.34374" lon="3.35303">
        <ele>144.80000305176</ele>
        <time>2021-08-12T08:28:38.000Z</time>
      </trkpt>
      <trkpt lat="49.3438" lon="3.35275">
        <ele>145.19999694824</ele>
        <time>2021-08-12T08:28:43.000Z</time>
      </trkpt>
      <trkpt lat="49.34389" lon="3.35244">
        <ele>145.39999389648</ele>
        <time>2021-08-12T08:28:49.000Z</time>
      </trkpt>
      <trkpt lat="49.34402" lon="3.35221">
        <ele>146.80000305176</ele>
        <time>2021-08-12T08:28:55.000Z</time>
      </trkpt>
      <trkpt lat="49.34416" lon="3.35199">
        <ele>148.19999694824</ele>
        <time>2021-08-12T08:29:01.000Z</time>
      </trkpt>
      <trkpt lat="49.34434" lon="3.35173">
        <ele>149.60000610352</ele>
        <time>2021-08-12T08:29:09.000Z</time>
      </trkpt>
      <trkpt lat="49.34451" lon="3.35151">
        <ele>151.19999694824</ele>
        <time>2021-08-12T08:29:16.000Z</time>
      </trkpt>
      <trkpt lat="49.34466" lon="3.35128">
        <ele>152.19999694824</ele>
        <time>2021-08-12T08:29:23.000Z</time>
      </trkpt>
      <trkpt lat="49.3448" lon="3.35102">
        <ele>153.39999389648</ele>
        <time>2021-08-12T08:29:30.000Z</time>
      </trkpt>
      <trkpt lat="49.34493" lon="3.3507">
        <ele>154</ele>
        <time>2021-08-12T08:29:38.000Z</time>
      </trkpt>
      <trkpt lat="49.34508" lon="3.35033">
        <ele>155.19999694824</ele>
        <time>2021-08-12T08:29:47.000Z</time>
      </trkpt>
      <trkpt lat="49.34521" lon="3.35001">
        <ele>156.80000305176</ele>
        <time>2021-08-12T08:29:55.000Z</time>
      </trkpt>
      <trkpt lat="49.34532" lon="3.34967">
        <ele>158</ele>
        <time>2021-08-12T08:30:03.000Z</time>
      </trkpt>
      <trkpt lat="49.3454" lon="3.34941">
        <ele>158.60000610352</ele>
        <time>2021-08-12T08:30:09.000Z</time>
      </trkpt>
      <trkpt lat="49.34552" lon="3.34901">
        <ele>159</ele>
        <time>2021-08-12T08:30:18.000Z</time>
      </trkpt>
      <trkpt lat="49.34564" lon="3.34865">
        <ele>159.39999389648</ele>
        <time>2021-08-12T08:30:26.000Z</time>
      </trkpt>
      <trkpt lat="49.34577" lon="3.34829">
        <ele>160</ele>
        <time>2021-08-12T08:30:34.000Z</time>
      </trkpt>
      <trkpt lat="49.34594" lon="3.34792">
        <ele>160</ele>
        <time>2021-08-12T08:30:42.000Z</time>
      </trkpt>
      <trkpt lat="49.34604" lon="3.34774">
        <ele>159.19999694824</ele>
        <time>2021-08-12T08:30:46.000Z</time>
      </trkpt>
      <trkpt lat="49.34613" lon="3.3476">
        <ele>159</ele>
        <time>2021-08-12T08:30:49.000Z</time>
      </trkpt>
      <trkpt lat="49.34639" lon="3.34722">
        <ele>159.19999694824</ele>
        <time>2021-08-12T08:30:57.000Z</time>
      </trkpt>
      <trkpt lat="49.34658" lon="3.34693">
        <ele>159.19999694824</ele>
        <time>2021-08-12T08:31:03.000Z</time>
      </trkpt>
      <trkpt lat="49.34665" lon="3.34683">
        <ele>159</ele>
        <time>2021-08-12T08:31:05.000Z</time>
      </trkpt>
      <trkpt lat="49.34694" lon="3.34643">
        <ele>159</ele>
        <time>2021-08-12T08:31:13.000Z</time>
      </trkpt>
      <trkpt lat="49.34719" lon="3.34605">
        <ele>158</ele>
        <time>2021-08-12T08:31:20.000Z</time>
      </trkpt>
      <trkpt lat="49.34746" lon="3.34565">
        <ele>157.39999389648</ele>
        <time>2021-08-12T08:31:27.000Z</time>
      </trkpt>
      <trkpt lat="49.3478" lon="3.34509">
        <ele>156.19999694824</ele>
        <time>2021-08-12T08:31:36.000Z</time>
      </trkpt>
      <trkpt lat="49.34809" lon="3.34463">
        <ele>157</ele>
        <time>2021-08-12T08:31:43.000Z</time>
      </trkpt>
      <trkpt lat="49.34841" lon="3.3441">
        <ele>155.39999389648</ele>
        <time>2021-08-12T08:31:51.000Z</time>
      </trkpt>
      <trkpt lat="49.34872" lon="3.34357">
        <ele>155</ele>
        <time>2021-08-12T08:31:59.000Z</time>
      </trkpt>
      <trkpt lat="49.34901" lon="3.34309">
        <ele>155.39999389648</ele>
        <time>2021-08-12T08:32:06.000Z</time>
      </trkpt>
      <trkpt lat="49.34941" lon="3.3425">
        <ele>155.80000305176</ele>
        <time>2021-08-12T08:32:15.000Z</time>
      </trkpt>
      <trkpt lat="49.34975" lon="3.34205">
        <ele>155.19999694824</ele>
        <time>2021-08-12T08:32:22.000Z</time>
      </trkpt>
      <trkpt lat="49.35018" lon="3.34154">
        <ele>154.19999694824</ele>
        <time>2021-08-12T08:32:30.000Z</time>
      </trkpt>
      <trkpt lat="49.3506" lon="3.34099">
        <ele>152</ele>
        <time>2021-08-12T08:32:38.000Z</time>
      </trkpt>
      <trkpt lat="49.35065" lon="3.34092">
        <ele>152</ele>
        <time>2021-08-12T08:32:39.000Z</time>
      </trkpt>
      <trkpt lat="49.35109" lon="3.34045">
        <ele>150</ele>
        <time>2021-08-12T08:32:47.000Z</time>
      </trkpt>
      <trkpt lat="49.35139" lon="3.34023">
        <ele>148</ele>
        <time>2021-08-12T08:32:52.000Z</time>
      </trkpt>
      <trkpt lat="49.35194" lon="3.3399">
        <ele>146.80000305176</ele>
        <time>2021-08-12T08:33:00.000Z</time>
      </trkpt>
      <trkpt lat="49.35202" lon="3.33987">
        <ele>146.60000610352</ele>
        <time>2021-08-12T08:33:01.000Z</time>
      </trkpt>
      <trkpt lat="49.35252" lon="3.33973">
        <ele>144.80000305176</ele>
        <time>2021-08-12T08:33:07.000Z</time>
      </trkpt>
      <trkpt lat="49.35286" lon="3.33961">
        <ele>143.39999389648</ele>
        <time>2021-08-12T08:33:11.000Z</time>
      </trkpt>
      <trkpt lat="49.35294" lon="3.33956">
        <ele>142.80000305176</ele>
        <time>2021-08-12T08:33:12.000Z</time>
      </trkpt>
      <trkpt lat="49.3531" lon="3.33944">
        <ele>141.60000610352</ele>
        <time>2021-08-12T08:33:14.000Z</time>
      </trkpt>
      <trkpt lat="49.35336" lon="3.33918">
        <ele>139.80000305176</ele>
        <time>2021-08-12T08:33:17.000Z</time>
      </trkpt>
      <trkpt lat="49.35372" lon="3.33882">
        <ele>136</ele>
        <time>2021-08-12T08:33:22.000Z</time>
      </trkpt>
      <trkpt lat="49.35377" lon="3.33877">
        <ele>135.60000610352</ele>
        <time>2021-08-12T08:33:23.000Z</time>
      </trkpt>
      <trkpt lat="49.35391" lon="3.33869">
        <ele>134</ele>
        <time>2021-08-12T08:33:26.000Z</time>
      </trkpt>
      <trkpt lat="49.354" lon="3.33862">
        <ele>133.19999694824</ele>
        <time>2021-08-12T08:33:28.000Z</time>
      </trkpt>
      <trkpt lat="49.35409" lon="3.33852">
        <ele>132.19999694824</ele>
        <time>2021-08-12T08:33:30.000Z</time>
      </trkpt>
      <trkpt lat="49.35422" lon="3.3383">
        <ele>130</ele>
        <time>2021-08-12T08:33:33.000Z</time>
      </trkpt>
      <trkpt lat="49.35429" lon="3.33812">
        <ele>129.39999389648</ele>
        <time>2021-08-12T08:33:35.000Z</time>
      </trkpt>
      <trkpt lat="49.35435" lon="3.33788">
        <ele>129.39999389648</ele>
        <time>2021-08-12T08:33:38.000Z</time>
      </trkpt>
      <trkpt lat="49.35436" lon="3.33782">
        <ele>129.39999389648</ele>
        <time>2021-08-12T08:33:39.000Z</time>
      </trkpt>
      <trkpt lat="49.35434" lon="3.33759">
        <ele>129</ele>
        <time>2021-08-12T08:33:43.000Z</time>
      </trkpt>
      <trkpt lat="49.35436" lon="3.33724">
        <ele>128.39999389648</ele>
        <time>2021-08-12T08:33:48.000Z</time>
      </trkpt>
      <trkpt lat="49.35447" lon="3.33678">
        <ele>126.19999694824</ele>
        <time>2021-08-12T08:33:54.000Z</time>
      </trkpt>
      <trkpt lat="49.3545" lon="3.3366">
        <ele>126</ele>
        <time>2021-08-12T08:33:56.000Z</time>
      </trkpt>
      <trkpt lat="49.35454" lon="3.33633">
        <ele>126.19999694824</ele>
        <time>2021-08-12T08:33:59.000Z</time>
      </trkpt>
      <trkpt lat="49.35455" lon="3.33624">
        <ele>126</ele>
        <time>2021-08-12T08:34:00.000Z</time>
      </trkpt>
      <trkpt lat="49.35455" lon="3.33559">
        <ele>125.80000305176</ele>
        <time>2021-08-12T08:34:07.000Z</time>
      </trkpt>
      <trkpt lat="49.35454" lon="3.33492">
        <ele>126.40000152588</ele>
        <time>2021-08-12T08:34:14.000Z</time>
      </trkpt>
      <trkpt lat="49.35453" lon="3.33428">
        <ele>125.19999694824</ele>
        <time>2021-08-12T08:34:21.000Z</time>
      </trkpt>
      <trkpt lat="49.35452" lon="3.33393">
        <ele>124.59999847412</ele>
        <time>2021-08-12T08:34:25.000Z</time>
      </trkpt>
      <trkpt lat="49.35451" lon="3.33377">
        <ele>124.19999694824</ele>
        <time>2021-08-12T08:34:27.000Z</time>
      </trkpt>
      <trkpt lat="49.3545" lon="3.33336">
        <ele>124.80000305176</ele>
        <time>2021-08-12T08:34:32.000Z</time>
      </trkpt>
      <trkpt lat="49.35449" lon="3.33327">
        <ele>124.80000305176</ele>
        <time>2021-08-12T08:34:33.000Z</time>
      </trkpt>
      <trkpt lat="49.35446" lon="3.33286">
        <ele>125.40000152588</ele>
        <time>2021-08-12T08:34:38.000Z</time>
      </trkpt>
      <trkpt lat="49.35445" lon="3.33262">
        <ele>126</ele>
        <time>2021-08-12T08:34:41.000Z</time>
      </trkpt>
      <trkpt lat="49.35445" lon="3.33254">
        <ele>126.40000152588</ele>
        <time>2021-08-12T08:34:42.000Z</time>
      </trkpt>
      <trkpt lat="49.35445" lon="3.33241">
        <ele>126.59999847412</ele>
        <time>2021-08-12T08:34:44.000Z</time>
      </trkpt>
      <trkpt lat="49.35445" lon="3.33233">
        <ele>126.40000152588</ele>
        <time>2021-08-12T08:34:45.000Z</time>
      </trkpt>
      <trkpt lat="49.35446" lon="3.33193">
        <ele>125.59999847412</ele>
        <time>2021-08-12T08:34:50.000Z</time>
      </trkpt>
      <trkpt lat="49.35449" lon="3.33138">
        <ele>124.19999694824</ele>
        <time>2021-08-12T08:34:57.000Z</time>
      </trkpt>
      <trkpt lat="49.3545" lon="3.33123">
        <ele>123.59999847412</ele>
        <time>2021-08-12T08:34:59.000Z</time>
      </trkpt>
      <trkpt lat="49.35451" lon="3.33108">
        <ele>122.80000305176</ele>
        <time>2021-08-12T08:35:01.000Z</time>
      </trkpt>
      <trkpt lat="49.35452" lon="3.33076">
        <ele>123.40000152588</ele>
        <time>2021-08-12T08:35:06.000Z</time>
      </trkpt>
      <trkpt lat="49.35453" lon="3.33056">
        <ele>124</ele>
        <time>2021-08-12T08:35:10.000Z</time>
      </trkpt>
      <trkpt lat="49.35454" lon="3.33051">
        <ele>124.19999694824</ele>
        <time>2021-08-12T08:35:14.000Z</time>
      </trkpt>
      <trkpt lat="49.35454" lon="3.33044">
        <ele>124.59999847412</ele>
        <time>2021-08-12T08:35:18.000Z</time>
      </trkpt>
      <trkpt lat="49.35454" lon="3.33039">
        <ele>124.80000305176</ele>
        <time>2021-08-12T08:35:19.000Z</time>
      </trkpt>
      <trkpt lat="49.35454" lon="3.33033">
        <ele>125.19999694824</ele>
        <time>2021-08-12T08:35:20.000Z</time>
      </trkpt>
      <trkpt lat="49.35452" lon="3.33017">
        <ele>125.80000305176</ele>
        <time>2021-08-12T08:35:22.000Z</time>
      </trkpt>
      <trkpt lat="49.35451" lon="3.33">
        <ele>126</ele>
        <time>2021-08-12T08:35:24.000Z</time>
      </trkpt>
      <trkpt lat="49.35451" lon="3.32972">
        <ele>124</ele>
        <time>2021-08-12T08:35:28.000Z</time>
      </trkpt>
      <trkpt lat="49.35452" lon="3.32947">
        <ele>122.59999847412</ele>
        <time>2021-08-12T08:35:33.000Z</time>
      </trkpt>
      <trkpt lat="49.35453" lon="3.32919">
        <ele>120.80000305176</ele>
        <time>2021-08-12T08:35:38.000Z</time>
      </trkpt>
      <trkpt lat="49.35454" lon="3.32899">
        <ele>118.80000305176</ele>
        <time>2021-08-12T08:35:41.000Z</time>
      </trkpt>
      <trkpt lat="49.35455" lon="3.32891">
        <ele>118.19999694824</ele>
        <time>2021-08-12T08:35:42.000Z</time>
      </trkpt>
      <trkpt lat="49.35462" lon="3.32861">
        <ele>114.80000305176</ele>
        <time>2021-08-12T08:35:46.000Z</time>
      </trkpt>
      <trkpt lat="49.35464" lon="3.32853">
        <ele>113.80000305176</ele>
        <time>2021-08-12T08:35:48.000Z</time>
      </trkpt>
      <trkpt lat="49.35464" lon="3.32845">
        <ele>113.40000152588</ele>
        <time>2021-08-12T08:35:50.000Z</time>
      </trkpt>
      <trkpt lat="49.35465" lon="3.32825">
        <ele>112.40000152588</ele>
        <time>2021-08-12T08:35:54.000Z</time>
      </trkpt>
      <trkpt lat="49.35466" lon="3.32785">
        <ele>110</ele>
        <time>2021-08-12T08:36:00.000Z</time>
      </trkpt>
      <trkpt lat="49.35466" lon="3.32774">
        <ele>109.59999847412</ele>
        <time>2021-08-12T08:36:02.000Z</time>
      </trkpt>
      <trkpt lat="49.35467" lon="3.3277">
        <ele>109.19999694824</ele>
        <time>2021-08-12T08:36:03.000Z</time>
      </trkpt>
      <trkpt lat="49.3548" lon="3.32758">
        <ele>105.59999847412</ele>
        <time>2021-08-12T08:36:08.000Z</time>
      </trkpt>
      <trkpt lat="49.35492" lon="3.32751">
        <ele>102.19999694824</ele>
        <time>2021-08-12T08:36:12.000Z</time>
      </trkpt>
      <trkpt lat="49.35496" lon="3.32748">
        <ele>101.19999694824</ele>
        <time>2021-08-12T08:36:16.000Z</time>
      </trkpt>
      <trkpt lat="49.35498" lon="3.32746">
        <ele>100.40000152588</ele>
        <time>2021-08-12T08:36:38.000Z</time>
      </trkpt>
      <trkpt lat="49.35506" lon="3.32739">
        <ele>98.400001525879</ele>
        <time>2021-08-12T08:36:42.000Z</time>
      </trkpt>
      <trkpt lat="49.35513" lon="3.32746">
        <ele>96.800003051758</ele>
        <time>2021-08-12T08:36:44.000Z</time>
      </trkpt>
      <trkpt lat="49.35522" lon="3.32756">
        <ele>95</ele>
        <time>2021-08-12T08:36:47.000Z</time>
      </trkpt>
      <trkpt lat="49.3554" lon="3.32761">
        <ele>91</ele>
        <time>2021-08-12T08:36:52.000Z</time>
      </trkpt>
      <trkpt lat="49.3556" lon="3.32765">
        <ele>87.599998474121</ele>
        <time>2021-08-12T08:36:57.000Z</time>
      </trkpt>
      <trkpt lat="49.35564" lon="3.32764">
        <ele>86.800003051758</ele>
        <time>2021-08-12T08:36:58.000Z</time>
      </trkpt>
      <trkpt lat="49.35583" lon="3.32764">
        <ele>83.800003051758</ele>
        <time>2021-08-12T08:37:01.000Z</time>
      </trkpt>
      <trkpt lat="49.35599" lon="3.32762">
        <ele>80.599998474121</ele>
        <time>2021-08-12T08:37:04.000Z</time>
      </trkpt>
      <trkpt lat="49.35603" lon="3.32764">
        <ele>80</ele>
        <time>2021-08-12T08:37:06.000Z</time>
      </trkpt>
      <trkpt lat="49.35605" lon="3.32769">
        <ele>79.400001525879</ele>
        <time>2021-08-12T08:37:07.000Z</time>
      </trkpt>
      <trkpt lat="49.35608" lon="3.32775">
        <ele>79</ele>
        <time>2021-08-12T08:37:08.000Z</time>
      </trkpt>
      <trkpt lat="49.35611" lon="3.32789">
        <ele>78.800003051758</ele>
        <time>2021-08-12T08:37:10.000Z</time>
      </trkpt>
      <trkpt lat="49.35611" lon="3.32795">
        <ele>79</ele>
        <time>2021-08-12T08:37:11.000Z</time>
      </trkpt>
      <trkpt lat="49.35612" lon="3.32827">
        <ele>79.199996948242</ele>
        <time>2021-08-12T08:37:16.000Z</time>
      </trkpt>
      <trkpt lat="49.35613" lon="3.32862">
        <ele>79</ele>
        <time>2021-08-12T08:37:21.000Z</time>
      </trkpt>
      <trkpt lat="49.35612" lon="3.32868">
        <ele>79.599998474121</ele>
        <time>2021-08-12T08:37:22.000Z</time>
      </trkpt>
      <trkpt lat="49.35612" lon="3.32891">
        <ele>80.800003051758</ele>
        <time>2021-08-12T08:37:26.000Z</time>
      </trkpt>
      <trkpt lat="49.35623" lon="3.32907">
        <ele>78</ele>
        <time>2021-08-12T08:37:30.000Z</time>
      </trkpt>
      <trkpt lat="49.35626" lon="3.32912">
        <ele>77.199996948242</ele>
        <time>2021-08-12T08:37:31.000Z</time>
      </trkpt>
      <trkpt lat="49.35636" lon="3.32937">
        <ele>75.800003051758</ele>
        <time>2021-08-12T08:37:35.000Z</time>
      </trkpt>
      <trkpt lat="49.35654" lon="3.32983">
        <ele>75</ele>
        <time>2021-08-12T08:37:42.000Z</time>
      </trkpt>
      <trkpt lat="49.35665" lon="3.33012">
        <ele>73.800003051758</ele>
        <time>2021-08-12T08:37:48.000Z</time>
      </trkpt>
      <trkpt lat="49.35672" lon="3.33039">
        <ele>73.199996948242</ele>
        <time>2021-08-12T08:37:55.000Z</time>
      </trkpt>
      <trkpt lat="49.35672" lon="3.33044">
        <ele>73.400001525879</ele>
        <time>2021-08-12T08:37:58.000Z</time>
      </trkpt>
      <trkpt lat="49.35672" lon="3.33045">
        <ele>73.400001525879</ele>
        <time>2021-08-12T08:38:02.000Z</time>
      </trkpt>
      <trkpt lat="49.35672" lon="3.33045">
        <ele>73.400001525879</ele>
        <time>2021-08-12T08:38:04.000Z</time>
      </trkpt>
      <trkpt lat="49.35673" lon="3.33052">
        <ele>73.599998474121</ele>
        <time>2021-08-12T08:38:15.000Z</time>
      </trkpt>
      <trkpt lat="49.35673" lon="3.33056">
        <ele>73.599998474121</ele>
        <time>2021-08-12T08:38:16.000Z</time>
      </trkpt>
      <trkpt lat="49.3567" lon="3.33074">
        <ele>74</ele>
        <time>2021-08-12T08:38:21.000Z</time>
      </trkpt>
      <trkpt lat="49.35669" lon="3.33078">
        <ele>74</ele>
        <time>2021-08-12T08:38:22.000Z</time>
      </trkpt>
      <trkpt lat="49.35669" lon="3.3309">
        <ele>74.400001525879</ele>
        <time>2021-08-12T08:38:25.000Z</time>
      </trkpt>
      <trkpt lat="49.35671" lon="3.33123">
        <ele>74.400001525879</ele>
        <time>2021-08-12T08:38:31.000Z</time>
      </trkpt>
      <trkpt lat="49.35678" lon="3.3315">
        <ele>74.400001525879</ele>
        <time>2021-08-12T08:38:36.000Z</time>
      </trkpt>
      <trkpt lat="49.35682" lon="3.33163">
        <ele>74</ele>
        <time>2021-08-12T08:38:38.000Z</time>
      </trkpt>
      <trkpt lat="49.3569" lon="3.33183">
        <ele>73</ele>
        <time>2021-08-12T08:38:41.000Z</time>
      </trkpt>
      <trkpt lat="49.35694" lon="3.33195">
        <ele>72.800003051758</ele>
        <time>2021-08-12T08:38:43.000Z</time>
      </trkpt>
      <trkpt lat="49.35701" lon="3.33214">
        <ele>72.199996948242</ele>
        <time>2021-08-12T08:38:46.000Z</time>
      </trkpt>
      <trkpt lat="49.35715" lon="3.33248">
        <ele>72.400001525879</ele>
        <time>2021-08-12T08:38:52.000Z</time>
      </trkpt>
      <trkpt lat="49.3573" lon="3.33291">
        <ele>73.400001525879</ele>
        <time>2021-08-12T08:39:00.000Z</time>
      </trkpt>
      <trkpt lat="49.35747" lon="3.33335">
        <ele>74.199996948242</ele>
        <time>2021-08-12T08:39:08.000Z</time>
      </trkpt>
      <trkpt lat="49.35759" lon="3.33348">
        <ele>73.800003051758</ele>
        <time>2021-08-12T08:39:11.000Z</time>
      </trkpt>
      <trkpt lat="49.35763" lon="3.33353">
        <ele>73.599998474121</ele>
        <time>2021-08-12T08:39:12.000Z</time>
      </trkpt>
      <trkpt lat="49.35784" lon="3.33386">
        <ele>73.599998474121</ele>
        <time>2021-08-12T08:39:18.000Z</time>
      </trkpt>
      <trkpt lat="49.35807" lon="3.33429">
        <ele>74.400001525879</ele>
        <time>2021-08-12T08:39:25.000Z</time>
      </trkpt>
      <trkpt lat="49.35809" lon="3.33435">
        <ele>74.599998474121</ele>
        <time>2021-08-12T08:39:26.000Z</time>
      </trkpt>
      <trkpt lat="49.35813" lon="3.33446">
        <ele>74.800003051758</ele>
        <time>2021-08-12T08:39:28.000Z</time>
      </trkpt>
      <trkpt lat="49.35816" lon="3.33451">
        <ele>74.800003051758</ele>
        <time>2021-08-12T08:39:29.000Z</time>
      </trkpt>
      <trkpt lat="49.35819" lon="3.33455">
        <ele>75</ele>
        <time>2021-08-12T08:39:30.000Z</time>
      </trkpt>
      <trkpt lat="49.35826" lon="3.33462">
        <ele>75</ele>
        <time>2021-08-12T08:39:32.000Z</time>
      </trkpt>
      <trkpt lat="49.35831" lon="3.33465">
        <ele>74.800003051758</ele>
        <time>2021-08-12T08:39:33.000Z</time>
      </trkpt>
      <trkpt lat="49.35835" lon="3.33468">
        <ele>74.599998474121</ele>
        <time>2021-08-12T08:39:34.000Z</time>
      </trkpt>
      <trkpt lat="49.35844" lon="3.3348">
        <ele>74.400001525879</ele>
        <time>2021-08-12T08:39:37.000Z</time>
      </trkpt>
      <trkpt lat="49.35856" lon="3.33499">
        <ele>74.199996948242</ele>
        <time>2021-08-12T08:39:42.000Z</time>
      </trkpt>
      <trkpt lat="49.35862" lon="3.33509">
        <ele>74</ele>
        <time>2021-08-12T08:39:46.000Z</time>
      </trkpt>
      <trkpt lat="49.35867" lon="3.33507">
        <ele>73.400001525879</ele>
        <time>2021-08-12T08:39:48.000Z</time>
      </trkpt>
      <trkpt lat="49.35869" lon="3.33504">
        <ele>73.199996948242</ele>
        <time>2021-08-12T08:39:49.000Z</time>
      </trkpt>
      <trkpt lat="49.35872" lon="3.33499">
        <ele>73</ele>
        <time>2021-08-12T08:39:50.000Z</time>
      </trkpt>
      <trkpt lat="49.35885" lon="3.33477">
        <ele>71.400001525879</ele>
        <time>2021-08-12T08:39:54.000Z</time>
      </trkpt>
      <trkpt lat="49.35894" lon="3.33466">
        <ele>70.400001525879</ele>
        <time>2021-08-12T08:39:56.000Z</time>
      </trkpt>
      <trkpt lat="49.35903" lon="3.33465">
        <ele>69.599998474121</ele>
        <time>2021-08-12T08:39:58.000Z</time>
      </trkpt>
      <trkpt lat="49.35915" lon="3.33466">
        <ele>68.800003051758</ele>
        <time>2021-08-12T08:40:01.000Z</time>
      </trkpt>
      <trkpt lat="49.35917" lon="3.33462">
        <ele>68.400001525879</ele>
        <time>2021-08-12T08:40:02.000Z</time>
      </trkpt>
      <trkpt lat="49.35919" lon="3.33444">
        <ele>67.599998474121</ele>
        <time>2021-08-12T08:40:05.000Z</time>
      </trkpt>
      <trkpt lat="49.35922" lon="3.3343">
        <ele>67.400001525879</ele>
        <time>2021-08-12T08:40:07.000Z</time>
      </trkpt>
      <trkpt lat="49.35928" lon="3.33416">
        <ele>66.400001525879</ele>
        <time>2021-08-12T08:40:09.000Z</time>
      </trkpt>
      <trkpt lat="49.35957" lon="3.33378">
        <ele>63.599998474121</ele>
        <time>2021-08-12T08:40:15.000Z</time>
      </trkpt>
      <trkpt lat="49.35963" lon="3.33372">
        <ele>63</ele>
        <time>2021-08-12T08:40:16.000Z</time>
      </trkpt>
      <trkpt lat="49.35973" lon="3.33358">
        <ele>61.599998474121</ele>
        <time>2021-08-12T08:40:18.000Z</time>
      </trkpt>
      <trkpt lat="49.35982" lon="3.33342">
        <ele>60.400001525879</ele>
        <time>2021-08-12T08:40:20.000Z</time>
      </trkpt>
      <trkpt lat="49.35992" lon="3.33329">
        <ele>59.400001525879</ele>
        <time>2021-08-12T08:40:22.000Z</time>
      </trkpt>
      <trkpt lat="49.35996" lon="3.33322">
        <ele>58.799999237061</ele>
        <time>2021-08-12T08:40:23.000Z</time>
      </trkpt>
      <trkpt lat="49.3602" lon="3.33275">
        <ele>57.200000762939</ele>
        <time>2021-08-12T08:40:29.000Z</time>
      </trkpt>
      <trkpt lat="49.36048" lon="3.33234">
        <ele>56.400001525879</ele>
        <time>2021-08-12T08:40:34.000Z</time>
      </trkpt>
      <trkpt lat="49.36071" lon="3.33207">
        <ele>55.400001525879</ele>
        <time>2021-08-12T08:40:38.000Z</time>
      </trkpt>
      <trkpt lat="49.36078" lon="3.33201">
        <ele>55.599998474121</ele>
        <time>2021-08-12T08:40:39.000Z</time>
      </trkpt>
      <trkpt lat="49.36117" lon="3.3317">
        <ele>53.799999237061</ele>
        <time>2021-08-12T08:40:45.000Z</time>
      </trkpt>
      <trkpt lat="49.36165" lon="3.33128">
        <ele>53.599998474121</ele>
        <time>2021-08-12T08:40:53.000Z</time>
      </trkpt>
      <trkpt lat="49.3621" lon="3.33086">
        <ele>53</ele>
        <time>2021-08-12T08:41:01.000Z</time>
      </trkpt>
      <trkpt lat="49.36252" lon="3.33056">
        <ele>52.799999237061</ele>
        <time>2021-08-12T08:41:08.000Z</time>
      </trkpt>
      <trkpt lat="49.36304" lon="3.33026">
        <ele>52.799999237061</ele>
        <time>2021-08-12T08:41:16.000Z</time>
      </trkpt>
      <trkpt lat="49.36311" lon="3.33022">
        <ele>52.400001525879</ele>
        <time>2021-08-12T08:41:17.000Z</time>
      </trkpt>
      <trkpt lat="49.3635" lon="3.32994">
        <ele>51</ele>
        <time>2021-08-12T08:41:23.000Z</time>
      </trkpt>
      <trkpt lat="49.36401" lon="3.32952">
        <ele>49</ele>
        <time>2021-08-12T08:41:31.000Z</time>
      </trkpt>
      <trkpt lat="49.36433" lon="3.32923">
        <ele>48.799999237061</ele>
        <time>2021-08-12T08:41:37.000Z</time>
      </trkpt>
      <trkpt lat="49.36437" lon="3.32919">
        <ele>48.799999237061</ele>
        <time>2021-08-12T08:41:38.000Z</time>
      </trkpt>
      <trkpt lat="49.36442" lon="3.32908">
        <ele>49</ele>
        <time>2021-08-12T08:41:41.000Z</time>
      </trkpt>
      <trkpt lat="49.3644" lon="3.32903">
        <ele>49</ele>
        <time>2021-08-12T08:41:43.000Z</time>
      </trkpt>
      <trkpt lat="49.36438" lon="3.32902">
        <ele>48.799999237061</ele>
        <time>2021-08-12T08:41:44.000Z</time>
      </trkpt>
      <trkpt lat="49.36437" lon="3.32901">
        <ele>48.799999237061</ele>
        <time>2021-08-12T08:41:45.000Z</time>
      </trkpt>
      <trkpt lat="49.36435" lon="3.32893">
        <ele>48.799999237061</ele>
        <time>2021-08-12T08:41:48.000Z</time>
      </trkpt>
      <trkpt lat="49.3643" lon="3.32874">
        <ele>48.599998474121</ele>
        <time>2021-08-12T08:41:52.000Z</time>
      </trkpt>
      <trkpt lat="49.3642" lon="3.32827">
        <ele>48.400001525879</ele>
        <time>2021-08-12T08:41:59.000Z</time>
      </trkpt>
      <trkpt lat="49.36413" lon="3.32772">
        <ele>49</ele>
        <time>2021-08-12T08:42:06.000Z</time>
      </trkpt>
      <trkpt lat="49.36409" lon="3.32717">
        <ele>48.799999237061</ele>
        <time>2021-08-12T08:42:13.000Z</time>
      </trkpt>
      <trkpt lat="49.36407" lon="3.32703">
        <ele>48.400001525879</ele>
        <time>2021-08-12T08:42:17.000Z</time>
      </trkpt>
      <trkpt lat="49.36405" lon="3.32686">
        <ele>48</ele>
        <time>2021-08-12T08:42:21.000Z</time>
      </trkpt>
      <trkpt lat="49.36404" lon="3.32657">
        <ele>48</ele>
        <time>2021-08-12T08:42:26.000Z</time>
      </trkpt>
      <trkpt lat="49.36408" lon="3.3261">
        <ele>47.400001525879</ele>
        <time>2021-08-12T08:42:32.000Z</time>
      </trkpt>
      <trkpt lat="49.36416" lon="3.32543">
        <ele>47</ele>
        <time>2021-08-12T08:42:40.000Z</time>
      </trkpt>
      <trkpt lat="49.36428" lon="3.32483">
        <ele>46.599998474121</ele>
        <time>2021-08-12T08:42:47.000Z</time>
      </trkpt>
      <trkpt lat="49.3643" lon="3.32475">
        <ele>46.200000762939</ele>
        <time>2021-08-12T08:42:48.000Z</time>
      </trkpt>
      <trkpt lat="49.3644" lon="3.32441">
        <ele>45</ele>
        <time>2021-08-12T08:42:52.000Z</time>
      </trkpt>
      <trkpt lat="49.36442" lon="3.32433">
        <ele>44.799999237061</ele>
        <time>2021-08-12T08:42:53.000Z</time>
      </trkpt>
      <trkpt lat="49.36447" lon="3.32411">
        <ele>44.200000762939</ele>
        <time>2021-08-12T08:42:56.000Z</time>
      </trkpt>
      <trkpt lat="49.36457" lon="3.32387">
        <ele>44</ele>
        <time>2021-08-12T08:43:01.000Z</time>
      </trkpt>
      <trkpt lat="49.36468" lon="3.32366">
        <ele>44</ele>
        <time>2021-08-12T08:43:07.000Z</time>
      </trkpt>
      <trkpt lat="49.36482" lon="3.32336">
        <ele>44.400001525879</ele>
        <time>2021-08-12T08:43:12.000Z</time>
      </trkpt>
      <trkpt lat="49.36509" lon="3.32287">
        <ele>45.400001525879</ele>
        <time>2021-08-12T08:43:20.000Z</time>
      </trkpt>
      <trkpt lat="49.36536" lon="3.32248">
        <ele>46.799999237061</ele>
        <time>2021-08-12T08:43:27.000Z</time>
      </trkpt>
      <trkpt lat="49.3657" lon="3.32211">
        <ele>47.799999237061</ele>
        <time>2021-08-12T08:43:35.000Z</time>
      </trkpt>
      <trkpt lat="49.36587" lon="3.32194">
        <ele>46.799999237061</ele>
        <time>2021-08-12T08:43:39.000Z</time>
      </trkpt>
      <trkpt lat="49.36597" lon="3.32187">
        <ele>47</ele>
        <time>2021-08-12T08:43:41.000Z</time>
      </trkpt>
      <trkpt lat="49.36622" lon="3.32171">
        <ele>46.400001525879</ele>
        <time>2021-08-12T08:43:46.000Z</time>
      </trkpt>
      <trkpt lat="49.36632" lon="3.32165">
        <ele>46.200000762939</ele>
        <time>2021-08-12T08:43:48.000Z</time>
      </trkpt>
      <trkpt lat="49.36666" lon="3.32145">
        <ele>45.599998474121</ele>
        <time>2021-08-12T08:43:55.000Z</time>
      </trkpt>
      <trkpt lat="49.36681" lon="3.32139">
        <ele>45.799999237061</ele>
        <time>2021-08-12T08:43:59.000Z</time>
      </trkpt>
      <trkpt lat="49.36697" lon="3.32131">
        <ele>45.599998474121</ele>
        <time>2021-08-12T08:44:04.000Z</time>
      </trkpt>
      <trkpt lat="49.36704" lon="3.32125">
        <ele>45</ele>
        <time>2021-08-12T08:44:07.000Z</time>
      </trkpt>
      <trkpt lat="49.36705" lon="3.32123">
        <ele>45</ele>
        <time>2021-08-12T08:44:08.000Z</time>
      </trkpt>
      <trkpt lat="49.36705" lon="3.32121">
        <ele>45</ele>
        <time>2021-08-12T08:44:09.000Z</time>
      </trkpt>
      <trkpt lat="49.36712" lon="3.32119">
        <ele>44.400001525879</ele>
        <time>2021-08-12T08:44:12.000Z</time>
      </trkpt>
      <trkpt lat="49.36727" lon="3.32112">
        <ele>43.599998474121</ele>
        <time>2021-08-12T08:44:16.000Z</time>
      </trkpt>
      <trkpt lat="49.36761" lon="3.32093">
        <ele>43</ele>
        <time>2021-08-12T08:44:23.000Z</time>
      </trkpt>
      <trkpt lat="49.3677" lon="3.32087">
        <ele>42.400001525879</ele>
        <time>2021-08-12T08:44:25.000Z</time>
      </trkpt>
      <trkpt lat="49.3679" lon="3.32076">
        <ele>42.599998474121</ele>
        <time>2021-08-12T08:44:29.000Z</time>
      </trkpt>
      <trkpt lat="49.36813" lon="3.32063">
        <ele>42.799999237061</ele>
        <time>2021-08-12T08:44:34.000Z</time>
      </trkpt>
      <trkpt lat="49.36823" lon="3.32058">
        <ele>43</ele>
        <time>2021-08-12T08:44:36.000Z</time>
      </trkpt>
      <trkpt lat="49.36841" lon="3.32046">
        <ele>43.799999237061</ele>
        <time>2021-08-12T08:44:40.000Z</time>
      </trkpt>
      <trkpt lat="49.36871" lon="3.32029">
        <ele>45</ele>
        <time>2021-08-12T08:44:46.000Z</time>
      </trkpt>
      <trkpt lat="49.36899" lon="3.32014">
        <ele>45.400001525879</ele>
        <time>2021-08-12T08:44:52.000Z</time>
      </trkpt>
      <trkpt lat="49.36906" lon="3.3201">
        <ele>45.200000762939</ele>
        <time>2021-08-12T08:44:54.000Z</time>
      </trkpt>
      <trkpt lat="49.36916" lon="3.32006">
        <ele>44.799999237061</ele>
        <time>2021-08-12T08:44:57.000Z</time>
      </trkpt>
      <trkpt lat="49.36917" lon="3.32004">
        <ele>44.799999237061</ele>
        <time>2021-08-12T08:44:58.000Z</time>
      </trkpt>
      <trkpt lat="49.36933" lon="3.31994">
        <ele>45</ele>
        <time>2021-08-12T08:45:03.000Z</time>
      </trkpt>
      <trkpt lat="49.36962" lon="3.31979">
        <ele>48.400001525879</ele>
        <time>2021-08-12T08:45:10.000Z</time>
      </trkpt>
      <trkpt lat="49.36997" lon="3.31958">
        <ele>51.400001525879</ele>
        <time>2021-08-12T08:45:18.000Z</time>
      </trkpt>
      <trkpt lat="49.37005" lon="3.3195">
        <ele>51.599998474121</ele>
        <time>2021-08-12T08:45:20.000Z</time>
      </trkpt>
      <trkpt lat="49.37018" lon="3.31942">
        <ele>51.200000762939</ele>
        <time>2021-08-12T08:45:23.000Z</time>
      </trkpt>
      <trkpt lat="49.37042" lon="3.3193">
        <ele>51.400001525879</ele>
        <time>2021-08-12T08:45:28.000Z</time>
      </trkpt>
      <trkpt lat="49.37056" lon="3.31923">
        <ele>51.400001525879</ele>
        <time>2021-08-12T08:45:31.000Z</time>
      </trkpt>
      <trkpt lat="49.37075" lon="3.31912">
        <ele>52</ele>
        <time>2021-08-12T08:45:35.000Z</time>
      </trkpt>
      <trkpt lat="49.37107" lon="3.31893">
        <ele>51.599998474121</ele>
        <time>2021-08-12T08:45:42.000Z</time>
      </trkpt>
      <trkpt lat="49.37129" lon="3.31878">
        <ele>50.400001525879</ele>
        <time>2021-08-12T08:45:47.000Z</time>
      </trkpt>
      <trkpt lat="49.37132" lon="3.31874">
        <ele>50.200000762939</ele>
        <time>2021-08-12T08:45:48.000Z</time>
      </trkpt>
      <trkpt lat="49.3714" lon="3.31865">
        <ele>49.799999237061</ele>
        <time>2021-08-12T08:45:52.000Z</time>
      </trkpt>
      <trkpt lat="49.37151" lon="3.31856">
        <ele>49.400001525879</ele>
        <time>2021-08-12T08:45:56.000Z</time>
      </trkpt>
      <trkpt lat="49.37174" lon="3.31834">
        <ele>50</ele>
        <time>2021-08-12T08:46:02.000Z</time>
      </trkpt>
      <trkpt lat="49.37207" lon="3.31801">
        <ele>50</ele>
        <time>2021-08-12T08:46:10.000Z</time>
      </trkpt>
      <trkpt lat="49.3723" lon="3.31776">
        <ele>50</ele>
        <time>2021-08-12T08:46:16.000Z</time>
      </trkpt>
      <trkpt lat="49.37246" lon="3.31758">
        <ele>50</ele>
        <time>2021-08-12T08:46:20.000Z</time>
      </trkpt>
      <trkpt lat="49.37254" lon="3.3175">
        <ele>50</ele>
        <time>2021-08-12T08:46:22.000Z</time>
      </trkpt>
      <trkpt lat="49.37284" lon="3.31718">
        <ele>49.400001525879</ele>
        <time>2021-08-12T08:46:29.000Z</time>
      </trkpt>
      <trkpt lat="49.37313" lon="3.31683">
        <ele>49.599998474121</ele>
        <time>2021-08-12T08:46:36.000Z</time>
      </trkpt>
      <trkpt lat="49.37343" lon="3.3165">
        <ele>50.400001525879</ele>
        <time>2021-08-12T08:46:43.000Z</time>
      </trkpt>
      <trkpt lat="49.37381" lon="3.31607">
        <ele>51</ele>
        <time>2021-08-12T08:46:52.000Z</time>
      </trkpt>
      <trkpt lat="49.37385" lon="3.31602">
        <ele>51</ele>
        <time>2021-08-12T08:46:53.000Z</time>
      </trkpt>
      <trkpt lat="49.37395" lon="3.31593">
        <ele>51</ele>
        <time>2021-08-12T08:46:56.000Z</time>
      </trkpt>
      <trkpt lat="49.37406" lon="3.31583">
        <ele>51</ele>
        <time>2021-08-12T08:47:00.000Z</time>
      </trkpt>
      <trkpt lat="49.37411" lon="3.31572">
        <ele>50.799999237061</ele>
        <time>2021-08-12T08:47:03.000Z</time>
      </trkpt>
      <trkpt lat="49.37429" lon="3.31553">
        <ele>50</ele>
        <time>2021-08-12T08:47:08.000Z</time>
      </trkpt>
      <trkpt lat="49.37454" lon="3.31528">
        <ele>49</ele>
        <time>2021-08-12T08:47:14.000Z</time>
      </trkpt>
      <trkpt lat="49.37466" lon="3.31515">
        <ele>48.799999237061</ele>
        <time>2021-08-12T08:47:18.000Z</time>
      </trkpt>
      <trkpt lat="49.37466" lon="3.31514">
        <ele>49</ele>
        <time>2021-08-12T08:47:20.000Z</time>
      </trkpt>
      <trkpt lat="49.37468" lon="3.31512">
        <ele>49</ele>
        <time>2021-08-12T08:47:29.000Z</time>
      </trkpt>
      <trkpt lat="49.3747" lon="3.3151">
        <ele>49</ele>
        <time>2021-08-12T08:47:30.000Z</time>
      </trkpt>
      <trkpt lat="49.37484" lon="3.31495">
        <ele>49.599998474121</ele>
        <time>2021-08-12T08:47:35.000Z</time>
      </trkpt>
      <trkpt lat="49.37487" lon="3.31491">
        <ele>49.599998474121</ele>
        <time>2021-08-12T08:47:36.000Z</time>
      </trkpt>
      <trkpt lat="49.37504" lon="3.31468">
        <ele>48.400001525879</ele>
        <time>2021-08-12T08:47:41.000Z</time>
      </trkpt>
      <trkpt lat="49.37531" lon="3.31433">
        <ele>48</ele>
        <time>2021-08-12T08:47:48.000Z</time>
      </trkpt>
      <trkpt lat="49.37542" lon="3.31418">
        <ele>47.799999237061</ele>
        <time>2021-08-12T08:47:51.000Z</time>
      </trkpt>
      <trkpt lat="49.37551" lon="3.3141">
        <ele>48</ele>
        <time>2021-08-12T08:47:53.000Z</time>
      </trkpt>
      <trkpt lat="49.37559" lon="3.314">
        <ele>47.799999237061</ele>
        <time>2021-08-12T08:47:55.000Z</time>
      </trkpt>
      <trkpt lat="49.3757" lon="3.31384">
        <ele>47.599998474121</ele>
        <time>2021-08-12T08:47:58.000Z</time>
      </trkpt>
      <trkpt lat="49.37597" lon="3.31346">
        <ele>47.200000762939</ele>
        <time>2021-08-12T08:48:05.000Z</time>
      </trkpt>
      <trkpt lat="49.37624" lon="3.31302">
        <ele>47</ele>
        <time>2021-08-12T08:48:12.000Z</time>
      </trkpt>
      <trkpt lat="49.37649" lon="3.31258">
        <ele>46</ele>
        <time>2021-08-12T08:48:19.000Z</time>
      </trkpt>
      <trkpt lat="49.37675" lon="3.31212">
        <ele>45</ele>
        <time>2021-08-12T08:48:26.000Z</time>
      </trkpt>
      <trkpt lat="49.37694" lon="3.31173">
        <ele>45.200000762939</ele>
        <time>2021-08-12T08:48:32.000Z</time>
      </trkpt>
      <trkpt lat="49.37697" lon="3.31166">
        <ele>45.200000762939</ele>
        <time>2021-08-12T08:48:35.000Z</time>
      </trkpt>
      <trkpt lat="49.37697" lon="3.31166">
        <ele>45.200000762939</ele>
        <time>2021-08-12T08:48:36.000Z</time>
      </trkpt>
      <trkpt lat="49.377" lon="3.3116">
        <ele>45.400001525879</ele>
        <time>2021-08-12T08:48:49.000Z</time>
      </trkpt>
      <trkpt lat="49.37703" lon="3.31154">
        <ele>45.400001525879</ele>
        <time>2021-08-12T08:48:51.000Z</time>
      </trkpt>
      <trkpt lat="49.37713" lon="3.31132">
        <ele>45</ele>
        <time>2021-08-12T08:48:58.000Z</time>
      </trkpt>
      <trkpt lat="49.37717" lon="3.31129">
        <ele>44.799999237061</ele>
        <time>2021-08-12T08:49:03.000Z</time>
      </trkpt>
      <trkpt lat="49.3772" lon="3.31127">
        <ele>44.799999237061</ele>
        <time>2021-08-12T08:49:08.000Z</time>
      </trkpt>
      <trkpt lat="49.37724" lon="3.31122">
        <ele>44.599998474121</ele>
        <time>2021-08-12T08:49:10.000Z</time>
      </trkpt>
      <trkpt lat="49.37739" lon="3.31102">
        <ele>43.799999237061</ele>
        <time>2021-08-12T08:49:16.000Z</time>
      </trkpt>
      <trkpt lat="49.37737" lon="3.3109">
        <ele>43.400001525879</ele>
        <time>2021-08-12T08:49:19.000Z</time>
      </trkpt>
      <trkpt lat="49.37745" lon="3.31066">
        <ele>43</ele>
        <time>2021-08-12T08:49:23.000Z</time>
      </trkpt>
      <trkpt lat="49.3775" lon="3.3105">
        <ele>43</ele>
        <time>2021-08-12T08:49:27.000Z</time>
      </trkpt>
      <trkpt lat="49.3775" lon="3.31049">
        <ele>43</ele>
        <time>2021-08-12T08:49:31.000Z</time>
      </trkpt>
      <trkpt lat="49.37751" lon="3.31045">
        <ele>43</ele>
        <time>2021-08-12T08:49:38.000Z</time>
      </trkpt>
      <trkpt lat="49.37754" lon="3.31037">
        <ele>43</ele>
        <time>2021-08-12T08:49:40.000Z</time>
      </trkpt>
      <trkpt lat="49.37764" lon="3.3101">
        <ele>43.400001525879</ele>
        <time>2021-08-12T08:49:45.000Z</time>
      </trkpt>
      <trkpt lat="49.3778" lon="3.30963">
        <ele>43.799999237061</ele>
        <time>2021-08-12T08:49:52.000Z</time>
      </trkpt>
      <trkpt lat="49.37783" lon="3.30956">
        <ele>43.799999237061</ele>
        <time>2021-08-12T08:49:53.000Z</time>
      </trkpt>
      <trkpt lat="49.378" lon="3.30898">
        <ele>42.599998474121</ele>
        <time>2021-08-12T08:50:01.000Z</time>
      </trkpt>
      <trkpt lat="49.37818" lon="3.30832">
        <ele>41.599998474121</ele>
        <time>2021-08-12T08:50:10.000Z</time>
      </trkpt>
      <trkpt lat="49.37819" lon="3.30825">
        <ele>41.400001525879</ele>
        <time>2021-08-12T08:50:11.000Z</time>
      </trkpt>
      <trkpt lat="49.37824" lon="3.30803">
        <ele>42</ele>
        <time>2021-08-12T08:50:14.000Z</time>
      </trkpt>
      <trkpt lat="49.37839" lon="3.3073">
        <ele>44.400001525879</ele>
        <time>2021-08-12T08:50:23.000Z</time>
      </trkpt>
      <trkpt lat="49.37849" lon="3.3067">
        <ele>44</ele>
        <time>2021-08-12T08:50:30.000Z</time>
      </trkpt>
      <trkpt lat="49.37857" lon="3.30612">
        <ele>43.200000762939</ele>
        <time>2021-08-12T08:50:37.000Z</time>
      </trkpt>
      <trkpt lat="49.37861" lon="3.30581">
        <ele>43</ele>
        <time>2021-08-12T08:50:42.000Z</time>
      </trkpt>
      <trkpt lat="49.37861" lon="3.30579">
        <ele>43</ele>
        <time>2021-08-12T08:50:45.000Z</time>
      </trkpt>
      <trkpt lat="49.3786" lon="3.30569">
        <ele>43</ele>
        <time>2021-08-12T08:51:01.000Z</time>
      </trkpt>
      <trkpt lat="49.37861" lon="3.30561">
        <ele>43</ele>
        <time>2021-08-12T08:51:03.000Z</time>
      </trkpt>
      <trkpt lat="49.37865" lon="3.30533">
        <ele>43.599998474121</ele>
        <time>2021-08-12T08:51:08.000Z</time>
      </trkpt>
      <trkpt lat="49.37867" lon="3.30504">
        <ele>43.599998474121</ele>
        <time>2021-08-12T08:51:12.000Z</time>
      </trkpt>
      <trkpt lat="49.37868" lon="3.30497">
        <ele>43.599998474121</ele>
        <time>2021-08-12T08:51:13.000Z</time>
      </trkpt>
      <trkpt lat="49.3787" lon="3.30482">
        <ele>43.599998474121</ele>
        <time>2021-08-12T08:51:15.000Z</time>
      </trkpt>
      <trkpt lat="49.37871" lon="3.30459">
        <ele>43.599998474121</ele>
        <time>2021-08-12T08:51:18.000Z</time>
      </trkpt>
      <trkpt lat="49.37871" lon="3.30444">
        <ele>43.599998474121</ele>
        <time>2021-08-12T08:51:20.000Z</time>
      </trkpt>
      <trkpt lat="49.37872" lon="3.30422">
        <ele>43.400001525879</ele>
        <time>2021-08-12T08:51:23.000Z</time>
      </trkpt>
      <trkpt lat="49.37874" lon="3.30361">
        <ele>42.799999237061</ele>
        <time>2021-08-12T08:51:31.000Z</time>
      </trkpt>
      <trkpt lat="49.37875" lon="3.30257">
        <ele>44</ele>
      </trkpt>
      <trkpt lat="49.37814" lon="3.30134">
        <ele>42.799999237061</ele>
        <time>2021-08-12T08:58:47.000Z</time>
      </trkpt>
      <trkpt lat="49.37793" lon="3.30093">
        <ele>43.799999237061</ele>
        <time>2021-08-12T08:58:54.000Z</time>
      </trkpt>
      <trkpt lat="49.37772" lon="3.3005">
        <ele>42.200000762939</ele>
        <time>2021-08-12T08:59:01.000Z</time>
      </trkpt>
      <trkpt lat="49.37752" lon="3.30014">
        <ele>41</ele>
        <time>2021-08-12T08:59:07.000Z</time>
      </trkpt>
      <trkpt lat="49.37725" lon="3.29957">
        <ele>40</ele>
        <time>2021-08-12T08:59:16.000Z</time>
      </trkpt>
      <trkpt lat="49.37711" lon="3.29906">
        <ele>40.799999237061</ele>
        <time>2021-08-12T08:59:23.000Z</time>
      </trkpt>
      <trkpt lat="49.37699" lon="3.29848">
        <ele>41.799999237061</ele>
        <time>2021-08-12T08:59:31.000Z</time>
      </trkpt>
      <trkpt lat="49.37686" lon="3.29794">
        <ele>41.400001525879</ele>
        <time>2021-08-12T08:59:38.000Z</time>
      </trkpt>
      <trkpt lat="49.37668" lon="3.2972">
        <ele>43.599998474121</ele>
        <time>2021-08-12T08:59:48.000Z</time>
      </trkpt>
      <trkpt lat="49.37659" lon="3.29684">
        <ele>44.200000762939</ele>
        <time>2021-08-12T08:59:53.000Z</time>
      </trkpt>
      <trkpt lat="49.37656" lon="3.29672">
        <ele>44.200000762939</ele>
        <time>2021-08-12T08:59:55.000Z</time>
      </trkpt>
      <trkpt lat="49.37649" lon="3.29638">
        <ele>43.599998474121</ele>
        <time>2021-08-12T09:00:01.000Z</time>
      </trkpt>
      <trkpt lat="49.37641" lon="3.29612">
        <ele>43</ele>
        <time>2021-08-12T09:00:06.000Z</time>
      </trkpt>
      <trkpt lat="49.37635" lon="3.29579">
        <ele>43</ele>
        <time>2021-08-12T09:00:12.000Z</time>
      </trkpt>
      <trkpt lat="49.37622" lon="3.29534">
        <ele>43</ele>
        <time>2021-08-12T09:00:21.000Z</time>
      </trkpt>
      <trkpt lat="49.37607" lon="3.29495">
        <ele>44</ele>
        <time>2021-08-12T09:00:29.000Z</time>
      </trkpt>
      <trkpt lat="49.37586" lon="3.29455">
        <ele>44.400001525879</ele>
        <time>2021-08-12T09:00:37.000Z</time>
      </trkpt>
      <trkpt lat="49.37564" lon="3.29414">
        <ele>43.599998474121</ele>
        <time>2021-08-12T09:00:44.000Z</time>
      </trkpt>
      <trkpt lat="49.37537" lon="3.29356">
        <ele>44.599998474121</ele>
        <time>2021-08-12T09:00:52.000Z</time>
      </trkpt>
      <trkpt lat="49.37521" lon="3.29303">
        <ele>45.799999237061</ele>
        <time>2021-08-12T09:00:58.000Z</time>
      </trkpt>
      <trkpt lat="49.3751" lon="3.29243">
        <ele>48.599998474121</ele>
        <time>2021-08-12T09:01:05.000Z</time>
      </trkpt>
      <trkpt lat="49.375" lon="3.29197">
        <ele>50.400001525879</ele>
        <time>2021-08-12T09:01:11.000Z</time>
      </trkpt>
      <trkpt lat="49.37498" lon="3.29189">
        <ele>50.799999237061</ele>
        <time>2021-08-12T09:01:12.000Z</time>
      </trkpt>
      <trkpt lat="49.37494" lon="3.29175">
        <ele>50.799999237061</ele>
        <time>2021-08-12T09:01:14.000Z</time>
      </trkpt>
      <trkpt lat="49.37491" lon="3.29154">
        <ele>50.200000762939</ele>
        <time>2021-08-12T09:01:17.000Z</time>
      </trkpt>
      <trkpt lat="49.3749" lon="3.29147">
        <ele>49.599998474121</ele>
        <time>2021-08-12T09:01:18.000Z</time>
      </trkpt>
      <trkpt lat="49.37491" lon="3.29132">
        <ele>48.599998474121</ele>
        <time>2021-08-12T09:01:20.000Z</time>
      </trkpt>
      <trkpt lat="49.3749" lon="3.29119">
        <ele>48.799999237061</ele>
        <time>2021-08-12T09:01:22.000Z</time>
      </trkpt>
      <trkpt lat="49.37489" lon="3.29107">
        <ele>48.799999237061</ele>
        <time>2021-08-12T09:01:24.000Z</time>
      </trkpt>
      <trkpt lat="49.37485" lon="3.29071">
        <ele>50.200000762939</ele>
        <time>2021-08-12T09:01:30.000Z</time>
      </trkpt>
      <trkpt lat="49.37481" lon="3.29034">
        <ele>52.200000762939</ele>
        <time>2021-08-12T09:01:37.000Z</time>
      </trkpt>
      <trkpt lat="49.37479" lon="3.28998">
        <ele>53.599998474121</ele>
        <time>2021-08-12T09:01:45.000Z</time>
      </trkpt>
      <trkpt lat="49.37479" lon="3.28968">
        <ele>54.599998474121</ele>
        <time>2021-08-12T09:01:53.000Z</time>
      </trkpt>
      <trkpt lat="49.37477" lon="3.28947">
        <ele>56.200000762939</ele>
        <time>2021-08-12T09:01:59.000Z</time>
      </trkpt>
      <trkpt lat="49.37469" lon="3.28935">
        <ele>57.400001525879</ele>
        <time>2021-08-12T09:02:04.000Z</time>
      </trkpt>
      <trkpt lat="49.37455" lon="3.28926">
        <ele>59.400001525879</ele>
        <time>2021-08-12T09:02:11.000Z</time>
      </trkpt>
      <trkpt lat="49.37442" lon="3.28916">
        <ele>61.400001525879</ele>
        <time>2021-08-12T09:02:18.000Z</time>
      </trkpt>
      <trkpt lat="49.37428" lon="3.28897">
        <ele>64</ele>
        <time>2021-08-12T09:02:27.000Z</time>
      </trkpt>
      <trkpt lat="49.3742" lon="3.2888">
        <ele>66.199996948242</ele>
        <time>2021-08-12T09:02:34.000Z</time>
      </trkpt>
      <trkpt lat="49.37412" lon="3.28863">
        <ele>68.800003051758</ele>
        <time>2021-08-12T09:02:42.000Z</time>
      </trkpt>
      <trkpt lat="49.37407" lon="3.28846">
        <ele>71</ele>
        <time>2021-08-12T09:02:49.000Z</time>
      </trkpt>
      <trkpt lat="49.37405" lon="3.28822">
        <ele>74</ele>
        <time>2021-08-12T09:02:58.000Z</time>
      </trkpt>
      <trkpt lat="49.37406" lon="3.28813">
        <ele>75.400001525879</ele>
        <time>2021-08-12T09:03:02.000Z</time>
      </trkpt>
      <trkpt lat="49.37408" lon="3.28809">
        <ele>76</ele>
        <time>2021-08-12T09:03:04.000Z</time>
      </trkpt>
      <trkpt lat="49.37414" lon="3.28794">
        <ele>78.400001525879</ele>
        <time>2021-08-12T09:03:11.000Z</time>
      </trkpt>
      <trkpt lat="49.37424" lon="3.28781">
        <ele>79.599998474121</ele>
        <time>2021-08-12T09:03:18.000Z</time>
      </trkpt>
      <trkpt lat="49.37433" lon="3.28769">
        <ele>80.800003051758</ele>
        <time>2021-08-12T09:03:24.000Z</time>
      </trkpt>
      <trkpt lat="49.37433" lon="3.28766">
        <ele>81</ele>
        <time>2021-08-12T09:03:25.000Z</time>
      </trkpt>
      <trkpt lat="49.37429" lon="3.28753">
        <ele>81.199996948242</ele>
        <time>2021-08-12T09:03:30.000Z</time>
      </trkpt>
      <trkpt lat="49.37421" lon="3.28737">
        <ele>81.599998474121</ele>
        <time>2021-08-12T09:03:37.000Z</time>
      </trkpt>
      <trkpt lat="49.37418" lon="3.28725">
        <ele>81.800003051758</ele>
        <time>2021-08-12T09:03:42.000Z</time>
      </trkpt>
      <trkpt lat="49.37417" lon="3.28723">
        <ele>81.800003051758</ele>
        <time>2021-08-12T09:03:44.000Z</time>
      </trkpt>
      <trkpt lat="49.37415" lon="3.28718">
        <ele>82</ele>
        <time>2021-08-12T09:03:46.000Z</time>
      </trkpt>
      <trkpt lat="49.37413" lon="3.28716">
        <ele>82</ele>
        <time>2021-08-12T09:03:47.000Z</time>
      </trkpt>
      <trkpt lat="49.37408" lon="3.28702">
        <ele>83</ele>
        <time>2021-08-12T09:03:52.000Z</time>
      </trkpt>
      <trkpt lat="49.37405" lon="3.28691">
        <ele>83.800003051758</ele>
        <time>2021-08-12T09:03:56.000Z</time>
      </trkpt>
      <trkpt lat="49.37403" lon="3.28686">
        <ele>84.199996948242</ele>
        <time>2021-08-12T09:03:58.000Z</time>
      </trkpt>
      <trkpt lat="49.37399" lon="3.28674">
        <ele>85.599998474121</ele>
        <time>2021-08-12T09:04:03.000Z</time>
      </trkpt>
      <trkpt lat="49.37393" lon="3.28662">
        <ele>87.199996948242</ele>
        <time>2021-08-12T09:04:08.000Z</time>
      </trkpt>
      <trkpt lat="49.37391" lon="3.2866">
        <ele>87.400001525879</ele>
        <time>2021-08-12T09:04:09.000Z</time>
      </trkpt>
      <trkpt lat="49.37388" lon="3.28654">
        <ele>88.199996948242</ele>
        <time>2021-08-12T09:04:12.000Z</time>
      </trkpt>
      <trkpt lat="49.37386" lon="3.2865">
        <ele>88.800003051758</ele>
        <time>2021-08-12T09:04:14.000Z</time>
      </trkpt>
      <trkpt lat="49.3738" lon="3.28641">
        <ele>89.800003051758</ele>
        <time>2021-08-12T09:04:19.000Z</time>
      </trkpt>
      <trkpt lat="49.37373" lon="3.2863">
        <ele>91.199996948242</ele>
        <time>2021-08-12T09:04:26.000Z</time>
      </trkpt>
      <trkpt lat="49.37362" lon="3.28599">
        <ele>94.199996948242</ele>
        <time>2021-08-12T09:04:41.000Z</time>
      </trkpt>
      <trkpt lat="49.37361" lon="3.28592">
        <ele>95</ele>
        <time>2021-08-12T09:04:44.000Z</time>
      </trkpt>
      <trkpt lat="49.37358" lon="3.28579">
        <ele>96.800003051758</ele>
        <time>2021-08-12T09:04:49.000Z</time>
      </trkpt>
      <trkpt lat="49.37357" lon="3.28567">
        <ele>98.599998474121</ele>
        <time>2021-08-12T09:04:54.000Z</time>
      </trkpt>
      <trkpt lat="49.37357" lon="3.28553">
        <ele>100.59999847412</ele>
        <time>2021-08-12T09:04:59.000Z</time>
      </trkpt>
      <trkpt lat="49.37359" lon="3.2854">
        <ele>101.59999847412</ele>
        <time>2021-08-12T09:05:04.000Z</time>
      </trkpt>
      <trkpt lat="49.37358" lon="3.28521">
        <ele>104</ele>
        <time>2021-08-12T09:05:11.000Z</time>
      </trkpt>
      <trkpt lat="49.37356" lon="3.28505">
        <ele>106.40000152588</ele>
        <time>2021-08-12T09:05:17.000Z</time>
      </trkpt>
      <trkpt lat="49.37355" lon="3.28498">
        <ele>107.59999847412</ele>
        <time>2021-08-12T09:05:20.000Z</time>
      </trkpt>
      <trkpt lat="49.37354" lon="3.2849">
        <ele>108.59999847412</ele>
        <time>2021-08-12T09:05:23.000Z</time>
      </trkpt>
      <trkpt lat="49.37352" lon="3.28475">
        <ele>110.19999694824</ele>
        <time>2021-08-12T09:05:28.000Z</time>
      </trkpt>
      <trkpt lat="49.37348" lon="3.28459">
        <ele>112</ele>
        <time>2021-08-12T09:05:35.000Z</time>
      </trkpt>
      <trkpt lat="49.37344" lon="3.28447">
        <ele>114</ele>
        <time>2021-08-12T09:05:41.000Z</time>
      </trkpt>
      <trkpt lat="49.37343" lon="3.28444">
        <ele>114.59999847412</ele>
        <time>2021-08-12T09:05:43.000Z</time>
      </trkpt>
      <trkpt lat="49.37336" lon="3.2843">
        <ele>117.19999694824</ele>
        <time>2021-08-12T09:05:50.000Z</time>
      </trkpt>
      <trkpt lat="49.37334" lon="3.28426">
        <ele>117.80000305176</ele>
        <time>2021-08-12T09:05:52.000Z</time>
      </trkpt>
      <trkpt lat="49.37327" lon="3.28412">
        <ele>119.40000152588</ele>
        <time>2021-08-12T09:05:58.000Z</time>
      </trkpt>
      <trkpt lat="49.37321" lon="3.28398">
        <ele>120.59999847412</ele>
        <time>2021-08-12T09:06:05.000Z</time>
      </trkpt>
      <trkpt lat="49.3732" lon="3.28396">
        <ele>120.80000305176</ele>
        <time>2021-08-12T09:06:06.000Z</time>
      </trkpt>
      <trkpt lat="49.37319" lon="3.28393">
        <ele>121</ele>
        <time>2021-08-12T09:06:08.000Z</time>
      </trkpt>
      <trkpt lat="49.37317" lon="3.28389">
        <ele>121.19999694824</ele>
        <time>2021-08-12T09:06:10.000Z</time>
      </trkpt>
      <trkpt lat="49.37314" lon="3.28372">
        <ele>121.80000305176</ele>
        <time>2021-08-12T09:06:17.000Z</time>
      </trkpt>
      <trkpt lat="49.3731" lon="3.28355">
        <ele>122.80000305176</ele>
        <time>2021-08-12T09:06:24.000Z</time>
      </trkpt>
      <trkpt lat="49.37306" lon="3.28346">
        <ele>123.40000152588</ele>
        <time>2021-08-12T09:06:31.000Z</time>
      </trkpt>
      <trkpt lat="49.37301" lon="3.28333">
        <ele>124.19999694824</ele>
        <time>2021-08-12T09:06:37.000Z</time>
      </trkpt>
      <trkpt lat="49.37298" lon="3.28325">
        <ele>124.40000152588</ele>
        <time>2021-08-12T09:06:41.000Z</time>
      </trkpt>
      <trkpt lat="49.37292" lon="3.2831">
        <ele>125</ele>
        <time>2021-08-12T09:06:48.000Z</time>
      </trkpt>
      <trkpt lat="49.37289" lon="3.28304">
        <ele>125.40000152588</ele>
        <time>2021-08-12T09:06:51.000Z</time>
      </trkpt>
      <trkpt lat="49.37288" lon="3.28298">
        <ele>125.59999847412</ele>
        <time>2021-08-12T09:06:54.000Z</time>
      </trkpt>
      <trkpt lat="49.37268" lon="3.2824">
        <ele>128.39999389648</ele>
        <time>2021-08-12T09:07:23.000Z</time>
      </trkpt>
      <trkpt lat="49.37271" lon="3.28235">
        <ele>128.19999694824</ele>
        <time>2021-08-12T09:07:26.000Z</time>
      </trkpt>
      <trkpt lat="49.37271" lon="3.28234">
        <ele>128.19999694824</ele>
        <time>2021-08-12T09:07:27.000Z</time>
      </trkpt>
      <trkpt lat="49.37278" lon="3.28225">
        <ele>127.80000305176</ele>
        <time>2021-08-12T09:08:00.000Z</time>
      </trkpt>
      <trkpt lat="49.37282" lon="3.28217">
        <ele>127.59999847412</ele>
        <time>2021-08-12T09:08:03.000Z</time>
      </trkpt>
      <trkpt lat="49.37291" lon="3.282">
        <ele>127.40000152588</ele>
        <time>2021-08-12T09:08:09.000Z</time>
      </trkpt>
      <trkpt lat="49.37298" lon="3.28192">
        <ele>127.19999694824</ele>
        <time>2021-08-12T09:08:14.000Z</time>
      </trkpt>
      <trkpt lat="49.37301" lon="3.28191">
        <ele>127</ele>
        <time>2021-08-12T09:08:15.000Z</time>
      </trkpt>
      <trkpt lat="49.37314" lon="3.28182">
        <ele>126.59999847412</ele>
        <time>2021-08-12T09:08:19.000Z</time>
      </trkpt>
      <trkpt lat="49.37326" lon="3.28171">
        <ele>125.19999694824</ele>
        <time>2021-08-12T09:08:22.000Z</time>
      </trkpt>
      <trkpt lat="49.37344" lon="3.2815">
        <ele>119.80000305176</ele>
        <time>2021-08-12T09:08:27.000Z</time>
      </trkpt>
      <trkpt lat="49.37365" lon="3.28133">
        <ele>111.19999694824</ele>
        <time>2021-08-12T09:08:32.000Z</time>
      </trkpt>
      <trkpt lat="49.37385" lon="3.2812">
        <ele>105.80000305176</ele>
        <time>2021-08-12T09:08:37.000Z</time>
      </trkpt>
      <trkpt lat="49.37405" lon="3.28106">
        <ele>103</ele>
        <time>2021-08-12T09:08:42.000Z</time>
      </trkpt>
      <trkpt lat="49.37409" lon="3.28104">
        <ele>102.40000152588</ele>
        <time>2021-08-12T09:08:43.000Z</time>
      </trkpt>
      <trkpt lat="49.37419" lon="3.28097">
        <ele>101.19999694824</ele>
        <time>2021-08-12T09:08:45.000Z</time>
      </trkpt>
      <trkpt lat="49.37424" lon="3.28095">
        <ele>100.40000152588</ele>
        <time>2021-08-12T09:08:46.000Z</time>
      </trkpt>
      <trkpt lat="49.37448" lon="3.28083">
        <ele>97.599998474121</ele>
        <time>2021-08-12T09:08:51.000Z</time>
      </trkpt>
      <trkpt lat="49.37455" lon="3.28079">
        <ele>96.199996948242</ele>
        <time>2021-08-12T09:08:53.000Z</time>
      </trkpt>
      <trkpt lat="49.37459" lon="3.28072">
        <ele>95.199996948242</ele>
        <time>2021-08-12T09:08:55.000Z</time>
      </trkpt>
      <trkpt lat="49.37466" lon="3.28044">
        <ele>92.199996948242</ele>
        <time>2021-08-12T09:09:00.000Z</time>
      </trkpt>
      <trkpt lat="49.37469" lon="3.28015">
        <ele>88.800003051758</ele>
        <time>2021-08-12T09:09:05.000Z</time>
      </trkpt>
      <trkpt lat="49.37483" lon="3.27977">
        <ele>81.199996948242</ele>
        <time>2021-08-12T09:09:10.000Z</time>
      </trkpt>
      <trkpt lat="49.37493" lon="3.27953">
        <ele>76.800003051758</ele>
        <time>2021-08-12T09:09:14.000Z</time>
      </trkpt>
      <trkpt lat="49.37496" lon="3.27947">
        <ele>75.400001525879</ele>
        <time>2021-08-12T09:09:15.000Z</time>
      </trkpt>
      <trkpt lat="49.37502" lon="3.27934">
        <ele>71.800003051758</ele>
        <time>2021-08-12T09:09:17.000Z</time>
      </trkpt>
      <trkpt lat="49.37508" lon="3.27922">
        <ele>68.400001525879</ele>
        <time>2021-08-12T09:09:19.000Z</time>
      </trkpt>
      <trkpt lat="49.3751" lon="3.27915">
        <ele>67.400001525879</ele>
        <time>2021-08-12T09:09:20.000Z</time>
      </trkpt>
      <trkpt lat="49.37516" lon="3.27885">
        <ele>61.799999237061</ele>
        <time>2021-08-12T09:09:24.000Z</time>
      </trkpt>
      <trkpt lat="49.37525" lon="3.27845">
        <ele>57.599998474121</ele>
        <time>2021-08-12T09:09:28.000Z</time>
      </trkpt>
      <trkpt lat="49.37537" lon="3.27777">
        <ele>55</ele>
        <time>2021-08-12T09:09:34.000Z</time>
      </trkpt>
      <trkpt lat="49.37541" lon="3.27767">
        <ele>55</ele>
        <time>2021-08-12T09:09:35.000Z</time>
      </trkpt>
      <trkpt lat="49.37545" lon="3.27758">
        <ele>55</ele>
        <time>2021-08-12T09:09:36.000Z</time>
      </trkpt>
      <trkpt lat="49.37554" lon="3.27743">
        <ele>54.799999237061</ele>
        <time>2021-08-12T09:09:38.000Z</time>
      </trkpt>
      <trkpt lat="49.37576" lon="3.27714">
        <ele>53.400001525879</ele>
        <time>2021-08-12T09:09:43.000Z</time>
      </trkpt>
      <trkpt lat="49.37579" lon="3.27709">
        <ele>53.200000762939</ele>
        <time>2021-08-12T09:09:44.000Z</time>
      </trkpt>
      <trkpt lat="49.3759" lon="3.27709">
        <ele>52.799999237061</ele>
        <time>2021-08-12T09:09:46.000Z</time>
      </trkpt>
      <trkpt lat="49.37629" lon="3.27726">
        <ele>51.599998474121</ele>
        <time>2021-08-12T09:09:52.000Z</time>
      </trkpt>
      <trkpt lat="49.37636" lon="3.27727">
        <ele>51.599998474121</ele>
        <time>2021-08-12T09:09:53.000Z</time>
      </trkpt>
      <trkpt lat="49.37665" lon="3.27734">
        <ele>50.599998474121</ele>
        <time>2021-08-12T09:09:57.000Z</time>
      </trkpt>
      <trkpt lat="49.37679" lon="3.27743">
        <ele>49.799999237061</ele>
        <time>2021-08-12T09:09:59.000Z</time>
      </trkpt>
      <trkpt lat="49.37691" lon="3.27755">
        <ele>49</ele>
        <time>2021-08-12T09:10:01.000Z</time>
      </trkpt>
      <trkpt lat="49.3771" lon="3.27778">
        <ele>47</ele>
        <time>2021-08-12T09:10:47.000Z</time>
      </trkpt>
      <trkpt lat="49.37733" lon="3.27806">
        <ele>45.400001525879</ele>
        <time>2021-08-12T09:10:53.000Z</time>
      </trkpt>
      <trkpt lat="49.37765" lon="3.27842">
        <ele>44.400001525879</ele>
        <time>2021-08-12T09:11:00.000Z</time>
      </trkpt>
      <trkpt lat="49.37769" lon="3.27848">
        <ele>44.200000762939</ele>
        <time>2021-08-12T09:11:01.000Z</time>
      </trkpt>
      <trkpt lat="49.37788" lon="3.27871">
        <ele>43.599998474121</ele>
        <time>2021-08-12T09:11:05.000Z</time>
      </trkpt>
      <trkpt lat="49.37792" lon="3.27878">
        <ele>43.400001525879</ele>
        <time>2021-08-12T09:11:06.000Z</time>
      </trkpt>
      <trkpt lat="49.37799" lon="3.27894">
        <ele>43.200000762939</ele>
        <time>2021-08-12T09:11:08.000Z</time>
      </trkpt>
      <trkpt lat="49.37801" lon="3.27903">
        <ele>43</ele>
        <time>2021-08-12T09:11:09.000Z</time>
      </trkpt>
      <trkpt lat="49.37803" lon="3.27912">
        <ele>43</ele>
        <time>2021-08-12T09:11:10.000Z</time>
      </trkpt>
      <trkpt lat="49.37804" lon="3.27941">
        <ele>43</ele>
        <time>2021-08-12T09:11:13.000Z</time>
      </trkpt>
      <trkpt lat="49.37803" lon="3.28018">
        <ele>42</ele>
        <time>2021-08-12T09:11:21.000Z</time>
      </trkpt>
      <trkpt lat="49.37801" lon="3.28038">
        <ele>41.400001525879</ele>
        <time>2021-08-12T09:11:23.000Z</time>
      </trkpt>
      <trkpt lat="49.37804" lon="3.28055">
        <ele>41</ele>
        <time>2021-08-12T09:11:25.000Z</time>
      </trkpt>
      <trkpt lat="49.37818" lon="3.28073">
        <ele>41</ele>
        <time>2021-08-12T09:11:28.000Z</time>
      </trkpt>
      <trkpt lat="49.37856" lon="3.2812">
        <ele>41</ele>
        <time>2021-08-12T09:11:36.000Z</time>
      </trkpt>
      <trkpt lat="49.37895" lon="3.28164">
        <ele>41.200000762939</ele>
        <time>2021-08-12T09:11:44.000Z</time>
      </trkpt>
      <trkpt lat="49.37931" lon="3.28209">
        <ele>41</ele>
        <time>2021-08-12T09:11:52.000Z</time>
      </trkpt>
      <trkpt lat="49.37943" lon="3.28224">
        <ele>41.2</ele>
      </trkpt>
      <trkpt lat="49.37946" lon="3.28191">
        <ele>41</ele>
        <time>2021-08-12T09:15:41.000Z</time>
      </trkpt>
      <trkpt lat="49.37952" lon="3.28123">
        <ele>42.599998474121</ele>
        <time>2021-08-12T09:15:50.000Z</time>
      </trkpt>
      <trkpt lat="49.37955" lon="3.28091">
        <ele>43</ele>
        <time>2021-08-12T09:15:55.000Z</time>
      </trkpt>
      <trkpt lat="49.37956" lon="3.28071">
        <ele>42.200000762939</ele>
        <time>2021-08-12T09:16:00.000Z</time>
      </trkpt>
      <trkpt lat="49.37959" lon="3.28033">
        <ele>41.400001525879</ele>
        <time>2021-08-12T09:16:07.000Z</time>
      </trkpt>
      <trkpt lat="49.37961" lon="3.27982">
        <ele>40</ele>
        <time>2021-08-12T09:16:16.000Z</time>
      </trkpt>
      <trkpt lat="49.37964" lon="3.27949">
        <ele>40.400001525879</ele>
        <time>2021-08-12T09:16:23.000Z</time>
      </trkpt>
      <trkpt lat="49.37967" lon="3.27913">
        <ele>41</ele>
        <time>2021-08-12T09:16:31.000Z</time>
      </trkpt>
      <trkpt lat="49.37968" lon="3.27875">
        <ele>40</ele>
        <time>2021-08-12T09:16:40.000Z</time>
      </trkpt>
      <trkpt lat="49.3797" lon="3.27845">
        <ele>40</ele>
        <time>2021-08-12T09:16:46.000Z</time>
      </trkpt>
      <trkpt lat="49.37971" lon="3.27812">
        <ele>40.599998474121</ele>
        <time>2021-08-12T09:16:52.000Z</time>
      </trkpt>
      <trkpt lat="49.37974" lon="3.2778">
        <ele>41.599998474121</ele>
        <time>2021-08-12T09:16:57.000Z</time>
      </trkpt>
      <trkpt lat="49.37976" lon="3.2775">
        <ele>42.799999237061</ele>
        <time>2021-08-12T09:17:01.000Z</time>
      </trkpt>
      <trkpt lat="49.37977" lon="3.27743">
        <ele>42.799999237061</ele>
        <time>2021-08-12T09:17:03.000Z</time>
      </trkpt>
      <trkpt lat="49.3798" lon="3.27675">
        <ele>42.400001525879</ele>
        <time>2021-08-12T09:17:11.000Z</time>
      </trkpt>
      <trkpt lat="49.37981" lon="3.27639">
        <ele>41.599998474121</ele>
        <time>2021-08-12T09:17:17.000Z</time>
      </trkpt>
      <trkpt lat="49.37984" lon="3.27609">
        <ele>41.599998474121</ele>
        <time>2021-08-12T09:17:22.000Z</time>
      </trkpt>
      <trkpt lat="49.3799" lon="3.27546">
        <ele>42</ele>
        <time>2021-08-12T09:17:30.000Z</time>
      </trkpt>
      <trkpt lat="49.37992" lon="3.27521">
        <ele>42</ele>
        <time>2021-08-12T09:17:33.000Z</time>
      </trkpt>
      <trkpt lat="49.37994" lon="3.27486">
        <ele>41.799999237061</ele>
        <time>2021-08-12T09:17:37.000Z</time>
      </trkpt>
      <trkpt lat="49.37998" lon="3.27427">
        <ele>41</ele>
        <time>2021-08-12T09:17:44.000Z</time>
      </trkpt>
      <trkpt lat="49.38003" lon="3.27357">
        <ele>40.799999237061</ele>
        <time>2021-08-12T09:17:52.000Z</time>
      </trkpt>
      <trkpt lat="49.38008" lon="3.27272">
        <ele>41</ele>
        <time>2021-08-12T09:18:02.000Z</time>
      </trkpt>
      <trkpt lat="49.38009" lon="3.27264">
        <ele>41.200000762939</ele>
        <time>2021-08-12T09:18:03.000Z</time>
      </trkpt>
      <trkpt lat="49.38014" lon="3.27196">
        <ele>41</ele>
        <time>2021-08-12T09:18:11.000Z</time>
      </trkpt>
      <trkpt lat="49.38017" lon="3.27136">
        <ele>41.599998474121</ele>
        <time>2021-08-12T09:18:18.000Z</time>
      </trkpt>
      <trkpt lat="49.38021" lon="3.27074">
        <ele>42</ele>
        <time>2021-08-12T09:18:25.000Z</time>
      </trkpt>
      <trkpt lat="49.38025" lon="3.27003">
        <ele>40.599998474121</ele>
        <time>2021-08-12T09:18:33.000Z</time>
      </trkpt>
      <trkpt lat="49.38029" lon="3.26941">
        <ele>41.799999237061</ele>
        <time>2021-08-12T09:18:40.000Z</time>
      </trkpt>
      <trkpt lat="49.38034" lon="3.26881">
        <ele>41.599998474121</ele>
        <time>2021-08-12T09:18:47.000Z</time>
      </trkpt>
      <trkpt lat="49.38039" lon="3.26839">
        <ele>42</ele>
        <time>2021-08-12T09:18:52.000Z</time>
      </trkpt>
      <trkpt lat="49.38041" lon="3.26831">
        <ele>41.799999237061</ele>
        <time>2021-08-12T09:18:53.000Z</time>
      </trkpt>
      <trkpt lat="49.38045" lon="3.26808">
        <ele>42</ele>
        <time>2021-08-12T09:18:56.000Z</time>
      </trkpt>
      <trkpt lat="49.38048" lon="3.26793">
        <ele>42.200000762939</ele>
        <time>2021-08-12T09:18:58.000Z</time>
      </trkpt>
      <trkpt lat="49.38054" lon="3.26756">
        <ele>42.599998474121</ele>
        <time>2021-08-12T09:19:04.000Z</time>
      </trkpt>
      <trkpt lat="49.3806" lon="3.26726">
        <ele>43</ele>
        <time>2021-08-12T09:19:11.000Z</time>
      </trkpt>
      <trkpt lat="49.38063" lon="3.26701">
        <ele>43.400001525879</ele>
        <time>2021-08-12T09:19:16.000Z</time>
      </trkpt>
      <trkpt lat="49.38069" lon="3.26661">
        <ele>42.599998474121</ele>
        <time>2021-08-12T09:19:22.000Z</time>
      </trkpt>
      <trkpt lat="49.38079" lon="3.26601">
        <ele>40</ele>
        <time>2021-08-12T09:19:30.000Z</time>
      </trkpt>
      <trkpt lat="49.38088" lon="3.26534">
        <ele>40.599998474121</ele>
        <time>2021-08-12T09:19:38.000Z</time>
      </trkpt>
      <trkpt lat="49.38098" lon="3.26465">
        <ele>42</ele>
        <time>2021-08-12T09:19:46.000Z</time>
      </trkpt>
      <trkpt lat="49.38106" lon="3.26414">
        <ele>42.799999237061</ele>
        <time>2021-08-12T09:19:52.000Z</time>
      </trkpt>
      <trkpt lat="49.38105" lon="3.26397">
        <ele>42.799999237061</ele>
        <time>2021-08-12T09:19:54.000Z</time>
      </trkpt>
      <trkpt lat="49.38106" lon="3.26389">
        <ele>42.799999237061</ele>
        <time>2021-08-12T09:19:55.000Z</time>
      </trkpt>
      <trkpt lat="49.3811" lon="3.26374">
        <ele>43</ele>
        <time>2021-08-12T09:19:57.000Z</time>
      </trkpt>
      <trkpt lat="49.38119" lon="3.26333">
        <ele>43.400001525879</ele>
        <time>2021-08-12T09:20:02.000Z</time>
      </trkpt>
      <trkpt lat="49.3813" lon="3.26266">
        <ele>42</ele>
        <time>2021-08-12T09:20:10.000Z</time>
      </trkpt>
      <trkpt lat="49.3814" lon="3.26194">
        <ele>41.200000762939</ele>
        <time>2021-08-12T09:20:18.000Z</time>
      </trkpt>
      <trkpt lat="49.38151" lon="3.2612">
        <ele>41.599998474121</ele>
        <time>2021-08-12T09:20:26.000Z</time>
      </trkpt>
      <trkpt lat="49.38164" lon="3.26037">
        <ele>41</ele>
        <time>2021-08-12T09:20:35.000Z</time>
      </trkpt>
      <trkpt lat="49.38172" lon="3.25981">
        <ele>41.400001525879</ele>
        <time>2021-08-12T09:20:41.000Z</time>
      </trkpt>
      <trkpt lat="49.3818" lon="3.25923">
        <ele>40.400001525879</ele>
        <time>2021-08-12T09:20:47.000Z</time>
      </trkpt>
      <trkpt lat="49.38193" lon="3.25836">
        <ele>40</ele>
        <time>2021-08-12T09:20:56.000Z</time>
      </trkpt>
      <trkpt lat="49.38194" lon="3.25826">
        <ele>40</ele>
        <time>2021-08-12T09:20:57.000Z</time>
      </trkpt>
      <trkpt lat="49.38202" lon="3.25771">
        <ele>41</ele>
        <time>2021-08-12T09:21:03.000Z</time>
      </trkpt>
      <trkpt lat="49.38212" lon="3.25697">
        <ele>40</ele>
        <time>2021-08-12T09:21:11.000Z</time>
      </trkpt>
      <trkpt lat="49.38223" lon="3.25631">
        <ele>40.599998474121</ele>
        <time>2021-08-12T09:21:18.000Z</time>
      </trkpt>
      <trkpt lat="49.38235" lon="3.25559">
        <ele>44.200000762939</ele>
        <time>2021-08-12T09:21:26.000Z</time>
      </trkpt>
      <trkpt lat="49.38243" lon="3.25502">
        <ele>46.799999237061</ele>
        <time>2021-08-12T09:21:33.000Z</time>
      </trkpt>
      <trkpt lat="49.38249" lon="3.25472">
        <ele>45.799999237061</ele>
        <time>2021-08-12T09:21:37.000Z</time>
      </trkpt>
      <trkpt lat="49.38252" lon="3.25467">
        <ele>45.200000762939</ele>
        <time>2021-08-12T09:21:38.000Z</time>
      </trkpt>
      <trkpt lat="49.38256" lon="3.25463">
        <ele>44.799999237061</ele>
        <time>2021-08-12T09:21:39.000Z</time>
      </trkpt>
      <trkpt lat="49.38265" lon="3.25458">
        <ele>43.599998474121</ele>
        <time>2021-08-12T09:21:41.000Z</time>
      </trkpt>
      <trkpt lat="49.38271" lon="3.25457">
        <ele>42.799999237061</ele>
        <time>2021-08-12T09:21:42.000Z</time>
      </trkpt>
      <trkpt lat="49.38277" lon="3.25457">
        <ele>41.799999237061</ele>
        <time>2021-08-12T09:21:43.000Z</time>
      </trkpt>
      <trkpt lat="49.38294" lon="3.2546">
        <ele>40.599998474121</ele>
        <time>2021-08-12T09:21:46.000Z</time>
      </trkpt>
      <trkpt lat="49.38306" lon="3.2546">
        <ele>39.799999237061</ele>
        <time>2021-08-12T09:21:48.000Z</time>
      </trkpt>
      <trkpt lat="49.38317" lon="3.25461">
        <ele>39.400001525879</ele>
        <time>2021-08-12T09:21:50.000Z</time>
      </trkpt>
      <trkpt lat="49.38333" lon="3.25465">
        <ele>39</ele>
        <time>2021-08-12T09:21:53.000Z</time>
      </trkpt>
      <trkpt lat="49.38345" lon="3.25467">
        <ele>39</ele>
        <time>2021-08-12T09:21:55.000Z</time>
      </trkpt>
      <trkpt lat="49.38361" lon="3.25472">
        <ele>39.200000762939</ele>
        <time>2021-08-12T09:21:58.000Z</time>
      </trkpt>
      <trkpt lat="49.38366" lon="3.25472">
        <ele>39.400001525879</ele>
        <time>2021-08-12T09:21:59.000Z</time>
      </trkpt>
      <trkpt lat="49.38378" lon="3.25472">
        <ele>39.799999237061</ele>
        <time>2021-08-12T09:22:01.000Z</time>
      </trkpt>
      <trkpt lat="49.38383" lon="3.25474">
        <ele>40</ele>
        <time>2021-08-12T09:22:02.000Z</time>
      </trkpt>
      <trkpt lat="49.38398" lon="3.25479">
        <ele>40.400001525879</ele>
        <time>2021-08-12T09:22:05.000Z</time>
      </trkpt>
      <trkpt lat="49.38409" lon="3.2548">
        <ele>40.799999237061</ele>
        <time>2021-08-12T09:22:07.000Z</time>
      </trkpt>
      <trkpt lat="49.3842" lon="3.25482">
        <ele>41</ele>
        <time>2021-08-12T09:22:09.000Z</time>
      </trkpt>
      <trkpt lat="49.3843" lon="3.25483">
        <ele>41</ele>
        <time>2021-08-12T09:22:11.000Z</time>
      </trkpt>
      <trkpt lat="49.3844" lon="3.25485">
        <ele>41</ele>
        <time>2021-08-12T09:22:13.000Z</time>
      </trkpt>
      <trkpt lat="49.38444" lon="3.25485">
        <ele>40.799999237061</ele>
        <time>2021-08-12T09:22:14.000Z</time>
      </trkpt>
      <trkpt lat="49.38456" lon="3.25483">
        <ele>40.400001525879</ele>
        <time>2021-08-12T09:22:17.000Z</time>
      </trkpt>
      <trkpt lat="49.38467" lon="3.25487">
        <ele>40</ele>
        <time>2021-08-12T09:22:22.000Z</time>
      </trkpt>
      <trkpt lat="49.38469" lon="3.25488">
        <ele>40</ele>
        <time>2021-08-12T09:22:25.000Z</time>
      </trkpt>
      <trkpt lat="49.38472" lon="3.25489">
        <ele>40</ele>
        <time>2021-08-12T09:23:43.000Z</time>
      </trkpt>
      <trkpt lat="49.38485" lon="3.2549">
        <ele>40</ele>
        <time>2021-08-12T09:23:47.000Z</time>
      </trkpt>
      <trkpt lat="49.38503" lon="3.2549">
        <ele>39.799999237061</ele>
        <time>2021-08-12T09:23:51.000Z</time>
      </trkpt>
      <trkpt lat="49.38508" lon="3.25494">
        <ele>39.599998474121</ele>
        <time>2021-08-12T09:23:52.000Z</time>
      </trkpt>
      <trkpt lat="49.38522" lon="3.25505">
        <ele>39.599998474121</ele>
        <time>2021-08-12T09:23:55.000Z</time>
      </trkpt>
      <trkpt lat="49.38532" lon="3.25508">
        <ele>39.200000762939</ele>
        <time>2021-08-12T09:23:57.000Z</time>
      </trkpt>
      <trkpt lat="49.38538" lon="3.25508">
        <ele>39</ele>
        <time>2021-08-12T09:23:58.000Z</time>
      </trkpt>
      <trkpt lat="49.38556" lon="3.25507">
        <ele>39.400001525879</ele>
        <time>2021-08-12T09:24:01.000Z</time>
      </trkpt>
      <trkpt lat="49.38567" lon="3.25508">
        <ele>39</ele>
        <time>2021-08-12T09:24:03.000Z</time>
      </trkpt>
      <trkpt lat="49.38578" lon="3.25503">
        <ele>38.799999237061</ele>
        <time>2021-08-12T09:24:05.000Z</time>
      </trkpt>
      <trkpt lat="49.38583" lon="3.255">
        <ele>38.599998474121</ele>
        <time>2021-08-12T09:24:06.000Z</time>
      </trkpt>
      <trkpt lat="49.38588" lon="3.25497">
        <ele>38.400001525879</ele>
        <time>2021-08-12T09:24:07.000Z</time>
      </trkpt>
      <trkpt lat="49.38599" lon="3.25496">
        <ele>37.599998474121</ele>
        <time>2021-08-12T09:24:09.000Z</time>
      </trkpt>
      <trkpt lat="49.38603" lon="3.255">
        <ele>37.400001525879</ele>
        <time>2021-08-12T09:24:10.000Z</time>
      </trkpt>
      <trkpt lat="49.38607" lon="3.25505">
        <ele>37</ele>
        <time>2021-08-12T09:24:11.000Z</time>
      </trkpt>
      <trkpt lat="49.38616" lon="3.25525">
        <ele>36.799999237061</ele>
        <time>2021-08-12T09:24:14.000Z</time>
      </trkpt>
      <trkpt lat="49.38619" lon="3.25538">
        <ele>37</ele>
        <time>2021-08-12T09:24:16.000Z</time>
      </trkpt>
      <trkpt lat="49.38621" lon="3.25545">
        <ele>37</ele>
        <time>2021-08-12T09:24:17.000Z</time>
      </trkpt>
      <trkpt lat="49.38623" lon="3.25551">
        <ele>37</ele>
        <time>2021-08-12T09:24:18.000Z</time>
      </trkpt>
      <trkpt lat="49.38626" lon="3.25565">
        <ele>37.599998474121</ele>
        <time>2021-08-12T09:24:20.000Z</time>
      </trkpt>
      <trkpt lat="49.38627" lon="3.25572">
        <ele>38</ele>
        <time>2021-08-12T09:24:21.000Z</time>
      </trkpt>
      <trkpt lat="49.3863" lon="3.25579">
        <ele>38.200000762939</ele>
        <time>2021-08-12T09:24:22.000Z</time>
      </trkpt>
      <trkpt lat="49.38633" lon="3.25591">
        <ele>38.599998474121</ele>
        <time>2021-08-12T09:24:24.000Z</time>
      </trkpt>
      <trkpt lat="49.38638" lon="3.25609">
        <ele>39</ele>
        <time>2021-08-12T09:24:27.000Z</time>
      </trkpt>
      <trkpt lat="49.38646" lon="3.25636">
        <ele>39.599998474121</ele>
        <time>2021-08-12T09:24:31.000Z</time>
      </trkpt>
      <trkpt lat="49.38648" lon="3.25643">
        <ele>39.599998474121</ele>
        <time>2021-08-12T09:24:32.000Z</time>
      </trkpt>
      <trkpt lat="49.3865" lon="3.25662">
        <ele>39.599998474121</ele>
        <time>2021-08-12T09:24:35.000Z</time>
      </trkpt>
      <trkpt lat="49.38652" lon="3.25684">
        <ele>40</ele>
        <time>2021-08-12T09:24:40.000Z</time>
      </trkpt>
      <trkpt lat="49.3866" lon="3.25716">
        <ele>40</ele>
        <time>2021-08-12T09:24:45.000Z</time>
      </trkpt>
      <trkpt lat="49.38666" lon="3.25747">
        <ele>40</ele>
        <time>2021-08-12T09:24:50.000Z</time>
      </trkpt>
      <trkpt lat="49.38672" lon="3.25775">
        <ele>40.200000762939</ele>
        <time>2021-08-12T09:24:55.000Z</time>
      </trkpt>
      <trkpt lat="49.38673" lon="3.25782">
        <ele>40.400001525879</ele>
        <time>2021-08-12T09:24:56.000Z</time>
      </trkpt>
      <trkpt lat="49.38677" lon="3.25799">
        <ele>40.400001525879</ele>
        <time>2021-08-12T09:24:59.000Z</time>
      </trkpt>
      <trkpt lat="49.38682" lon="3.25826">
        <ele>41.599998474121</ele>
        <time>2021-08-12T09:25:04.000Z</time>
      </trkpt>
      <trkpt lat="49.38687" lon="3.25853">
        <ele>41.799999237061</ele>
        <time>2021-08-12T09:25:08.000Z</time>
      </trkpt>
      <trkpt lat="49.38689" lon="3.25867">
        <ele>42</ele>
        <time>2021-08-12T09:25:10.000Z</time>
      </trkpt>
      <trkpt lat="49.38692" lon="3.2588">
        <ele>42</ele>
        <time>2021-08-12T09:25:12.000Z</time>
      </trkpt>
      <trkpt lat="49.38697" lon="3.25901">
        <ele>42.200000762939</ele>
        <time>2021-08-12T09:25:15.000Z</time>
      </trkpt>
      <trkpt lat="49.38701" lon="3.25916">
        <ele>42.400001525879</ele>
        <time>2021-08-12T09:25:17.000Z</time>
      </trkpt>
      <trkpt lat="49.38707" lon="3.25933">
        <ele>42.799999237061</ele>
        <time>2021-08-12T09:25:20.000Z</time>
      </trkpt>
      <trkpt lat="49.38714" lon="3.25959">
        <ele>43.799999237061</ele>
        <time>2021-08-12T09:25:25.000Z</time>
      </trkpt>
      <trkpt lat="49.38719" lon="3.25971">
        <ele>43.599998474121</ele>
        <time>2021-08-12T09:25:27.000Z</time>
      </trkpt>
      <trkpt lat="49.38722" lon="3.25985">
        <ele>42.599998474121</ele>
        <time>2021-08-12T09:25:29.000Z</time>
      </trkpt>
      <trkpt lat="49.38725" lon="3.2601">
        <ele>41.799999237061</ele>
        <time>2021-08-12T09:25:33.000Z</time>
      </trkpt>
      <trkpt lat="49.38736" lon="3.26047">
        <ele>41.799999237061</ele>
        <time>2021-08-12T09:25:39.000Z</time>
      </trkpt>
      <trkpt lat="49.38738" lon="3.26053">
        <ele>41.799999237061</ele>
        <time>2021-08-12T09:25:40.000Z</time>
      </trkpt>
      <trkpt lat="49.38744" lon="3.2607">
        <ele>42</ele>
        <time>2021-08-12T09:25:43.000Z</time>
      </trkpt>
      <trkpt lat="49.38746" lon="3.26075">
        <ele>42</ele>
        <time>2021-08-12T09:25:44.000Z</time>
      </trkpt>
      <trkpt lat="49.38748" lon="3.26087">
        <ele>42</ele>
        <time>2021-08-12T09:25:46.000Z</time>
      </trkpt>
      <trkpt lat="49.38753" lon="3.261">
        <ele>41.799999237061</ele>
        <time>2021-08-12T09:25:48.000Z</time>
      </trkpt>
      <trkpt lat="49.38755" lon="3.26106">
        <ele>41.799999237061</ele>
        <time>2021-08-12T09:25:49.000Z</time>
      </trkpt>
      <trkpt lat="49.38758" lon="3.26113">
        <ele>42</ele>
        <time>2021-08-12T09:25:50.000Z</time>
      </trkpt>
      <trkpt lat="49.38764" lon="3.26127">
        <ele>42.200000762939</ele>
        <time>2021-08-12T09:25:52.000Z</time>
      </trkpt>
      <trkpt lat="49.38773" lon="3.26161">
        <ele>42</ele>
        <time>2021-08-12T09:25:57.000Z</time>
      </trkpt>
      <trkpt lat="49.38777" lon="3.26174">
        <ele>41.799999237061</ele>
        <time>2021-08-12T09:25:59.000Z</time>
      </trkpt>
      <trkpt lat="49.38782" lon="3.26189">
        <ele>41.599998474121</ele>
        <time>2021-08-12T09:26:01.000Z</time>
      </trkpt>
      <trkpt lat="49.38783" lon="3.26196">
        <ele>41.599998474121</ele>
        <time>2021-08-12T09:26:02.000Z</time>
      </trkpt>
      <trkpt lat="49.3879" lon="3.26221">
        <ele>41.200000762939</ele>
        <time>2021-08-12T09:26:06.000Z</time>
      </trkpt>
      <trkpt lat="49.38794" lon="3.26236">
        <ele>40.599998474121</ele>
        <time>2021-08-12T09:26:08.000Z</time>
      </trkpt>
      <trkpt lat="49.38798" lon="3.26252">
        <ele>40.400001525879</ele>
        <time>2021-08-12T09:26:10.000Z</time>
      </trkpt>
      <trkpt lat="49.38801" lon="3.26265">
        <ele>40</ele>
        <time>2021-08-12T09:26:12.000Z</time>
      </trkpt>
      <trkpt lat="49.38806" lon="3.26285">
        <ele>40.200000762939</ele>
        <time>2021-08-12T09:26:15.000Z</time>
      </trkpt>
      <trkpt lat="49.38814" lon="3.26322">
        <ele>40.200000762939</ele>
        <time>2021-08-12T09:26:20.000Z</time>
      </trkpt>
      <trkpt lat="49.38824" lon="3.26357">
        <ele>39.400001525879</ele>
        <time>2021-08-12T09:26:25.000Z</time>
      </trkpt>
      <trkpt lat="49.38834" lon="3.26383">
        <ele>37</ele>
        <time>2021-08-12T09:26:29.000Z</time>
      </trkpt>
      <trkpt lat="49.38845" lon="3.26424">
        <ele>35.400001525879</ele>
        <time>2021-08-12T09:26:35.000Z</time>
      </trkpt>
      <trkpt lat="49.38847" lon="3.26431">
        <ele>35.200000762939</ele>
        <time>2021-08-12T09:26:36.000Z</time>
      </trkpt>
      <trkpt lat="49.38849" lon="3.26446">
        <ele>35</ele>
        <time>2021-08-12T09:26:38.000Z</time>
      </trkpt>
      <trkpt lat="49.38855" lon="3.26466">
        <ele>35.200000762939</ele>
        <time>2021-08-12T09:26:41.000Z</time>
      </trkpt>
      <trkpt lat="49.38869" lon="3.26514">
        <ele>36</ele>
        <time>2021-08-12T09:26:48.000Z</time>
      </trkpt>
      <trkpt lat="49.38884" lon="3.26572">
        <ele>36.799999237061</ele>
        <time>2021-08-12T09:26:56.000Z</time>
      </trkpt>
      <trkpt lat="49.38894" lon="3.26609">
        <ele>37</ele>
        <time>2021-08-12T09:27:01.000Z</time>
      </trkpt>
      <trkpt lat="49.38896" lon="3.26617">
        <ele>37</ele>
        <time>2021-08-12T09:27:02.000Z</time>
      </trkpt>
      <trkpt lat="49.38898" lon="3.26625">
        <ele>37</ele>
        <time>2021-08-12T09:27:03.000Z</time>
      </trkpt>
      <trkpt lat="49.38908" lon="3.26659">
        <ele>37</ele>
        <time>2021-08-12T09:27:08.000Z</time>
      </trkpt>
      <trkpt lat="49.38925" lon="3.26713">
        <ele>37.400001525879</ele>
        <time>2021-08-12T09:27:16.000Z</time>
      </trkpt>
      <trkpt lat="49.38932" lon="3.26733">
        <ele>37.599998474121</ele>
        <time>2021-08-12T09:27:19.000Z</time>
      </trkpt>
      <trkpt lat="49.3894" lon="3.26756">
        <ele>38</ele>
        <time>2021-08-12T09:27:22.000Z</time>
      </trkpt>
      <trkpt lat="49.38947" lon="3.26776">
        <ele>38.200000762939</ele>
        <time>2021-08-12T09:27:25.000Z</time>
      </trkpt>
      <trkpt lat="49.38953" lon="3.26794">
        <ele>38.799999237061</ele>
        <time>2021-08-12T09:27:28.000Z</time>
      </trkpt>
      <trkpt lat="49.38962" lon="3.26819">
        <ele>39</ele>
        <time>2021-08-12T09:27:32.000Z</time>
      </trkpt>
      <trkpt lat="49.38965" lon="3.26834">
        <ele>39</ele>
        <time>2021-08-12T09:27:34.000Z</time>
      </trkpt>
      <trkpt lat="49.38971" lon="3.26872">
        <ele>38.400001525879</ele>
        <time>2021-08-12T09:27:40.000Z</time>
      </trkpt>
      <trkpt lat="49.38974" lon="3.26898">
        <ele>38</ele>
        <time>2021-08-12T09:27:44.000Z</time>
      </trkpt>
      <trkpt lat="49.38975" lon="3.26912">
        <ele>38</ele>
        <time>2021-08-12T09:27:46.000Z</time>
      </trkpt>
      <trkpt lat="49.38976" lon="3.26932">
        <ele>38</ele>
        <time>2021-08-12T09:27:49.000Z</time>
      </trkpt>
      <trkpt lat="49.38976" lon="3.26947">
        <ele>38.200000762939</ele>
        <time>2021-08-12T09:27:51.000Z</time>
      </trkpt>
      <trkpt lat="49.38977" lon="3.26966">
        <ele>38.200000762939</ele>
        <time>2021-08-12T09:27:54.000Z</time>
      </trkpt>
      <trkpt lat="49.38977" lon="3.26973">
        <ele>38.200000762939</ele>
        <time>2021-08-12T09:27:55.000Z</time>
      </trkpt>
      <trkpt lat="49.38976" lon="3.27017">
        <ele>39.200000762939</ele>
        <time>2021-08-12T09:28:01.000Z</time>
      </trkpt>
      <trkpt lat="49.38976" lon="3.27039">
        <ele>38.799999237061</ele>
        <time>2021-08-12T09:28:04.000Z</time>
      </trkpt>
      <trkpt lat="49.38975" lon="3.27054">
        <ele>38.200000762939</ele>
        <time>2021-08-12T09:28:06.000Z</time>
      </trkpt>
      <trkpt lat="49.38974" lon="3.27074">
        <ele>38.200000762939</ele>
        <time>2021-08-12T09:28:09.000Z</time>
      </trkpt>
      <trkpt lat="49.38974" lon="3.27087">
        <ele>37.799999237061</ele>
        <time>2021-08-12T09:28:11.000Z</time>
      </trkpt>
      <trkpt lat="49.38973" lon="3.27094">
        <ele>37.599998474121</ele>
        <time>2021-08-12T09:28:12.000Z</time>
      </trkpt>
      <trkpt lat="49.38972" lon="3.27115">
        <ele>37.200000762939</ele>
        <time>2021-08-12T09:28:15.000Z</time>
      </trkpt>
      <trkpt lat="49.38969" lon="3.27166">
        <ele>37.200000762939</ele>
        <time>2021-08-12T09:28:22.000Z</time>
      </trkpt>
      <trkpt lat="49.38968" lon="3.27194">
        <ele>38</ele>
        <time>2021-08-12T09:28:27.000Z</time>
      </trkpt>
      <trkpt lat="49.38969" lon="3.27222">
        <ele>38.200000762939</ele>
        <time>2021-08-12T09:28:32.000Z</time>
      </trkpt>
      <trkpt lat="49.3897" lon="3.27254">
        <ele>39.400001525879</ele>
        <time>2021-08-12T09:28:38.000Z</time>
      </trkpt>
      <trkpt lat="49.38972" lon="3.27285">
        <ele>39.799999237061</ele>
        <time>2021-08-12T09:28:44.000Z</time>
      </trkpt>
      <trkpt lat="49.38974" lon="3.27312">
        <ele>39</ele>
        <time>2021-08-12T09:28:49.000Z</time>
      </trkpt>
      <trkpt lat="49.38978" lon="3.27335">
        <ele>38.400001525879</ele>
        <time>2021-08-12T09:28:53.000Z</time>
      </trkpt>
      <trkpt lat="49.3898" lon="3.27348">
        <ele>38.400001525879</ele>
        <time>2021-08-12T09:28:55.000Z</time>
      </trkpt>
      <trkpt lat="49.38981" lon="3.27356">
        <ele>38.400001525879</ele>
        <time>2021-08-12T09:28:56.000Z</time>
      </trkpt>
      <trkpt lat="49.3898" lon="3.27387">
        <ele>38.799999237061</ele>
        <time>2021-08-12T09:29:00.000Z</time>
      </trkpt>
      <trkpt lat="49.38981" lon="3.2741">
        <ele>39.400001525879</ele>
        <time>2021-08-12T09:29:03.000Z</time>
      </trkpt>
      <trkpt lat="49.38979" lon="3.27448">
        <ele>40</ele>
        <time>2021-08-12T09:29:08.000Z</time>
      </trkpt>
      <trkpt lat="49.38977" lon="3.27463">
        <ele>40</ele>
        <time>2021-08-12T09:29:10.000Z</time>
      </trkpt>
      <trkpt lat="49.38979" lon="3.27476">
        <ele>40</ele>
        <time>2021-08-12T09:29:12.000Z</time>
      </trkpt>
      <trkpt lat="49.38988" lon="3.2748">
        <ele>40</ele>
        <time>2021-08-12T09:29:14.000Z</time>
      </trkpt>
      <trkpt lat="49.38994" lon="3.27481">
        <ele>40</ele>
        <time>2021-08-12T09:29:15.000Z</time>
      </trkpt>
      <trkpt lat="49.38999" lon="3.27482">
        <ele>40</ele>
        <time>2021-08-12T09:29:16.000Z</time>
      </trkpt>
      <trkpt lat="49.39014" lon="3.27491">
        <ele>39.400001525879</ele>
        <time>2021-08-12T09:29:19.000Z</time>
      </trkpt>
      <trkpt lat="49.3902" lon="3.27508">
        <ele>39.599998474121</ele>
        <time>2021-08-12T09:29:22.000Z</time>
      </trkpt>
      <trkpt lat="49.3902" lon="3.27534">
        <ele>40.200000762939</ele>
        <time>2021-08-12T09:29:27.000Z</time>
      </trkpt>
      <trkpt lat="49.39014" lon="3.2757">
        <ele>41.200000762939</ele>
        <time>2021-08-12T09:29:33.000Z</time>
      </trkpt>
      <trkpt lat="49.39011" lon="3.27598">
        <ele>41.599998474121</ele>
        <time>2021-08-12T09:29:37.000Z</time>
      </trkpt>
      <trkpt lat="49.39011" lon="3.27611">
        <ele>41.599998474121</ele>
        <time>2021-08-12T09:29:39.000Z</time>
      </trkpt>
      <trkpt lat="49.3901" lon="3.27627">
        <ele>41.400001525879</ele>
        <time>2021-08-12T09:29:41.000Z</time>
      </trkpt>
      <trkpt lat="49.39009" lon="3.27634">
        <ele>41.400001525879</ele>
        <time>2021-08-12T09:29:42.000Z</time>
      </trkpt>
      <trkpt lat="49.39006" lon="3.27647">
        <ele>41.599998474121</ele>
        <time>2021-08-12T09:29:44.000Z</time>
      </trkpt>
      <trkpt lat="49.39005" lon="3.27662">
        <ele>41.599998474121</ele>
        <time>2021-08-12T09:29:46.000Z</time>
      </trkpt>
      <trkpt lat="49.39005" lon="3.27676">
        <ele>41.799999237061</ele>
        <time>2021-08-12T09:29:48.000Z</time>
      </trkpt>
      <trkpt lat="49.39005" lon="3.27692">
        <ele>42.200000762939</ele>
        <time>2021-08-12T09:29:50.000Z</time>
      </trkpt>
      <trkpt lat="49.39004" lon="3.27708">
        <ele>42</ele>
        <time>2021-08-12T09:29:53.000Z</time>
      </trkpt>
      <trkpt lat="49.39003" lon="3.27714">
        <ele>42</ele>
        <time>2021-08-12T09:29:54.000Z</time>
      </trkpt>
      <trkpt lat="49.39002" lon="3.2772">
        <ele>41.799999237061</ele>
        <time>2021-08-12T09:29:56.000Z</time>
      </trkpt>
      <trkpt lat="49.39002" lon="3.2772">
        <ele>41.799999237061</ele>
        <time>2021-08-12T09:29:57.000Z</time>
      </trkpt>
      <trkpt lat="49.39002" lon="3.27728">
        <ele>41.599998474121</ele>
        <time>2021-08-12T09:30:42.000Z</time>
      </trkpt>
      <trkpt lat="49.39002" lon="3.27738">
        <ele>41.200000762939</ele>
        <time>2021-08-12T09:30:44.000Z</time>
      </trkpt>
      <trkpt lat="49.39001" lon="3.27766">
        <ele>40.400001525879</ele>
        <time>2021-08-12T09:30:48.000Z</time>
      </trkpt>
      <trkpt lat="49.39001" lon="3.27774">
        <ele>40.200000762939</ele>
        <time>2021-08-12T09:30:49.000Z</time>
      </trkpt>
      <trkpt lat="49.39001" lon="3.27787">
        <ele>40.200000762939</ele>
        <time>2021-08-12T09:30:51.000Z</time>
      </trkpt>
      <trkpt lat="49.39001" lon="3.27794">
        <ele>40.200000762939</ele>
        <time>2021-08-12T09:30:52.000Z</time>
      </trkpt>
      <trkpt lat="49.39" lon="3.27801">
        <ele>40.200000762939</ele>
        <time>2021-08-12T09:30:53.000Z</time>
      </trkpt>
      <trkpt lat="49.38999" lon="3.2782">
        <ele>40</ele>
        <time>2021-08-12T09:30:56.000Z</time>
      </trkpt>
      <trkpt lat="49.38998" lon="3.27827">
        <ele>40</ele>
        <time>2021-08-12T09:30:57.000Z</time>
      </trkpt>
      <trkpt lat="49.38995" lon="3.27842">
        <ele>40.599998474121</ele>
        <time>2021-08-12T09:30:59.000Z</time>
      </trkpt>
      <trkpt lat="49.38993" lon="3.2785">
        <ele>41</ele>
        <time>2021-08-12T09:31:00.000Z</time>
      </trkpt>
      <trkpt lat="49.38981" lon="3.27885">
        <ele>43.799999237061</ele>
        <time>2021-08-12T09:31:05.000Z</time>
      </trkpt>
      <trkpt lat="49.3897" lon="3.27904">
        <ele>44</ele>
        <time>2021-08-12T09:31:08.000Z</time>
      </trkpt>
      <trkpt lat="49.3896" lon="3.27913">
        <ele>44.400001525879</ele>
        <time>2021-08-12T09:31:10.000Z</time>
      </trkpt>
      <trkpt lat="49.38947" lon="3.27928">
        <ele>44.599998474121</ele>
        <time>2021-08-12T09:31:14.000Z</time>
      </trkpt>
      <trkpt lat="49.38925" lon="3.27946">
        <ele>43.400001525879</ele>
        <time>2021-08-12T09:31:20.000Z</time>
      </trkpt>
      <trkpt lat="49.38916" lon="3.27952">
        <ele>43.400001525879</ele>
        <time>2021-08-12T09:31:22.000Z</time>
      </trkpt>
      <trkpt lat="49.38905" lon="3.27963">
        <ele>43.200000762939</ele>
        <time>2021-08-12T09:31:24.000Z</time>
      </trkpt>
      <trkpt lat="49.38899" lon="3.27968">
        <ele>43</ele>
        <time>2021-08-12T09:31:25.000Z</time>
      </trkpt>
      <trkpt lat="49.38878" lon="3.27988">
        <ele>42.799999237061</ele>
        <time>2021-08-12T09:31:30.000Z</time>
      </trkpt>
      <trkpt lat="49.38866" lon="3.28">
        <ele>42.200000762939</ele>
        <time>2021-08-12T09:31:33.000Z</time>
      </trkpt>
      <trkpt lat="49.38846" lon="3.28024">
        <ele>43</ele>
        <time>2021-08-12T09:31:38.000Z</time>
      </trkpt>
      <trkpt lat="49.38828" lon="3.28046">
        <ele>43</ele>
        <time>2021-08-12T09:31:42.000Z</time>
      </trkpt>
      <trkpt lat="49.38816" lon="3.28062">
        <ele>43.599998474121</ele>
        <time>2021-08-12T09:31:45.000Z</time>
      </trkpt>
      <trkpt lat="49.38812" lon="3.28068">
        <ele>43.599998474121</ele>
        <time>2021-08-12T09:31:46.000Z</time>
      </trkpt>
      <trkpt lat="49.38798" lon="3.28093">
        <ele>43.200000762939</ele>
        <time>2021-08-12T09:31:50.000Z</time>
      </trkpt>
      <trkpt lat="49.38794" lon="3.28099">
        <ele>43</ele>
        <time>2021-08-12T09:31:51.000Z</time>
      </trkpt>
      <trkpt lat="49.38768" lon="3.28137">
        <ele>42.799999237061</ele>
        <time>2021-08-12T09:31:57.000Z</time>
      </trkpt>
      <trkpt lat="49.38757" lon="3.28153">
        <ele>42.599998474121</ele>
        <time>2021-08-12T09:32:00.000Z</time>
      </trkpt>
      <trkpt lat="49.38753" lon="3.28158">
        <ele>42.799999237061</ele>
        <time>2021-08-12T09:32:01.000Z</time>
      </trkpt>
      <trkpt lat="49.38747" lon="3.28172">
        <ele>43</ele>
        <time>2021-08-12T09:32:04.000Z</time>
      </trkpt>
      <trkpt lat="49.38739" lon="3.28194">
        <ele>42</ele>
        <time>2021-08-12T09:32:08.000Z</time>
      </trkpt>
      <trkpt lat="49.38733" lon="3.28206">
        <ele>41</ele>
        <time>2021-08-12T09:32:10.000Z</time>
      </trkpt>
      <trkpt lat="49.38726" lon="3.28218">
        <ele>41</ele>
        <time>2021-08-12T09:32:12.000Z</time>
      </trkpt>
      <trkpt lat="49.38723" lon="3.28224">
        <ele>41</ele>
        <time>2021-08-12T09:32:13.000Z</time>
      </trkpt>
      <trkpt lat="49.38709" lon="3.28241">
        <ele>40.599998474121</ele>
        <time>2021-08-12T09:32:17.000Z</time>
      </trkpt>
      <trkpt lat="49.38697" lon="3.28258">
        <ele>40.200000762939</ele>
        <time>2021-08-12T09:32:21.000Z</time>
      </trkpt>
      <trkpt lat="49.38696" lon="3.28262">
        <ele>40.200000762939</ele>
        <time>2021-08-12T09:32:22.000Z</time>
      </trkpt>
      <trkpt lat="49.38692" lon="3.28271">
        <ele>40</ele>
        <time>2021-08-12T09:32:24.000Z</time>
      </trkpt>
      <trkpt lat="49.38689" lon="3.28275">
        <ele>40</ele>
        <time>2021-08-12T09:32:25.000Z</time>
      </trkpt>
      <trkpt lat="49.38678" lon="3.28296">
        <ele>39.599998474121</ele>
        <time>2021-08-12T09:32:29.000Z</time>
      </trkpt>
      <trkpt lat="49.38667" lon="3.28317">
        <ele>39.599998474121</ele>
        <time>2021-08-12T09:32:33.000Z</time>
      </trkpt>
      <trkpt lat="49.38663" lon="3.28323">
        <ele>39.799999237061</ele>
        <time>2021-08-12T09:32:34.000Z</time>
      </trkpt>
      <trkpt lat="49.38654" lon="3.28336">
        <ele>39.599998474121</ele>
        <time>2021-08-12T09:32:37.000Z</time>
      </trkpt>
      <trkpt lat="49.38643" lon="3.28361">
        <ele>40</ele>
        <time>2021-08-12T09:32:42.000Z</time>
      </trkpt>
      <trkpt lat="49.38633" lon="3.28392">
        <ele>39.799999237061</ele>
        <time>2021-08-12T09:32:47.000Z</time>
      </trkpt>
      <trkpt lat="49.3863" lon="3.284">
        <ele>39.799999237061</ele>
        <time>2021-08-12T09:32:48.000Z</time>
      </trkpt>
      <trkpt lat="49.38608" lon="3.28451">
        <ele>39</ele>
        <time>2021-08-12T09:32:55.000Z</time>
      </trkpt>
      <trkpt lat="49.38591" lon="3.28491">
        <ele>39.599998474121</ele>
        <time>2021-08-12T09:33:01.000Z</time>
      </trkpt>
      <trkpt lat="49.38573" lon="3.28531">
        <ele>39</ele>
        <time>2021-08-12T09:33:07.000Z</time>
      </trkpt>
      <trkpt lat="49.38555" lon="3.28569">
        <ele>39.799999237061</ele>
        <time>2021-08-12T09:33:13.000Z</time>
      </trkpt>
      <trkpt lat="49.38547" lon="3.28587">
        <ele>40.400001525879</ele>
        <time>2021-08-12T09:33:16.000Z</time>
      </trkpt>
      <trkpt lat="49.38541" lon="3.286">
        <ele>40.799999237061</ele>
        <time>2021-08-12T09:33:18.000Z</time>
      </trkpt>
      <trkpt lat="49.38533" lon="3.28619">
        <ele>41</ele>
        <time>2021-08-12T09:33:21.000Z</time>
      </trkpt>
      <trkpt lat="49.3853" lon="3.28626">
        <ele>41.400001525879</ele>
        <time>2021-08-12T09:33:22.000Z</time>
      </trkpt>
      <trkpt lat="49.38517" lon="3.28652">
        <ele>42.200000762939</ele>
        <time>2021-08-12T09:33:26.000Z</time>
      </trkpt>
      <trkpt lat="49.38515" lon="3.28661">
        <ele>42.400001525879</ele>
        <time>2021-08-12T09:33:27.000Z</time>
      </trkpt>
      <trkpt lat="49.38507" lon="3.28714">
        <ele>41</ele>
        <time>2021-08-12T09:33:33.000Z</time>
      </trkpt>
      <trkpt lat="49.38505" lon="3.28731">
        <ele>40.400001525879</ele>
        <time>2021-08-12T09:33:35.000Z</time>
      </trkpt>
      <trkpt lat="49.38499" lon="3.28764">
        <ele>39.200000762939</ele>
        <time>2021-08-12T09:33:39.000Z</time>
      </trkpt>
      <trkpt lat="49.38498" lon="3.28772">
        <ele>39</ele>
        <time>2021-08-12T09:33:40.000Z</time>
      </trkpt>
      <trkpt lat="49.38496" lon="3.28799">
        <ele>40</ele>
        <time>2021-08-12T09:33:43.000Z</time>
      </trkpt>
      <trkpt lat="49.38496" lon="3.28818">
        <ele>40.599998474121</ele>
        <time>2021-08-12T09:33:46.000Z</time>
      </trkpt>
      <trkpt lat="49.385" lon="3.28827">
        <ele>40.799999237061</ele>
        <time>2021-08-12T09:33:48.000Z</time>
      </trkpt>
      <trkpt lat="49.38502" lon="3.28834">
        <ele>40.799999237061</ele>
        <time>2021-08-12T09:33:49.000Z</time>
      </trkpt>
      <trkpt lat="49.38503" lon="3.28849">
        <ele>41.400001525879</ele>
        <time>2021-08-12T09:33:51.000Z</time>
      </trkpt>
      <trkpt lat="49.38506" lon="3.28871">
        <ele>41.599998474121</ele>
        <time>2021-08-12T09:33:54.000Z</time>
      </trkpt>
      <trkpt lat="49.3851" lon="3.28884">
        <ele>41.599998474121</ele>
        <time>2021-08-12T09:33:56.000Z</time>
      </trkpt>
      <trkpt lat="49.38518" lon="3.28904">
        <ele>41.200000762939</ele>
        <time>2021-08-12T09:33:59.000Z</time>
      </trkpt>
      <trkpt lat="49.3852" lon="3.28913">
        <ele>41.200000762939</ele>
        <time>2021-08-12T09:34:00.000Z</time>
      </trkpt>
      <trkpt lat="49.38525" lon="3.2893">
        <ele>41</ele>
        <time>2021-08-12T09:34:02.000Z</time>
      </trkpt>
      <trkpt lat="49.38531" lon="3.28946">
        <ele>41</ele>
        <time>2021-08-12T09:34:04.000Z</time>
      </trkpt>
      <trkpt lat="49.38537" lon="3.28961">
        <ele>41.400001525879</ele>
        <time>2021-08-12T09:34:06.000Z</time>
      </trkpt>
      <trkpt lat="49.38544" lon="3.28974">
        <ele>41.200000762939</ele>
        <time>2021-08-12T09:34:08.000Z</time>
      </trkpt>
      <trkpt lat="49.38548" lon="3.28979">
        <ele>41.200000762939</ele>
        <time>2021-08-12T09:34:09.000Z</time>
      </trkpt>
      <trkpt lat="49.38561" lon="3.28995">
        <ele>40.599998474121</ele>
        <time>2021-08-12T09:34:12.000Z</time>
      </trkpt>
      <trkpt lat="49.38576" lon="3.29022">
        <ele>40.200000762939</ele>
        <time>2021-08-12T09:34:17.000Z</time>
      </trkpt>
      <trkpt lat="49.38581" lon="3.2903">
        <ele>40.200000762939</ele>
        <time>2021-08-12T09:34:19.000Z</time>
      </trkpt>
      <trkpt lat="49.38585" lon="3.29035">
        <ele>40.200000762939</ele>
        <time>2021-08-12T09:34:20.000Z</time>
      </trkpt>
      <trkpt lat="49.3859" lon="3.29041">
        <ele>40</ele>
        <time>2021-08-12T09:34:21.000Z</time>
      </trkpt>
      <trkpt lat="49.38597" lon="3.29051">
        <ele>39.799999237061</ele>
        <time>2021-08-12T09:34:23.000Z</time>
      </trkpt>
      <trkpt lat="49.386" lon="3.29056">
        <ele>39.599998474121</ele>
        <time>2021-08-12T09:34:24.000Z</time>
      </trkpt>
      <trkpt lat="49.38608" lon="3.2907">
        <ele>39</ele>
        <time>2021-08-12T09:34:27.000Z</time>
      </trkpt>
      <trkpt lat="49.38616" lon="3.29086">
        <ele>39</ele>
        <time>2021-08-12T09:34:30.000Z</time>
      </trkpt>
      <trkpt lat="49.3862" lon="3.29099">
        <ele>39.400001525879</ele>
        <time>2021-08-12T09:34:32.000Z</time>
      </trkpt>
      <trkpt lat="49.38625" lon="3.29118">
        <ele>39.400001525879</ele>
        <time>2021-08-12T09:34:35.000Z</time>
      </trkpt>
      <trkpt lat="49.38628" lon="3.29125">
        <ele>39.200000762939</ele>
        <time>2021-08-12T09:34:36.000Z</time>
      </trkpt>
      <trkpt lat="49.38634" lon="3.29136">
        <ele>39.200000762939</ele>
        <time>2021-08-12T09:34:38.000Z</time>
      </trkpt>
      <trkpt lat="49.38638" lon="3.29149">
        <ele>39.400001525879</ele>
        <time>2021-08-12T09:34:40.000Z</time>
      </trkpt>
      <trkpt lat="49.38642" lon="3.29163">
        <ele>39.599998474121</ele>
        <time>2021-08-12T09:34:42.000Z</time>
      </trkpt>
      <trkpt lat="49.38646" lon="3.29176">
        <ele>39.200000762939</ele>
        <time>2021-08-12T09:34:44.000Z</time>
      </trkpt>
      <trkpt lat="49.38648" lon="3.29182">
        <ele>39.200000762939</ele>
        <time>2021-08-12T09:34:45.000Z</time>
      </trkpt>
      <trkpt lat="49.38651" lon="3.29193">
        <ele>38.799999237061</ele>
        <time>2021-08-12T09:34:47.000Z</time>
      </trkpt>
      <trkpt lat="49.38654" lon="3.29206">
        <ele>38.799999237061</ele>
        <time>2021-08-12T09:34:49.000Z</time>
      </trkpt>
      <trkpt lat="49.38655" lon="3.29213">
        <ele>38.799999237061</ele>
        <time>2021-08-12T09:34:50.000Z</time>
      </trkpt>
      <trkpt lat="49.38661" lon="3.29234">
        <ele>39.599998474121</ele>
        <time>2021-08-12T09:34:53.000Z</time>
      </trkpt>
      <trkpt lat="49.38662" lon="3.29241">
        <ele>40</ele>
        <time>2021-08-12T09:34:54.000Z</time>
      </trkpt>
      <trkpt lat="49.38664" lon="3.29245">
        <ele>40</ele>
        <time>2021-08-12T09:34:55.000Z</time>
      </trkpt>
      <trkpt lat="49.38667" lon="3.2925">
        <ele>39.799999237061</ele>
        <time>2021-08-12T09:34:57.000Z</time>
      </trkpt>
      <trkpt lat="49.38669" lon="3.29258">
        <ele>39.599998474121</ele>
        <time>2021-08-12T09:35:01.000Z</time>
      </trkpt>
      <trkpt lat="49.38676" lon="3.29274">
        <ele>39.200000762939</ele>
        <time>2021-08-12T09:35:05.000Z</time>
      </trkpt>
      <trkpt lat="49.38681" lon="3.29286">
        <ele>39.200000762939</ele>
        <time>2021-08-12T09:35:07.000Z</time>
      </trkpt>
      <trkpt lat="49.38688" lon="3.29306">
        <ele>39.200000762939</ele>
        <time>2021-08-12T09:35:10.000Z</time>
      </trkpt>
      <trkpt lat="49.38694" lon="3.29325">
        <ele>39</ele>
        <time>2021-08-12T09:35:13.000Z</time>
      </trkpt>
      <trkpt lat="49.38698" lon="3.29331">
        <ele>39.200000762939</ele>
        <time>2021-08-12T09:35:14.000Z</time>
      </trkpt>
      <trkpt lat="49.38701" lon="3.29338">
        <ele>39.400001525879</ele>
        <time>2021-08-12T09:35:15.000Z</time>
      </trkpt>
      <trkpt lat="49.3871" lon="3.29359">
        <ele>40.200000762939</ele>
        <time>2021-08-12T09:35:18.000Z</time>
      </trkpt>
      <trkpt lat="49.38713" lon="3.29365">
        <ele>40.400001525879</ele>
        <time>2021-08-12T09:35:19.000Z</time>
      </trkpt>
      <trkpt lat="49.38727" lon="3.29391">
        <ele>41</ele>
        <time>2021-08-12T09:35:23.000Z</time>
      </trkpt>
      <trkpt lat="49.38733" lon="3.29405">
        <ele>41.400001525879</ele>
        <time>2021-08-12T09:35:25.000Z</time>
      </trkpt>
      <trkpt lat="49.38738" lon="3.29418">
        <ele>41.599998474121</ele>
        <time>2021-08-12T09:35:27.000Z</time>
      </trkpt>
      <trkpt lat="49.38741" lon="3.29425">
        <ele>41.799999237061</ele>
        <time>2021-08-12T09:35:28.000Z</time>
      </trkpt>
      <trkpt lat="49.38746" lon="3.29437">
        <ele>42</ele>
        <time>2021-08-12T09:35:30.000Z</time>
      </trkpt>
      <trkpt lat="49.38748" lon="3.29442">
        <ele>42</ele>
        <time>2021-08-12T09:35:31.000Z</time>
      </trkpt>
      <trkpt lat="49.38759" lon="3.29466">
        <ele>42.200000762939</ele>
        <time>2021-08-12T09:35:35.000Z</time>
      </trkpt>
      <trkpt lat="49.38764" lon="3.29478">
        <ele>41.799999237061</ele>
        <time>2021-08-12T09:35:37.000Z</time>
      </trkpt>
      <trkpt lat="49.38767" lon="3.29484">
        <ele>41.599998474121</ele>
        <time>2021-08-12T09:35:38.000Z</time>
      </trkpt>
      <trkpt lat="49.38782" lon="3.29516">
        <ele>41.200000762939</ele>
        <time>2021-08-12T09:35:43.000Z</time>
      </trkpt>
      <trkpt lat="49.38786" lon="3.2953">
        <ele>41.799999237061</ele>
        <time>2021-08-12T09:35:45.000Z</time>
      </trkpt>
      <trkpt lat="49.38792" lon="3.2955">
        <ele>42.400001525879</ele>
        <time>2021-08-12T09:35:48.000Z</time>
      </trkpt>
      <trkpt lat="49.38798" lon="3.29574">
        <ele>43</ele>
        <time>2021-08-12T09:35:52.000Z</time>
      </trkpt>
      <trkpt lat="49.38806" lon="3.29609">
        <ele>42.799999237061</ele>
        <time>2021-08-12T09:35:58.000Z</time>
      </trkpt>
      <trkpt lat="49.3881" lon="3.29627">
        <ele>42.400001525879</ele>
        <time>2021-08-12T09:36:01.000Z</time>
      </trkpt>
      <trkpt lat="49.3881" lon="3.29635">
        <ele>42.400001525879</ele>
        <time>2021-08-12T09:36:02.000Z</time>
      </trkpt>
      <trkpt lat="49.38813" lon="3.29659">
        <ele>42.799999237061</ele>
        <time>2021-08-12T09:36:05.000Z</time>
      </trkpt>
      <trkpt lat="49.38814" lon="3.29667">
        <ele>42.599998474121</ele>
        <time>2021-08-12T09:36:06.000Z</time>
      </trkpt>
      <trkpt lat="49.38815" lon="3.29674">
        <ele>42.200000762939</ele>
        <time>2021-08-12T09:36:07.000Z</time>
      </trkpt>
      <trkpt lat="49.38819" lon="3.29707">
        <ele>40.200000762939</ele>
        <time>2021-08-12T09:36:11.000Z</time>
      </trkpt>
      <trkpt lat="49.38824" lon="3.29739">
        <ele>39.400001525879</ele>
        <time>2021-08-12T09:36:15.000Z</time>
      </trkpt>
      <trkpt lat="49.38825" lon="3.29747">
        <ele>39.200000762939</ele>
        <time>2021-08-12T09:36:16.000Z</time>
      </trkpt>
      <trkpt lat="49.38834" lon="3.29795">
        <ele>41.599998474121</ele>
        <time>2021-08-12T09:36:22.000Z</time>
      </trkpt>
      <trkpt lat="49.38837" lon="3.2981">
        <ele>42</ele>
        <time>2021-08-12T09:36:24.000Z</time>
      </trkpt>
      <trkpt lat="49.38841" lon="3.29824">
        <ele>42.200000762939</ele>
        <time>2021-08-12T09:36:26.000Z</time>
      </trkpt>
      <trkpt lat="49.38848" lon="3.29846">
        <ele>42.400001525879</ele>
        <time>2021-08-12T09:36:29.000Z</time>
      </trkpt>
      <trkpt lat="49.38853" lon="3.29861">
        <ele>42.799999237061</ele>
        <time>2021-08-12T09:36:31.000Z</time>
      </trkpt>
      <trkpt lat="49.38856" lon="3.29868">
        <ele>42.599998474121</ele>
        <time>2021-08-12T09:36:32.000Z</time>
      </trkpt>
      <trkpt lat="49.38861" lon="3.29883">
        <ele>42.599998474121</ele>
        <time>2021-08-12T09:36:34.000Z</time>
      </trkpt>
      <trkpt lat="49.38868" lon="3.29896">
        <ele>42.400001525879</ele>
        <time>2021-08-12T09:36:36.000Z</time>
      </trkpt>
      <trkpt lat="49.38878" lon="3.29914">
        <ele>42</ele>
        <time>2021-08-12T09:36:39.000Z</time>
      </trkpt>
      <trkpt lat="49.38882" lon="3.2992">
        <ele>41.799999237061</ele>
        <time>2021-08-12T09:36:40.000Z</time>
      </trkpt>
      <trkpt lat="49.38885" lon="3.29926">
        <ele>41.599998474121</ele>
        <time>2021-08-12T09:36:41.000Z</time>
      </trkpt>
      <trkpt lat="49.38901" lon="3.29951">
        <ele>40.799999237061</ele>
        <time>2021-08-12T09:36:45.000Z</time>
      </trkpt>
      <trkpt lat="49.38909" lon="3.29963">
        <ele>40.400001525879</ele>
        <time>2021-08-12T09:36:47.000Z</time>
      </trkpt>
      <trkpt lat="49.38916" lon="3.29978">
        <ele>39.799999237061</ele>
        <time>2021-08-12T09:36:49.000Z</time>
      </trkpt>
      <trkpt lat="49.38922" lon="3.29991">
        <ele>39.400001525879</ele>
        <time>2021-08-12T09:36:51.000Z</time>
      </trkpt>
      <trkpt lat="49.38925" lon="3.30004">
        <ele>39.599998474121</ele>
        <time>2021-08-12T09:36:53.000Z</time>
      </trkpt>
      <trkpt lat="49.38927" lon="3.3001">
        <ele>39.599998474121</ele>
        <time>2021-08-12T09:36:54.000Z</time>
      </trkpt>
      <trkpt lat="49.38933" lon="3.30021">
        <ele>39.200000762939</ele>
        <time>2021-08-12T09:36:56.000Z</time>
      </trkpt>
      <trkpt lat="49.38937" lon="3.30026">
        <ele>39.400001525879</ele>
        <time>2021-08-12T09:36:57.000Z</time>
      </trkpt>
      <trkpt lat="49.38947" lon="3.3005">
        <ele>40.200000762939</ele>
        <time>2021-08-12T09:37:01.000Z</time>
      </trkpt>
      <trkpt lat="49.38949" lon="3.30057">
        <ele>40.599998474121</ele>
        <time>2021-08-12T09:37:02.000Z</time>
      </trkpt>
      <trkpt lat="49.38951" lon="3.30064">
        <ele>40.799999237061</ele>
        <time>2021-08-12T09:37:03.000Z</time>
      </trkpt>
      <trkpt lat="49.38957" lon="3.30077">
        <ele>41.599998474121</ele>
        <time>2021-08-12T09:37:05.000Z</time>
      </trkpt>
      <trkpt lat="49.38961" lon="3.30091">
        <ele>42.200000762939</ele>
        <time>2021-08-12T09:37:07.000Z</time>
      </trkpt>
      <trkpt lat="49.38964" lon="3.30097">
        <ele>42.400001525879</ele>
        <time>2021-08-12T09:37:08.000Z</time>
      </trkpt>
      <trkpt lat="49.38971" lon="3.30115">
        <ele>42.400001525879</ele>
        <time>2021-08-12T09:37:11.000Z</time>
      </trkpt>
      <trkpt lat="49.38979" lon="3.3015">
        <ele>40.400001525879</ele>
        <time>2021-08-12T09:37:16.000Z</time>
      </trkpt>
      <trkpt lat="49.38984" lon="3.30163">
        <ele>39.400001525879</ele>
        <time>2021-08-12T09:37:18.000Z</time>
      </trkpt>
      <trkpt lat="49.38985" lon="3.3017">
        <ele>39.400001525879</ele>
        <time>2021-08-12T09:37:19.000Z</time>
      </trkpt>
      <trkpt lat="49.38986" lon="3.30177">
        <ele>39.200000762939</ele>
        <time>2021-08-12T09:37:20.000Z</time>
      </trkpt>
      <trkpt lat="49.38989" lon="3.30192">
        <ele>38.599998474121</ele>
        <time>2021-08-12T09:37:22.000Z</time>
      </trkpt>
      <trkpt lat="49.38992" lon="3.30199">
        <ele>38.400001525879</ele>
        <time>2021-08-12T09:37:23.000Z</time>
      </trkpt>
      <trkpt lat="49.3901" lon="3.30238">
        <ele>38.400001525879</ele>
        <time>2021-08-12T09:37:29.000Z</time>
      </trkpt>
      <trkpt lat="49.39021" lon="3.30266">
        <ele>38.799999237061</ele>
        <time>2021-08-12T09:37:33.000Z</time>
      </trkpt>
      <trkpt lat="49.39027" lon="3.30279">
        <ele>39</ele>
        <time>2021-08-12T09:37:35.000Z</time>
      </trkpt>
      <trkpt lat="49.39045" lon="3.3032">
        <ele>39</ele>
        <time>2021-08-12T09:37:41.000Z</time>
      </trkpt>
      <trkpt lat="49.39051" lon="3.30333">
        <ele>38.799999237061</ele>
        <time>2021-08-12T09:37:43.000Z</time>
      </trkpt>
      <trkpt lat="49.39057" lon="3.30345">
        <ele>38.200000762939</ele>
        <time>2021-08-12T09:37:45.000Z</time>
      </trkpt>
      <trkpt lat="49.39077" lon="3.30383">
        <ele>37.200000762939</ele>
        <time>2021-08-12T09:37:51.000Z</time>
      </trkpt>
      <trkpt lat="49.39084" lon="3.30396">
        <ele>37.200000762939</ele>
        <time>2021-08-12T09:37:53.000Z</time>
      </trkpt>
      <trkpt lat="49.39092" lon="3.30418">
        <ele>37.400001525879</ele>
        <time>2021-08-12T09:37:56.000Z</time>
      </trkpt>
      <trkpt lat="49.39106" lon="3.30472">
        <ele>37</ele>
        <time>2021-08-12T09:38:03.000Z</time>
      </trkpt>
      <trkpt lat="49.39116" lon="3.30524">
        <ele>37.200000762939</ele>
        <time>2021-08-12T09:38:09.000Z</time>
      </trkpt>
      <trkpt lat="49.39125" lon="3.30584">
        <ele>37.599998474121</ele>
        <time>2021-08-12T09:38:16.000Z</time>
      </trkpt>
      <trkpt lat="49.39132" lon="3.30635">
        <ele>37.799999237061</ele>
        <time>2021-08-12T09:38:22.000Z</time>
      </trkpt>
      <trkpt lat="49.39134" lon="3.30643">
        <ele>38</ele>
        <time>2021-08-12T09:38:23.000Z</time>
      </trkpt>
      <trkpt lat="49.39141" lon="3.30694">
        <ele>38.200000762939</ele>
        <time>2021-08-12T09:38:29.000Z</time>
      </trkpt>
      <trkpt lat="49.39143" lon="3.30702">
        <ele>38.200000762939</ele>
        <time>2021-08-12T09:38:30.000Z</time>
      </trkpt>
      <trkpt lat="49.39149" lon="3.30726">
        <ele>38.400001525879</ele>
        <time>2021-08-12T09:38:33.000Z</time>
      </trkpt>
      <trkpt lat="49.39154" lon="3.30742">
        <ele>38.799999237061</ele>
        <time>2021-08-12T09:38:35.000Z</time>
      </trkpt>
      <trkpt lat="49.39159" lon="3.30756">
        <ele>39</ele>
        <time>2021-08-12T09:38:37.000Z</time>
      </trkpt>
      <trkpt lat="49.39161" lon="3.30764">
        <ele>39</ele>
        <time>2021-08-12T09:38:38.000Z</time>
      </trkpt>
      <trkpt lat="49.39171" lon="3.308">
        <ele>38.200000762939</ele>
        <time>2021-08-12T09:38:43.000Z</time>
      </trkpt>
      <trkpt lat="49.39176" lon="3.30817">
        <ele>38</ele>
        <time>2021-08-12T09:38:46.000Z</time>
      </trkpt>
      <trkpt lat="49.39186" lon="3.30842">
        <ele>38.599998474121</ele>
        <time>2021-08-12T09:38:50.000Z</time>
      </trkpt>
      <trkpt lat="49.39198" lon="3.30877">
        <ele>39.599998474121</ele>
        <time>2021-08-12T09:38:55.000Z</time>
      </trkpt>
      <trkpt lat="49.39202" lon="3.30892">
        <ele>39.799999237061</ele>
        <time>2021-08-12T09:38:57.000Z</time>
      </trkpt>
      <trkpt lat="49.39209" lon="3.30903">
        <ele>40</ele>
        <time>2021-08-12T09:38:59.000Z</time>
      </trkpt>
      <trkpt lat="49.39213" lon="3.30908">
        <ele>40</ele>
        <time>2021-08-12T09:39:00.000Z</time>
      </trkpt>
      <trkpt lat="49.39216" lon="3.30912">
        <ele>40.200000762939</ele>
        <time>2021-08-12T09:39:01.000Z</time>
      </trkpt>
      <trkpt lat="49.39219" lon="3.30925">
        <ele>40</ele>
        <time>2021-08-12T09:39:03.000Z</time>
      </trkpt>
      <trkpt lat="49.39217" lon="3.30955">
        <ele>39.599998474121</ele>
        <time>2021-08-12T09:39:07.000Z</time>
      </trkpt>
      <trkpt lat="49.39221" lon="3.30968">
        <ele>38.799999237061</ele>
        <time>2021-08-12T09:39:09.000Z</time>
      </trkpt>
      <trkpt lat="49.39225" lon="3.30972">
        <ele>38.599998474121</ele>
        <time>2021-08-12T09:39:10.000Z</time>
      </trkpt>
      <trkpt lat="49.39231" lon="3.30981">
        <ele>38</ele>
        <time>2021-08-12T09:39:12.000Z</time>
      </trkpt>
      <trkpt lat="49.39234" lon="3.30988">
        <ele>37.599998474121</ele>
        <time>2021-08-12T09:39:13.000Z</time>
      </trkpt>
      <trkpt lat="49.39237" lon="3.30996">
        <ele>37.400001525879</ele>
        <time>2021-08-12T09:39:14.000Z</time>
      </trkpt>
      <trkpt lat="49.39237" lon="3.31014">
        <ele>38</ele>
        <time>2021-08-12T09:39:16.000Z</time>
      </trkpt>
      <trkpt lat="49.39238" lon="3.31023">
        <ele>38</ele>
        <time>2021-08-12T09:39:17.000Z</time>
      </trkpt>
      <trkpt lat="49.39241" lon="3.31039">
        <ele>38</ele>
        <time>2021-08-12T09:39:19.000Z</time>
      </trkpt>
      <trkpt lat="49.39249" lon="3.31063">
        <ele>38.400001525879</ele>
        <time>2021-08-12T09:39:22.000Z</time>
      </trkpt>
      <trkpt lat="49.39254" lon="3.31077">
        <ele>38.400001525879</ele>
        <time>2021-08-12T09:39:24.000Z</time>
      </trkpt>
      <trkpt lat="49.39257" lon="3.31084">
        <ele>38.200000762939</ele>
        <time>2021-08-12T09:39:25.000Z</time>
      </trkpt>
      <trkpt lat="49.39263" lon="3.31097">
        <ele>38</ele>
        <time>2021-08-12T09:39:27.000Z</time>
      </trkpt>
      <trkpt lat="49.39266" lon="3.31104">
        <ele>37.799999237061</ele>
        <time>2021-08-12T09:39:28.000Z</time>
      </trkpt>
      <trkpt lat="49.39275" lon="3.31117">
        <ele>37.400001525879</ele>
        <time>2021-08-12T09:39:30.000Z</time>
      </trkpt>
      <trkpt lat="49.39287" lon="3.31137">
        <ele>37</ele>
        <time>2021-08-12T09:39:33.000Z</time>
      </trkpt>
      <trkpt lat="49.39307" lon="3.31172">
        <ele>37.200000762939</ele>
        <time>2021-08-12T09:39:38.000Z</time>
      </trkpt>
      <trkpt lat="49.39311" lon="3.31178">
        <ele>37.200000762939</ele>
        <time>2021-08-12T09:39:39.000Z</time>
      </trkpt>
      <trkpt lat="49.39338" lon="3.31217">
        <ele>38.799999237061</ele>
        <time>2021-08-12T09:39:45.000Z</time>
      </trkpt>
      <trkpt lat="49.39356" lon="3.31244">
        <ele>39</ele>
        <time>2021-08-12T09:39:49.000Z</time>
      </trkpt>
      <trkpt lat="49.39365" lon="3.31257">
        <ele>39.599998474121</ele>
        <time>2021-08-12T09:39:51.000Z</time>
      </trkpt>
      <trkpt lat="49.39395" lon="3.31296">
        <ele>39.599998474121</ele>
        <time>2021-08-12T09:39:57.000Z</time>
      </trkpt>
      <trkpt lat="49.39435" lon="3.31347">
        <ele>37.599998474121</ele>
        <time>2021-08-12T09:40:05.000Z</time>
      </trkpt>
      <trkpt lat="49.3947" lon="3.31393">
        <ele>36.599998474121</ele>
        <time>2021-08-12T09:40:12.000Z</time>
      </trkpt>
      <trkpt lat="49.39502" lon="3.31446">
        <ele>38.400001525879</ele>
        <time>2021-08-12T09:40:19.000Z</time>
      </trkpt>
      <trkpt lat="49.3953" lon="3.315">
        <ele>40.400001525879</ele>
        <time>2021-08-12T09:40:26.000Z</time>
      </trkpt>
      <trkpt lat="49.39536" lon="3.31515">
        <ele>41.200000762939</ele>
        <time>2021-08-12T09:40:28.000Z</time>
      </trkpt>
      <trkpt lat="49.39543" lon="3.31529">
        <ele>41.599998474121</ele>
        <time>2021-08-12T09:40:30.000Z</time>
      </trkpt>
      <trkpt lat="49.39546" lon="3.31537">
        <ele>41.799999237061</ele>
        <time>2021-08-12T09:40:31.000Z</time>
      </trkpt>
      <trkpt lat="49.39559" lon="3.31568">
        <ele>41.400001525879</ele>
        <time>2021-08-12T09:40:35.000Z</time>
      </trkpt>
      <trkpt lat="49.39576" lon="3.31616">
        <ele>40</ele>
        <time>2021-08-12T09:40:41.000Z</time>
      </trkpt>
      <trkpt lat="49.39584" lon="3.3164">
        <ele>40</ele>
        <time>2021-08-12T09:40:44.000Z</time>
      </trkpt>
      <trkpt lat="49.39588" lon="3.31656">
        <ele>39.799999237061</ele>
        <time>2021-08-12T09:40:46.000Z</time>
      </trkpt>
      <trkpt lat="49.39605" lon="3.31693">
        <ele>39.799999237061</ele>
        <time>2021-08-12T09:40:51.000Z</time>
      </trkpt>
      <trkpt lat="49.39607" lon="3.31701">
        <ele>39.599998474121</ele>
        <time>2021-08-12T09:40:52.000Z</time>
      </trkpt>
      <trkpt lat="49.39622" lon="3.3175">
        <ele>38.799999237061</ele>
        <time>2021-08-12T09:40:59.000Z</time>
      </trkpt>
      <trkpt lat="49.39626" lon="3.3176">
        <ele>38.400001525879</ele>
        <time>2021-08-12T09:41:01.000Z</time>
      </trkpt>
      <trkpt lat="49.39631" lon="3.31771">
        <ele>38.200000762939</ele>
        <time>2021-08-12T09:41:03.000Z</time>
      </trkpt>
      <trkpt lat="49.39635" lon="3.31778">
        <ele>38</ele>
        <time>2021-08-12T09:41:04.000Z</time>
      </trkpt>
      <trkpt lat="49.39649" lon="3.31805">
        <ele>38.200000762939</ele>
        <time>2021-08-12T09:41:08.000Z</time>
      </trkpt>
      <trkpt lat="49.39672" lon="3.31858">
        <ele>38.599998474121</ele>
        <time>2021-08-12T09:41:15.000Z</time>
      </trkpt>
      <trkpt lat="49.39683" lon="3.31891">
        <ele>39.200000762939</ele>
        <time>2021-08-12T09:41:19.000Z</time>
      </trkpt>
      <trkpt lat="49.39687" lon="3.31917">
        <ele>38.599998474121</ele>
        <time>2021-08-12T09:41:22.000Z</time>
      </trkpt>
      <trkpt lat="49.39688" lon="3.31945">
        <ele>37.599998474121</ele>
        <time>2021-08-12T09:41:25.000Z</time>
      </trkpt>
      <trkpt lat="49.39685" lon="3.31963">
        <ele>36.799999237061</ele>
        <time>2021-08-12T09:41:27.000Z</time>
      </trkpt>
      <trkpt lat="49.39682" lon="3.31981">
        <ele>36.799999237061</ele>
        <time>2021-08-12T09:41:29.000Z</time>
      </trkpt>
      <trkpt lat="49.39675" lon="3.32006">
        <ele>37.799999237061</ele>
        <time>2021-08-12T09:41:32.000Z</time>
      </trkpt>
      <trkpt lat="49.3966" lon="3.32055">
        <ele>40.200000762939</ele>
        <time>2021-08-12T09:41:38.000Z</time>
      </trkpt>
      <trkpt lat="49.39657" lon="3.32062">
        <ele>40.400001525879</ele>
        <time>2021-08-12T09:41:39.000Z</time>
      </trkpt>
      <trkpt lat="49.39648" lon="3.32085">
        <ele>41</ele>
        <time>2021-08-12T09:41:42.000Z</time>
      </trkpt>
      <trkpt lat="49.39646" lon="3.32102">
        <ele>41</ele>
        <time>2021-08-12T09:41:44.000Z</time>
      </trkpt>
      <trkpt lat="49.39645" lon="3.32111">
        <ele>40.799999237061</ele>
        <time>2021-08-12T09:41:45.000Z</time>
      </trkpt>
      <trkpt lat="49.39639" lon="3.32154">
        <ele>40.200000762939</ele>
        <time>2021-08-12T09:41:50.000Z</time>
      </trkpt>
      <trkpt lat="49.39628" lon="3.3222">
        <ele>39.400001525879</ele>
        <time>2021-08-12T09:41:58.000Z</time>
      </trkpt>
      <trkpt lat="49.39626" lon="3.32228">
        <ele>39.400001525879</ele>
        <time>2021-08-12T09:41:59.000Z</time>
      </trkpt>
      <trkpt lat="49.39623" lon="3.32252">
        <ele>39</ele>
        <time>2021-08-12T09:42:02.000Z</time>
      </trkpt>
      <trkpt lat="49.39615" lon="3.32303">
        <ele>39.200000762939</ele>
        <time>2021-08-12T09:42:08.000Z</time>
      </trkpt>
      <trkpt lat="49.39606" lon="3.32354">
        <ele>39</ele>
        <time>2021-08-12T09:42:14.000Z</time>
      </trkpt>
      <trkpt lat="49.39597" lon="3.32404">
        <ele>39.200000762939</ele>
        <time>2021-08-12T09:42:20.000Z</time>
      </trkpt>
      <trkpt lat="49.39595" lon="3.32419">
        <ele>39.799999237061</ele>
        <time>2021-08-12T09:42:22.000Z</time>
      </trkpt>
      <trkpt lat="49.39591" lon="3.32449">
        <ele>39.400001525879</ele>
        <time>2021-08-12T09:42:26.000Z</time>
      </trkpt>
      <trkpt lat="49.39584" lon="3.32491">
        <ele>39.799999237061</ele>
        <time>2021-08-12T09:42:31.000Z</time>
      </trkpt>
      <trkpt lat="49.39577" lon="3.32534">
        <ele>40</ele>
        <time>2021-08-12T09:42:36.000Z</time>
      </trkpt>
      <trkpt lat="49.39577" lon="3.32543">
        <ele>40</ele>
        <time>2021-08-12T09:42:37.000Z</time>
      </trkpt>
      <trkpt lat="49.39577" lon="3.3255">
        <ele>40</ele>
        <time>2021-08-12T09:42:38.000Z</time>
      </trkpt>
      <trkpt lat="49.39574" lon="3.32563">
        <ele>40</ele>
        <time>2021-08-12T09:42:40.000Z</time>
      </trkpt>
      <trkpt lat="49.39566" lon="3.32567">
        <ele>40</ele>
        <time>2021-08-12T09:42:42.000Z</time>
      </trkpt>
      <trkpt lat="49.39551" lon="3.32568">
        <ele>40</ele>
        <time>2021-08-12T09:42:46.000Z</time>
      </trkpt>
      <trkpt lat="49.39547" lon="3.3257">
        <ele>40</ele>
        <time>2021-08-12T09:42:47.000Z</time>
      </trkpt>
      <trkpt lat="49.3954" lon="3.32576">
        <ele>39.599998474121</ele>
        <time>2021-08-12T09:42:49.000Z</time>
      </trkpt>
      <trkpt lat="49.3953" lon="3.32586">
        <ele>39.200000762939</ele>
        <time>2021-08-12T09:42:52.000Z</time>
      </trkpt>
      <trkpt lat="49.39523" lon="3.32591">
        <ele>39.599998474121</ele>
        <time>2021-08-12T09:42:55.000Z</time>
      </trkpt>
      <trkpt lat="49.3952" lon="3.32602">
        <ele>40</ele>
        <time>2021-08-12T09:42:58.000Z</time>
      </trkpt>
      <trkpt lat="49.39515" lon="3.3261">
        <ele>40</ele>
        <time>2021-08-12T09:43:01.000Z</time>
      </trkpt>
      <trkpt lat="49.39515" lon="3.32612">
        <ele>40</ele>
        <time>2021-08-12T09:43:02.000Z</time>
      </trkpt>
      <trkpt lat="49.39513" lon="3.32619">
        <ele>40</ele>
        <time>2021-08-12T09:43:06.000Z</time>
      </trkpt>
      <trkpt lat="49.39511" lon="3.3262">
        <ele>40</ele>
        <time>2021-08-12T09:43:07.000Z</time>
      </trkpt>
      <trkpt lat="49.395" lon="3.32623">
        <ele>40</ele>
        <time>2021-08-12T09:43:11.000Z</time>
      </trkpt>
      <trkpt lat="49.39478" lon="3.32631">
        <ele>40.599998474121</ele>
        <time>2021-08-12T09:43:16.000Z</time>
      </trkpt>
      <trkpt lat="49.39465" lon="3.32634">
        <ele>41</ele>
        <time>2021-08-12T09:43:19.000Z</time>
      </trkpt>
      <trkpt lat="49.39456" lon="3.32637">
        <ele>40.799999237061</ele>
        <time>2021-08-12T09:43:21.000Z</time>
      </trkpt>
      <trkpt lat="49.3944" lon="3.32644">
        <ele>41</ele>
        <time>2021-08-12T09:43:25.000Z</time>
      </trkpt>
      <trkpt lat="49.39421" lon="3.32649">
        <ele>41.200000762939</ele>
        <time>2021-08-12T09:43:29.000Z</time>
      </trkpt>
      <trkpt lat="49.39417" lon="3.32651">
        <ele>41.400001525879</ele>
        <time>2021-08-12T09:43:30.000Z</time>
      </trkpt>
      <trkpt lat="49.39413" lon="3.32653">
        <ele>41.799999237061</ele>
        <time>2021-08-12T09:43:31.000Z</time>
      </trkpt>
      <trkpt lat="49.39391" lon="3.3266">
        <ele>42</ele>
        <time>2021-08-12T09:43:35.000Z</time>
      </trkpt>
      <trkpt lat="49.39379" lon="3.32664">
        <ele>42</ele>
        <time>2021-08-12T09:43:37.000Z</time>
      </trkpt>
      <trkpt lat="49.39368" lon="3.32669">
        <ele>42</ele>
        <time>2021-08-12T09:43:39.000Z</time>
      </trkpt>
      <trkpt lat="49.39357" lon="3.32673">
        <ele>41.599998474121</ele>
        <time>2021-08-12T09:43:41.000Z</time>
      </trkpt>
      <trkpt lat="49.39342" lon="3.32677">
        <ele>41.400001525879</ele>
        <time>2021-08-12T09:43:44.000Z</time>
      </trkpt>
      <trkpt lat="49.39323" lon="3.32681">
        <ele>40.799999237061</ele>
        <time>2021-08-12T09:43:48.000Z</time>
      </trkpt>
      <trkpt lat="49.39318" lon="3.32683">
        <ele>41.200000762939</ele>
        <time>2021-08-12T09:43:49.000Z</time>
      </trkpt>
      <trkpt lat="49.39303" lon="3.32689">
        <ele>42</ele>
        <time>2021-08-12T09:43:52.000Z</time>
      </trkpt>
      <trkpt lat="49.39294" lon="3.3269">
        <ele>42.200000762939</ele>
        <time>2021-08-12T09:43:54.000Z</time>
      </trkpt>
      <trkpt lat="49.39269" lon="3.327">
        <ele>42.599998474121</ele>
        <time>2021-08-12T09:43:59.000Z</time>
      </trkpt>
      <trkpt lat="49.39249" lon="3.32705">
        <ele>43</ele>
        <time>2021-08-12T09:44:03.000Z</time>
      </trkpt>
      <trkpt lat="49.39223" lon="3.32714">
        <ele>42.200000762939</ele>
        <time>2021-08-12T09:44:08.000Z</time>
      </trkpt>
      <trkpt lat="49.39213" lon="3.32717">
        <ele>42</ele>
        <time>2021-08-12T09:44:10.000Z</time>
      </trkpt>
      <trkpt lat="49.39201" lon="3.3272">
        <ele>42</ele>
        <time>2021-08-12T09:44:13.000Z</time>
      </trkpt>
      <trkpt lat="49.39188" lon="3.32725">
        <ele>42.599998474121</ele>
        <time>2021-08-12T09:44:15.000Z</time>
      </trkpt>
      <trkpt lat="49.3918" lon="3.32729">
        <ele>43.200000762939</ele>
        <time>2021-08-12T09:44:16.000Z</time>
      </trkpt>
      <trkpt lat="49.39155" lon="3.32736">
        <ele>43.599998474121</ele>
        <time>2021-08-12T09:44:21.000Z</time>
      </trkpt>
      <trkpt lat="49.39125" lon="3.32745">
        <ele>43.400001525879</ele>
        <time>2021-08-12T09:44:27.000Z</time>
      </trkpt>
      <trkpt lat="49.39099" lon="3.32755">
        <ele>44.200000762939</ele>
        <time>2021-08-12T09:44:31.000Z</time>
      </trkpt>
      <trkpt lat="49.39095" lon="3.32762">
        <ele>44.400001525879</ele>
        <time>2021-08-12T09:44:32.000Z</time>
      </trkpt>
      <trkpt lat="49.3909" lon="3.32778">
        <ele>44.400001525879</ele>
        <time>2021-08-12T09:44:34.000Z</time>
      </trkpt>
      <trkpt lat="49.39082" lon="3.32792">
        <ele>44.200000762939</ele>
        <time>2021-08-12T09:44:36.000Z</time>
      </trkpt>
      <trkpt lat="49.39066" lon="3.32804">
        <ele>44</ele>
        <time>2021-08-12T09:44:39.000Z</time>
      </trkpt>
      <trkpt lat="49.3906" lon="3.32807">
        <ele>44</ele>
        <time>2021-08-12T09:44:40.000Z</time>
      </trkpt>
      <trkpt lat="49.3905" lon="3.32807">
        <ele>43.799999237061</ele>
        <time>2021-08-12T09:44:42.000Z</time>
      </trkpt>
      <trkpt lat="49.39039" lon="3.32807">
        <ele>43.599998474121</ele>
        <time>2021-08-12T09:44:44.000Z</time>
      </trkpt>
      <trkpt lat="49.3903" lon="3.32808">
        <ele>43.200000762939</ele>
        <time>2021-08-12T09:44:46.000Z</time>
      </trkpt>
      <trkpt lat="49.39021" lon="3.32803">
        <ele>43.200000762939</ele>
        <time>2021-08-12T09:44:48.000Z</time>
      </trkpt>
      <trkpt lat="49.39013" lon="3.32792">
        <ele>43.799999237061</ele>
        <time>2021-08-12T09:44:51.000Z</time>
      </trkpt>
      <trkpt lat="49.39007" lon="3.32795">
        <ele>43.799999237061</ele>
        <time>2021-08-12T09:44:53.000Z</time>
      </trkpt>
      <trkpt lat="49.39004" lon="3.32797">
        <ele>43.799999237061</ele>
        <time>2021-08-12T09:44:54.000Z</time>
      </trkpt>
      <trkpt lat="49.38988" lon="3.328">
        <ele>45.400001525879</ele>
        <time>2021-08-12T09:44:58.000Z</time>
      </trkpt>
      <trkpt lat="49.38964" lon="3.32806">
        <ele>47.400001525879</ele>
        <time>2021-08-12T09:45:02.000Z</time>
      </trkpt>
      <trkpt lat="49.38952" lon="3.32809">
        <ele>46.799999237061</ele>
        <time>2021-08-12T09:45:04.000Z</time>
      </trkpt>
      <trkpt lat="49.3891" lon="3.32823">
        <ele>44.400001525879</ele>
        <time>2021-08-12T09:45:11.000Z</time>
      </trkpt>
      <trkpt lat="49.38875" lon="3.32835">
        <ele>44.599998474121</ele>
        <time>2021-08-12T09:45:17.000Z</time>
      </trkpt>
      <trkpt lat="49.38847" lon="3.32845">
        <ele>43.799999237061</ele>
        <time>2021-08-12T09:45:22.000Z</time>
      </trkpt>
      <trkpt lat="49.38825" lon="3.32853">
        <ele>44.400001525879</ele>
        <time>2021-08-12T09:45:26.000Z</time>
      </trkpt>
      <trkpt lat="49.3881" lon="3.32859">
        <ele>44.400001525879</ele>
        <time>2021-08-12T09:45:29.000Z</time>
      </trkpt>
      <trkpt lat="49.38799" lon="3.32868">
        <ele>44.799999237061</ele>
        <time>2021-08-12T09:45:31.000Z</time>
      </trkpt>
      <trkpt lat="49.38777" lon="3.32886">
        <ele>44.799999237061</ele>
        <time>2021-08-12T09:45:35.000Z</time>
      </trkpt>
      <trkpt lat="49.38765" lon="3.3289">
        <ele>44.799999237061</ele>
        <time>2021-08-12T09:45:37.000Z</time>
      </trkpt>
      <trkpt lat="49.38743" lon="3.32897">
        <ele>44</ele>
        <time>2021-08-12T09:45:41.000Z</time>
      </trkpt>
      <trkpt lat="49.38738" lon="3.329">
        <ele>43.599998474121</ele>
        <time>2021-08-12T09:45:42.000Z</time>
      </trkpt>
      <trkpt lat="49.38724" lon="3.3291">
        <ele>43</ele>
        <time>2021-08-12T09:45:45.000Z</time>
      </trkpt>
      <trkpt lat="49.38718" lon="3.32912">
        <ele>43</ele>
        <time>2021-08-12T09:45:46.000Z</time>
      </trkpt>
      <trkpt lat="49.38696" lon="3.32921">
        <ele>44.200000762939</ele>
        <time>2021-08-12T09:45:50.000Z</time>
      </trkpt>
      <trkpt lat="49.38662" lon="3.32936">
        <ele>47.200000762939</ele>
        <time>2021-08-12T09:45:56.000Z</time>
      </trkpt>
      <trkpt lat="49.38653" lon="3.32942">
        <ele>47.400001525879</ele>
        <time>2021-08-12T09:45:58.000Z</time>
      </trkpt>
      <trkpt lat="49.38643" lon="3.32947">
        <ele>47.400001525879</ele>
        <time>2021-08-12T09:46:00.000Z</time>
      </trkpt>
      <trkpt lat="49.38633" lon="3.32952">
        <ele>47.599998474121</ele>
        <time>2021-08-12T09:46:02.000Z</time>
      </trkpt>
      <trkpt lat="49.38619" lon="3.3296">
        <ele>47.200000762939</ele>
        <time>2021-08-12T09:46:05.000Z</time>
      </trkpt>
      <trkpt lat="49.38599" lon="3.32972">
        <ele>46.599998474121</ele>
        <time>2021-08-12T09:46:09.000Z</time>
      </trkpt>
      <trkpt lat="49.38578" lon="3.32984">
        <ele>46.400001525879</ele>
        <time>2021-08-12T09:46:13.000Z</time>
      </trkpt>
      <trkpt lat="49.38562" lon="3.32991">
        <ele>47.400001525879</ele>
        <time>2021-08-12T09:46:16.000Z</time>
      </trkpt>
      <trkpt lat="49.38552" lon="3.32998">
        <ele>47.799999237061</ele>
        <time>2021-08-12T09:46:18.000Z</time>
      </trkpt>
      <trkpt lat="49.38547" lon="3.33002">
        <ele>47.799999237061</ele>
        <time>2021-08-12T09:46:19.000Z</time>
      </trkpt>
      <trkpt lat="49.38531" lon="3.33009">
        <ele>47.200000762939</ele>
        <time>2021-08-12T09:46:22.000Z</time>
      </trkpt>
      <trkpt lat="49.38515" lon="3.3301">
        <ele>46</ele>
        <time>2021-08-12T09:46:25.000Z</time>
      </trkpt>
      <trkpt lat="49.38505" lon="3.3301">
        <ele>44.599998474121</ele>
        <time>2021-08-12T09:46:27.000Z</time>
      </trkpt>
      <trkpt lat="49.38495" lon="3.33019">
        <ele>42.400001525879</ele>
        <time>2021-08-12T09:46:29.000Z</time>
      </trkpt>
      <trkpt lat="49.38484" lon="3.3303">
        <ele>40.799999237061</ele>
        <time>2021-08-12T09:46:31.000Z</time>
      </trkpt>
      <trkpt lat="49.38478" lon="3.33032">
        <ele>40.400001525879</ele>
        <time>2021-08-12T09:46:32.000Z</time>
      </trkpt>
      <trkpt lat="49.38458" lon="3.3304">
        <ele>40.599998474121</ele>
        <time>2021-08-12T09:46:35.000Z</time>
      </trkpt>
      <trkpt lat="49.38449" lon="3.33044">
        <ele>41.400001525879</ele>
        <time>2021-08-12T09:46:37.000Z</time>
      </trkpt>
      <trkpt lat="49.38426" lon="3.33042">
        <ele>42.599998474121</ele>
        <time>2021-08-12T09:46:42.000Z</time>
      </trkpt>
      <trkpt lat="49.38393" lon="3.33042">
        <ele>41.400001525879</ele>
        <time>2021-08-12T09:46:48.000Z</time>
      </trkpt>
      <trkpt lat="49.38353" lon="3.33038">
        <ele>40</ele>
        <time>2021-08-12T09:46:55.000Z</time>
      </trkpt>
      <trkpt lat="49.38343" lon="3.33036">
        <ele>40</ele>
        <time>2021-08-12T09:46:57.000Z</time>
      </trkpt>
      <trkpt lat="49.38325" lon="3.33034">
        <ele>40.200000762939</ele>
        <time>2021-08-12T09:47:00.000Z</time>
      </trkpt>
      <trkpt lat="49.38314" lon="3.33031">
        <ele>40.599998474121</ele>
        <time>2021-08-12T09:47:02.000Z</time>
      </trkpt>
      <trkpt lat="49.38295" lon="3.33029">
        <ele>41</ele>
        <time>2021-08-12T09:47:05.000Z</time>
      </trkpt>
      <trkpt lat="49.38277" lon="3.33026">
        <ele>41.799999237061</ele>
        <time>2021-08-12T09:47:08.000Z</time>
      </trkpt>
      <trkpt lat="49.38266" lon="3.33023">
        <ele>42</ele>
        <time>2021-08-12T09:47:10.000Z</time>
      </trkpt>
      <trkpt lat="49.3826" lon="3.33023">
        <ele>42</ele>
        <time>2021-08-12T09:47:11.000Z</time>
      </trkpt>
      <trkpt lat="49.3825" lon="3.33023">
        <ele>42</ele>
        <time>2021-08-12T09:47:13.000Z</time>
      </trkpt>
      <trkpt lat="49.38243" lon="3.33023">
        <ele>42.200000762939</ele>
        <time>2021-08-12T09:47:15.000Z</time>
      </trkpt>
      <trkpt lat="49.38239" lon="3.33025">
        <ele>42.200000762939</ele>
        <time>2021-08-12T09:47:16.000Z</time>
      </trkpt>
      <trkpt lat="49.38225" lon="3.33029">
        <ele>42.599998474121</ele>
        <time>2021-08-12T09:47:19.000Z</time>
      </trkpt>
      <trkpt lat="49.3821" lon="3.33032">
        <ele>43</ele>
        <time>2021-08-12T09:47:22.000Z</time>
      </trkpt>
      <trkpt lat="49.38199" lon="3.33035">
        <ele>43</ele>
        <time>2021-08-12T09:47:24.000Z</time>
      </trkpt>
      <trkpt lat="49.38168" lon="3.33043">
        <ele>43.799999237061</ele>
        <time>2021-08-12T09:47:30.000Z</time>
      </trkpt>
      <trkpt lat="49.38163" lon="3.33044">
        <ele>44</ele>
        <time>2021-08-12T09:47:31.000Z</time>
      </trkpt>
      <trkpt lat="49.38154" lon="3.33048">
        <ele>44.400001525879</ele>
        <time>2021-08-12T09:47:33.000Z</time>
      </trkpt>
      <trkpt lat="49.38147" lon="3.33052">
        <ele>44.599998474121</ele>
        <time>2021-08-12T09:47:35.000Z</time>
      </trkpt>
      <trkpt lat="49.38144" lon="3.33054">
        <ele>44.599998474121</ele>
        <time>2021-08-12T09:47:36.000Z</time>
      </trkpt>
      <trkpt lat="49.38142" lon="3.33062">
        <ele>44.599998474121</ele>
        <time>2021-08-12T09:47:38.000Z</time>
      </trkpt>
      <trkpt lat="49.38148" lon="3.33082">
        <ele>44</ele>
        <time>2021-08-12T09:47:42.000Z</time>
      </trkpt>
      <trkpt lat="49.38161" lon="3.33125">
        <ele>43.200000762939</ele>
        <time>2021-08-12T09:47:50.000Z</time>
      </trkpt>
      <trkpt lat="49.38174" lon="3.33172">
        <ele>43</ele>
        <time>2021-08-12T09:47:57.000Z</time>
      </trkpt>
      <trkpt lat="49.38186" lon="3.33214">
        <ele>43</ele>
        <time>2021-08-12T09:48:02.000Z</time>
      </trkpt>
      <trkpt lat="49.38203" lon="3.33261">
        <ele>42.599998474121</ele>
        <time>2021-08-12T09:48:08.000Z</time>
      </trkpt>
      <trkpt lat="49.38212" lon="3.33288">
        <ele>42.200000762939</ele>
        <time>2021-08-12T09:48:12.000Z</time>
      </trkpt>
      <trkpt lat="49.38215" lon="3.33294">
        <ele>42.200000762939</ele>
        <time>2021-08-12T09:48:13.000Z</time>
      </trkpt>
      <trkpt lat="49.38217" lon="3.33305">
        <ele>42.200000762939</ele>
        <time>2021-08-12T09:48:16.000Z</time>
      </trkpt>
      <trkpt lat="49.38216" lon="3.33309">
        <ele>42.400001525879</ele>
        <time>2021-08-12T09:48:18.000Z</time>
      </trkpt>
      <trkpt lat="49.38217" lon="3.33315">
        <ele>42.599998474121</ele>
        <time>2021-08-12T09:48:20.000Z</time>
      </trkpt>
      <trkpt lat="49.38216" lon="3.33319">
        <ele>42.799999237061</ele>
        <time>2021-08-12T09:48:21.000Z</time>
      </trkpt>
      <trkpt lat="49.38213" lon="3.33323">
        <ele>43</ele>
        <time>2021-08-12T09:48:23.000Z</time>
      </trkpt>
      <trkpt lat="49.38211" lon="3.33324">
        <ele>43</ele>
        <time>2021-08-12T09:48:24.000Z</time>
      </trkpt>
      <trkpt lat="49.38196" lon="3.33327">
        <ele>43</ele>
        <time>2021-08-12T09:48:28.000Z</time>
      </trkpt>
      <trkpt lat="49.38185" lon="3.33331">
        <ele>43.200000762939</ele>
        <time>2021-08-12T09:48:32.000Z</time>
      </trkpt>
      <trkpt lat="49.38169" lon="3.33334">
        <ele>43.799999237061</ele>
        <time>2021-08-12T09:48:37.000Z</time>
      </trkpt>
      <trkpt lat="49.38168" lon="3.33334">
        <ele>43.799999237061</ele>
        <time>2021-08-12T09:48:39.000Z</time>
      </trkpt>
    </trkseg>
  </trk>
</gpx>